[[{"header":{"parameterUnit":"m.s-1","parameterCategory":1,"la1":31.0,"la2":29.5877,"lo1":-88.7671,"lo2":-86.6584,"dy":0.0162,"dx":0.0185,"nx":115,"ny":88,"refTime":"2023-09-30T18:00:00:Z","depth":0,"parameterNumber":2,"parameterNumberName":"U-component_of_WINDS"},"data":[0.0,0.0,0.0,0.0,0.0,0.0,0.0,0.0,0.0,0.0,0.0,0.0,0.0,0.0,0.0,0.0,0.0,0.0,0.0,0.0,0.0,0.0,0.0,0.0,0.0,0.0,0.0,0.0,0.0,0.0,0.0,0.0,0.0,0.0,0.0,0.0,0.0,0.0,0.0,0.0,0.0,0.0,0.0,0.0,0.0,0.0,0.0,0.0,0.0,0.0,0.0,0.0,0.0,0.0,0.0,0.0,0.0,0.0,0.0,0.0,0.0,0.0,0.0,0.0,0.0,0.0,0.0,0.0,0.0,0.0,0.0,0.0,0.0,0.0,0.0,0.0,0.0,0.0,0.0,0.0,0.0,0.0,0.0,0.0,0.0,0.0,0.0,0.0,0.0,0.0,0.0,0.0,0.0,0.0,0.0,0.0,0.0,0.0,0.0,0.0,0.0,0.0,0.0,0.0,0.0,0.0,0.0,0.0,0.0,0.0,0.0,0.0,0.0,0.0,0.0,0.0,0.0,0.0,0.0,0.0,0.0,0.0,0.0,0.0,0.0,0.0,0.0,0.0,0.0,0.0,0.0,0.0,0.0,0.0,0.0,0.0,0.0,0.0,0.0,0.0,0.0,0.0,0.0,0.0,0.0,0.0,0.0,0.0,0.0,0.0,0.0,0.0,0.0,0.0,0.0,0.0,0.0,0.0,0.0,0.0,0.0,0.0,0.0,0.0,0.0,0.0,0.0,0.0,0.0,0.0,0.0,0.0,0.0,0.0,0.0,0.0,0.0,0.0,0.0,0.0,0.0,0.0,0.0,0.0,0.0,0.0,0.0,0.0,0.0,0.0,0.0,0.0,0.0,0.0,0.0,0.0,0.0,0.0,0.0,0.0,0.0,0.0,0.0,0.0,0.0,0.0,0.0,0.0,0.0,0.0,0.0,0.0,0.0,0.0,0.0,0.0,0.0,0.0,0.0,0.0,0.0,0.0,0.0,0.0,0.0,0.0,0.0,0.0,0.0,0.0,0.0,0.0,0.0,0.0,0.0,0.0,0.0,0.0,0.0,0.0,0.0,0.0,0.0,0.0,0.0,0.0,0.0,0.0,0.0,0.0,0.0,0.0,0.0,0.0,0.0,0.0,0.0,0.0,0.0,0.0,0.0,0.0,0.0,0.0,0.0,0.0,0.0,0.0,0.0,0.0,0.0,0.0,0.0,0.0,0.0,0.0,0.0,0.0,0.0,0.0,0.0,0.0,0.0,0.0,0.0,0.0,0.0,0.0,0.0,0.0,0.0,0.0,0.0,0.0,0.0,0.0,0.0,0.0,0.0,0.0,0.0,0.0,0.0,0.0,0.0,0.0,0.0,0.0,0.0,0.0,0.0,0.0,0.0,0.0,0.0,0.0,0.0,0.0,0.0,0.0,0.0,0.0,0.0,0.0,0.0,0.0,0.0,0.0,0.0,0.0,0.0,0.0,0.0,0.0,0.0,0.0,0.0,0.0,0.0,0.0,0.0,0.0,0.0,0.0,0.0,0.0,0.0,0.0,0.0,0.0,0.0,0.0,0.0,0.0,0.0,0.0,0.0,0.0,0.0,0.0,0.0,0.0,0.0,0.0,0.0,0.0,0.0,0.0,0.0,0.0,0.0,0.0,0.0,0.0,0.0,0.0,0.0,0.0,0.0,0.0,0.0,0.0,0.0,0.0,0.0,0.0,0.0,0.0,0.0,0.0,0.0,0.0,0.0,0.0,0.0,0.0,0.0,0.0,0.0,0.0,0.0,0.0,0.0,0.0,0.0,0.0,0.0,0.0,0.0,0.0,0.0,0.0,0.0,0.0,0.0,0.0,0.0,0.0,0.0,0.0,0.0,0.0,0.0,0.0,0.0,0.0,0.0,0.0,0.0,0.0,0.0,0.0,0.0,0.0,0.0,0.0,0.0,0.0,0.0,0.0,0.0,0.0,0.0,0.0,0.0,0.0,0.0,0.0,0.0,0.0,0.0,0.0,0.0,0.0,0.0,0.0,0.0,0.0,0.0,0.0,0.0,0.0,0.0,0.0,0.0,0.0,0.0,0.0,0.0,0.0,0.0,0.0,0.0,0.0,0.0,0.0,0.0,0.0,0.0,0.0,0.0,0.0,0.0,0.0,0.0,0.0,0.0,0.0,0.0,0.0,0.0,0.0,0.0,0.0,0.0,0.0,0.0,0.0,0.0,0.0,0.0,0.0,0.0,0.0,0.0,0.0,0.0,0.0,0.0,0.0,0.0,0.0,0.0,0.0,0.0,0.0,0.0,0.0,0.0,0.0,0.0,0.0,0.0,0.0,0.0,0.0,0.0,0.0,0.0,0.0,0.0,0.0,0.0,0.0,0.0,0.0,0.0,0.0,0.0,0.0,0.0,0.0,0.0,0.0,0.0,0.0,0.0,0.0,0.0,0.0,0.0,0.0,0.0,0.0,0.0,0.0,0.0,0.0,0.0,0.0,0.0,0.0,0.0,0.0,0.0,0.0,0.0,0.0,0.0,0.0,0.0,0.0,0.0,0.0,0.0,0.0,0.0,0.0,0.0,0.0,0.0,0.0,0.0,0.0,0.0,0.0,0.0,0.0,0.0,0.0,0.0,0.0,0.0,0.0,0.0,0.0,0.0,0.0,0.0,0.0,0.0,0.0,0.0,0.0,0.0,0.0,0.0,0.0,0.0,0.0,0.0,0.0,0.0,0.0,0.0,0.0,0.0,0.0,0.0,0.0,0.0,0.0,0.0,0.0,0.0,0.0,0.0,0.0,0.0,0.0,0.0,0.0,0.0,0.0,0.0,0.0,0.0,0.0,0.0,0.0,0.0,0.0,0.0,0.0,0.0,0.0,0.0,0.0,0.0,0.0,0.0,0.0,0.0,0.0,0.0,0.0,0.0,0.0,0.0,0.0,0.0,0.0,0.0,0.0,0.0,0.0,0.0,0.0,0.0,0.0,0.0,0.0,0.0,0.0,0.0,0.0,0.0,0.0,0.0,0.0,0.0,0.0,0.0,0.0,0.0,0.0,0.0,0.0,0.0,0.0,0.0,0.0,0.0,0.0,0.0,0.0,0.0,0.0,0.0,0.0,0.0,0.0,0.0,0.0,0.0,0.0,0.0,0.0,0.0,0.0,0.0,0.0,0.0,0.0,0.0,0.0,0.0,0.0,0.0,0.0,0.0,0.0,0.0,0.0,0.0,0.0,0.0,0.0,0.0,0.0,0.0,0.0,0.0,0.0,0.0,0.0,0.0,0.0,0.0,0.0,0.0,0.0,0.0,0.0,0.0,0.0,0.0,0.0,0.0,0.0,0.0,0.0,0.0,0.0,0.0,0.0,0.0,0.0,0.0,0.0,0.0,0.0,0.0,0.0,0.0,0.0,0.0,0.0,0.0,0.0,0.0,0.0,0.0,0.0,0.0,0.0,0.0,0.0,0.0,0.0,0.0,0.0,0.0,0.0,0.0,0.0,0.0,0.0,0.0,0.0,0.0,0.0,0.0,0.0,0.0,0.0,0.0,0.0,0.0,0.0,0.0,0.0,0.0,0.0,0.0,0.0,0.0,0.0,0.0,0.0,0.0,0.0,0.0,0.0,0.0,0.0,0.0,0.0,0.0,0.0,0.0,0.0,0.0,0.0,0.0,0.0,0.0,0.0,0.0,0.0,0.0,0.0,0.0,0.0,0.0,0.0,0.0,0.0,0.0,0.0,0.0,0.0,0.0,0.0,0.0,0.0,0.0,0.0,0.0,0.0,0.0,0.0,0.0,0.0,0.0,0.0,0.0,0.0,0.0,0.0,0.0,0.0,0.0,0.0,0.0,0.0,0.0,0.0,0.0,0.0,0.0,0.0,0.0,0.0,0.0,0.0,0.0,0.0,0.0,0.0,0.0,0.0,0.0,0.0,0.0,0.0,0.0,0.0,0.0,0.0,0.0,0.0,0.0,0.0,0.0,0.0,0.0,0.0,0.0,0.0,0.0,0.0,0.0,0.0,0.0,0.0,0.0,0.0,0.0,0.0,0.0,0.0,0.0,0.0,0.0,0.0,0.0,0.0,0.0,0.0,0.0,0.0,0.0,0.0,0.0,0.0,0.0,0.0,0.0,0.0,0.0,0.0,0.0,0.0,0.0,0.0,0.0,0.0,0.0,0.0,0.0,0.0,0.0,0.0,0.0,0.0,0.0,0.0,0.0,0.0,0.0,0.0,0.0,0.0,0.0,0.0,0.0,0.0,0.0,0.0,0.0,0.0,0.0,0.0,0.0,0.0,-0.1491,0.0,0.0,0.0,0.0,0.0,0.0,0.0,0.0,0.0,0.0,0.0,0.0,0.0,0.0,0.0,0.0,0.0,0.0,0.0,0.0,0.0,0.0,0.0,0.0,0.0,0.0,0.0,0.0,0.0,0.0,0.0,0.0,0.0,0.0,0.0,0.0,0.0,0.0,0.0,0.0,0.0,0.0,0.0,0.0,0.0,0.0,0.0,0.0,0.0,0.0,0.0,0.0,0.0,0.0,0.0,0.0,0.0,0.0,0.0,0.0,0.0,0.0,0.0,0.0,0.0,0.0,0.0,0.0,0.0,0.0,0.0,0.0,0.0,0.0,0.0,0.0,0.0,0.0,0.0,0.0,0.0,0.0,0.0,0.0,0.0,0.0,0.0,0.0,0.0,0.0,0.0,0.0,0.0,0.0,0.0,0.0,0.0,0.0,0.0,0.0,0.0,0.0,0.0,0.0,0.0,0.0,0.0,0.0,0.0,0.0,-0.3682,-0.3277,-0.2448,-0.217,-0.2448,0.0,0.0,0.0,0.0,0.0,0.0,0.0,0.0,0.0,0.0,0.0,0.0,0.0,0.0,0.0,0.0,0.0,0.0,0.0,0.0,0.0,0.0,0.0,0.0,0.0,0.0,0.0,0.0,0.0,0.0,0.0,0.0,0.0,0.0,0.0,0.0,0.0,0.0,0.0,0.0,0.0,0.0,0.0,0.0,0.0,0.0,0.0,0.0,0.0,0.0,0.0,0.0,0.0,0.0,0.0,0.0,0.0,0.0,0.0,0.0,0.0,0.0,0.0,0.0,0.0,0.0,0.0,0.0,0.0,0.0,0.0,0.0,0.0,0.0,0.0,0.0,0.0,0.0,0.0,0.0,0.0,0.0,0.0,0.0,0.0,0.0,0.0,0.0,0.0,0.0,0.0,0.0,0.0,0.0,0.0,0.0,0.0,0.0,0.0,0.0,0.0,0.0,0.0,0.0,0.0,0.0,0.0,0.0,0.0,0.0,0.0,0.0,-0.31,-0.2823,-0.3156,0.0,0.0,0.0,0.0,0.0,0.0,0.0,0.0,0.0,0.0,0.0,0.0,0.0,0.0,0.0,0.0,0.0,0.0,0.0,0.0,0.0,0.0,0.0,0.0,0.0,0.0,0.0,0.0,0.0,0.0,0.0,0.0,0.0,0.0,0.0,0.0,0.0,0.0,0.0,0.0,0.0,0.0,0.0,0.0,0.0,0.0,0.0,0.0,0.0,0.0,0.0,0.0,0.0,0.0,0.0,0.0,0.0,0.0,0.0,0.0,0.0,0.0,0.0,0.0,0.0,0.0,0.0,0.0,0.0,0.0,0.0,0.0,0.0,0.0,0.0,0.0,0.0,0.0,0.0,0.0,0.0,0.0,0.0,0.0,0.0,0.0,0.0,0.0,0.0,0.0,0.0,0.0,0.0,0.0,0.0,0.0,0.0,0.0,0.0,0.0,0.0,0.0,0.0,0.0,0.0,0.0,0.0,0.0,0.0,0.0,-0.4408,-0.3654,-0.3553,0.0,-0.3181,0.0,0.0,0.0,0.0,0.0,0.0,0.0,0.0,0.0,0.0,0.0,0.0,0.0,0.0,0.0,0.0,0.0,0.0,0.0,0.0,0.0,0.0,0.0,0.0,0.0,0.0,0.0,0.0,0.0,0.0,0.0,0.0,0.0,0.0,0.0,0.0,0.0,0.0,0.0,0.0,0.0,0.0,0.0,0.0,0.0,0.0,0.0,0.0,0.0,0.0,0.0,0.0,0.0,0.0,0.0,0.0,0.0,0.0,0.0,0.0,0.0,0.0,0.0,0.0,0.0,0.0,0.0,0.0,0.0,0.0,0.0,0.0,0.0,0.0,0.0,0.0,0.0,0.0,0.0,0.0,0.0,0.0,0.0,0.0,0.0,0.0,0.0,0.0,0.0,0.0,0.0,0.0,0.0,0.0,0.0,0.0,0.0,0.0,0.0,0.0,0.0,0.0,0.0,0.0,0.0,0.0,0.0,0.0,0.0,0.0,-0.5461,-0.478,-0.478,-0.4508,0.0,0.0,0.0,0.0,0.0,0.0,0.0,0.0,0.0,0.0,0.0,0.0,0.0,0.0,0.0,0.0,0.0,0.0,0.0,0.0,0.0,0.0,0.0,0.0,0.0,0.0,0.0,0.0,0.0,0.0,0.0,0.0,0.0,0.0,0.0,0.0,0.0,0.0,0.0,0.0,0.0,0.0,0.0,0.0,0.0,0.0,0.0,0.0,0.0,0.0,0.0,0.0,0.0,0.0,0.0,0.0,0.0,0.0,0.0,0.0,0.0,0.0,0.0,0.0,0.0,0.0,0.0,0.0,0.0,0.0,0.0,0.0,0.0,0.0,0.0,0.0,0.0,0.0,0.0,0.0,0.0,0.0,0.0,0.0,0.0,0.0,0.0,0.0,0.0,0.0,0.0,0.0,0.0,0.0,0.0,0.0,0.0,0.0,0.0,0.0,0.0,0.0,0.0,0.0,0.0,0.0,0.0,0.0,0.0,0.0,-0.6637,-0.6362,-0.5862,-0.5611,-0.5261,-0.4738,0.0,0.0,0.0,0.0,0.0,0.0,0.0,0.0,0.0,0.0,0.0,0.0,0.0,0.0,0.0,0.0,0.0,0.0,0.0,0.0,0.0,0.0,0.0,0.0,0.0,0.0,0.0,0.0,0.0,0.0,0.0,0.0,0.0,0.0,0.0,0.0,0.0,0.0,0.0,0.0,0.0,0.0,0.0,0.0,0.0,0.0,0.0,0.0,0.0,0.0,0.0,0.0,0.0,0.0,0.0,0.0,0.0,0.0,0.0,0.0,0.0,0.0,0.0,0.0,0.0,0.0,0.0,0.0,0.0,0.0,0.0,0.0,0.0,0.0,0.0,0.0,0.0,0.0,0.0,0.0,0.0,0.0,0.0,0.0,0.0,0.0,0.0,0.0,0.0,0.0,0.0,0.0,0.0,0.0,0.0,0.0,0.0,0.0,0.0,0.0,0.0,0.0,0.0,0.0,0.0,0.0,0.0,0.0,-0.7185,-0.716,-0.6911,-0.6362,-0.5632,-0.5331,0.0,0.0,0.0,0.0,0.0,0.0,0.0,0.0,0.0,0.0,0.0,0.0,0.0,0.0,0.0,0.0,0.0,0.0,0.0,0.0,0.0,0.0,0.0,0.0,0.0,0.0,0.0,0.0,0.0,0.0,0.0,0.0,0.0,0.0,0.0,0.0,0.0,0.0,0.0,0.0,0.0,0.0,0.0,0.0,0.0,0.0,0.0,0.0,0.0,0.0,0.0,0.0,0.0,0.0,0.0,0.0,0.0,0.0,0.0,0.0,0.0,0.0,0.0,0.0,0.0,0.0,0.0,0.0,0.0,0.0,0.0,0.0,0.0,0.0,0.0,0.0,0.0,0.0,0.0,0.0,0.0,0.0,0.0,0.0,0.0,0.0,0.0,0.0,0.0,0.0,0.0,0.0,0.0,0.0,0.0,0.0,0.0,0.0,0.0,0.0,0.0,0.0,0.0,0.0,0.0,0.0,0.0,0.0,0.0,-0.7715,-0.7366,-0.711,-0.6911,-0.6637,-0.6362,0.0,0.0,0.0,0.0,0.0,0.0,0.0,0.0,0.0,0.0,0.0,0.0,0.0,0.0,0.0,0.0,0.0,0.0,0.0,0.0,0.0,0.0,0.0,0.0,0.0,0.0,0.0,0.0,0.0,0.0,0.0,0.0,0.0,0.0,0.0,0.0,0.0,0.0,0.0,0.0,0.0,0.0,0.0,0.0,0.0,0.0,0.0,0.0,0.0,0.0,0.0,0.0,0.0,0.0,0.0,0.0,0.0,0.0,0.0,0.0,0.0,0.0,0.0,0.0,0.0,0.0,0.0,0.0,0.0,0.0,0.0,0.0,0.0,0.0,0.0,0.0,0.0,0.0,0.0,0.0,0.0,0.0,0.0,0.0,0.0,0.0,0.0,0.0,0.0,0.0,0.0,0.0,0.0,0.0,0.0,0.0,0.0,0.0,0.0,0.0,0.0,0.0,0.0,0.0,0.0,0.0,0.0,0.0,0.0,-0.8137,0.0,-0.7416,0.0,-0.7341,-0.711,0.0,0.0,0.0,0.0,0.0,0.0,0.0,0.0,0.0,0.0,0.0,0.0,0.0,0.0,0.0,0.0,0.0,0.0,0.0,0.0,0.0,0.0,0.0,0.0,0.0,0.0,0.0,0.0,0.0,0.0,0.0,0.0,0.0,0.0,0.0,0.0,0.0,0.0,0.0,0.0,0.0,0.0,0.0,0.0,0.0,0.0,0.0,0.0,0.0,0.0,0.0,0.0,0.0,0.0,0.0,0.0,0.0,0.0,0.0,0.0,0.0,0.0,0.0,0.0,0.0,0.0,0.0,0.0,0.0,0.0,0.0,0.0,0.0,0.0,0.0,0.0,0.0,0.0,0.0,0.0,0.0,0.0,0.0,0.0,0.0,0.0,0.0,0.0,0.0,0.0,0.0,0.0,0.0,0.0,0.0,0.0,0.0,0.0,0.0,0.0,0.0,0.0,0.0,0.0,0.0,0.0,0.0,0.0,-0.8956,-0.846,-0.8162,-0.7889,-0.7621,-0.7621,-0.749,0.0,0.0,0.0,0.0,0.0,0.0,0.0,0.0,0.0,0.0,0.0,0.0,0.0,0.0,0.0,0.0,0.0,0.0,0.0,0.0,0.0,0.0,0.0,0.0,0.0,0.0,0.0,0.0,0.0,0.0,0.0,0.0,0.0,0.0,0.0,0.0,0.0,0.0,0.0,0.0,0.0,0.0,0.0,0.0,0.0,0.0,0.0,0.0,0.0,0.0,0.0,0.0,0.0,0.0,0.0,0.0,0.0,0.0,0.0,0.0,0.0,0.0,0.0,0.0,0.0,0.0,0.0,0.0,0.0,0.0,0.0,0.0,0.0,0.0,0.0,0.0,0.0,0.0,0.0,0.0,0.0,0.0,0.0,0.0,0.0,0.0,0.0,0.0,0.0,0.0,0.0,0.0,0.0,0.0,0.0,0.0,0.0,0.0,0.0,0.0,0.0,0.0,0.0,0.0,0.0,0.0,0.0,0.0,0.0,-0.9253,-0.8775,-0.8411,-0.8162,-0.8162,-0.7939,0.0,0.0,0.0,0.0,0.0,0.0,0.0,0.0,0.0,0.0,0.0,0.0,0.0,0.0,0.0,0.0,0.0,0.0,0.0,0.0,0.0,0.0,0.0,0.0,0.0,0.0,0.0,0.0,0.0,0.0,0.0,0.0,0.0,0.0,0.0,0.0,0.0,0.0,0.0,0.0,0.0,0.0,0.0,0.0,0.0,0.0,0.0,0.0,0.0,0.0,0.0,0.0,0.0,0.0,0.0,0.0,0.0,0.0,0.0,0.0,0.0,0.0,0.0,0.0,0.0,0.0,0.0,0.0,0.0,0.0,0.0,0.0,0.0,0.0,0.0,0.0,0.0,0.0,0.0,0.0,0.0,0.0,0.0,0.0,0.0,0.0,0.0,0.0,0.0,0.0,0.0,0.0,0.0,0.0,0.0,0.0,0.0,0.0,0.0,0.0,0.0,0.0,0.0,0.0,0.0,0.0,0.0,0.0,0.0,-0.9372,-0.8746,-0.8363,-0.8188,-0.8069,-0.7942,-0.7771,0.0,0.0,0.0,0.0,0.0,0.0,0.0,0.0,0.0,0.0,0.0,0.0,0.0,0.0,0.0,0.0,0.0,0.0,0.0,0.0,0.0,0.0,0.0,0.0,0.0,0.0,0.0,0.0,0.0,0.0,0.0,0.0,0.0,0.0,0.0,0.0,0.0,0.0,0.0,0.0,0.0,0.0,0.0,0.0,0.0,0.0,0.0,0.0,0.0,0.0,0.0,0.0,0.0,0.0,0.0,0.0,0.0,0.0,0.0,0.0,0.0,0.0,0.0,0.0,0.0,0.0,0.0,0.0,0.0,0.0,0.0,0.0,0.0,0.0,0.0,0.0,0.0,0.0,0.0,0.0,0.0,0.0,0.0,0.0,0.0,0.0,0.0,0.0,0.0,0.0,0.0,0.0,0.0,0.0,0.0,0.0,0.0,0.0,0.0,0.0,0.0,0.0,0.0,0.0,0.0,0.0,0.0,0.0,-0.9086,-0.8275,-0.7833,-0.7744,-0.7565,-0.761,0.0,0.0,0.0,0.0,0.0,0.0,0.0,0.0,0.0,0.0,0.0,0.0,0.0,0.0,0.0,0.0,0.0,0.0,0.0,0.0,0.0,0.0,0.0,0.0,0.0,0.0,0.0,0.0,0.0,0.0,0.0,0.0,0.0,0.0,0.0,0.0,0.0,0.0,0.0,0.0,0.0,0.0,0.0,0.0,0.0,0.0,0.0,0.0,0.0,0.0,0.0,0.0,0.0,0.0,0.0,0.0,0.0,0.0,0.0,0.0,0.0,0.0,0.0,0.0,0.0,0.0,0.0,0.0,0.0,0.0,0.0,0.0,0.0,0.0,0.0,0.0,0.0,0.0,0.0,0.0,0.0,0.0,0.0,0.0,0.0,0.0,0.0,0.0,0.0,0.0,0.0,0.0,0.0,0.0,0.0,0.0,0.0,0.0,0.0,0.0,0.0,0.0,0.0,0.0,0.0,0.0,0.0,0.0,0.0,-0.9753,-0.9106,-0.8269,-0.7263,-0.7718,-0.7877,0.0,0.0,0.0,0.0,0.0,0.0,0.0,0.0,0.0,0.0,0.0,0.0,0.0,0.0,0.0,0.0,0.0,0.0,0.0,0.0,0.0,0.0,0.0,0.0,0.0,0.0,0.0,0.0,0.0,0.0,0.0,0.0,0.0,0.0,0.0,0.0,0.0,0.0,0.0,0.0,0.0,0.0,0.0,0.0,0.0,0.0,0.0,0.0,0.0,0.0,0.0,0.0,0.0,0.0,0.0,0.0,0.0,0.0,0.0,0.0,0.0,0.0,0.0,0.0,0.0,0.0,0.0,0.0,0.0,0.0,0.0,0.0,0.0,0.0,0.0,0.0,0.0,0.0,0.0,0.0,0.0,0.0,0.0,0.0,0.0,0.0,0.0,0.0,0.0,0.0,0.0,0.0,0.0,0.0,0.0,0.0,0.0,0.0,0.0,0.0,0.0,0.0,0.0,0.0,0.0,0.0,0.0,0.0,-1.096,-1.0058,-0.934,-0.8455,-0.7392,-0.7858,-0.7968,0.0,0.0,0.0,0.0,0.0,0.0,0.0,0.0,0.0,0.0,0.0,0.0,0.0,0.0,0.0,0.0,0.0,0.0,0.0,0.0,0.0,0.0,0.0,0.0,0.0,0.0,0.0,0.0,0.0,0.0,0.0,0.0,0.0,0.0,0.0,0.0,0.0,0.0,0.0,0.0,0.0,0.0,0.0,0.0,0.0,0.0,0.0,0.0,0.0,0.0,0.0,0.0,0.0,0.0,0.0,0.0,0.0,0.0,0.0,0.0,0.0,0.0,0.0,0.0,0.0,0.0,0.0,0.0,0.0,0.0,0.0,0.0,0.0,0.0,0.0,0.0,0.0,0.0,0.0,0.0,0.0,0.0,0.0,0.0,0.0,0.0,0.0,0.0,0.0,0.0,0.0,0.0,0.0,0.0,0.0,0.0,0.0,0.0,0.0,0.0,0.0,0.0,0.0,0.0,0.0,0.0,0.0,0.0,-1.0723,-1.0325,-0.9522,-0.8743,-0.8083,-0.8116,-0.8047,0.0,0.0,0.0,0.0,0.0,0.0,0.0,0.0,0.0,0.0,0.0,0.0,0.0,0.0,0.0,0.0,0.0,0.0,0.0,0.0,0.0,0.0,0.0,0.0,0.0,0.0,0.0,0.0,0.0,0.0,0.0,0.0,0.0,0.0,0.0,0.0,0.0,0.0,0.0,0.0,0.0,0.0,0.0,0.0,0.0,0.0,0.0,0.0,0.0,0.0,0.0,0.0,0.0,0.0,0.0,0.0,0.0,0.0,0.0,0.0,0.0,0.0,0.0,0.0,0.0,0.0,0.0,0.0,0.0,0.0,0.0,0.0,0.0,0.0,0.0,0.0,0.0,0.0,0.0,0.0,0.0,0.0,0.0,0.0,0.0,0.0,0.0,0.0,0.0,0.0,0.0,0.0,0.0,0.0,0.0,0.0,0.0,0.0,0.0,0.0,0.0,0.0,0.0,0.0,0.0,0.0,0.0,0.0,-1.2032,-1.1662,-1.1244,-1.0378,-0.9119,-0.9041,-0.8872,0.0,0.0,0.0,0.0,0.0,0.0,0.0,0.0,0.0,0.0,0.0,0.0,0.0,0.0,0.0,0.0,0.0,0.0,0.0,0.0,0.0,0.0,0.0,0.0,0.0,0.0,0.0,0.0,0.0,0.0,0.0,0.0,0.0,0.0,0.0,0.0,0.0,0.0,0.0,0.0,0.0,0.0,0.0,0.0,0.0,0.0,0.0,0.0,0.15,0.0,0.0,0.0,0.0,0.0,0.0,0.0,0.0,0.0,0.0,0.0,0.0,0.0,0.0,0.0,0.0,0.0,0.0,0.0,0.0,0.0,0.0,0.0,0.0,0.0,0.0,0.0,0.0,0.0,0.0,0.0,0.0,0.0,0.0,0.0,0.0,0.0,0.0,0.0,0.0,0.0,0.0,0.0,0.0,0.0,0.0,0.0,0.0,0.0,0.0,0.0,0.0,0.0,0.0,0.0,0.0,0.0,0.0,0.0,-1.2575,-1.2176,-1.195,-1.1351,-1.0333,-1.0034,-0.9558,0.0,0.0,0.0,0.0,0.0,0.0,0.0,0.0,0.0,0.0,0.0,0.0,0.0,0.0,0.0,0.0,0.0,0.0,0.0,0.0,0.0,0.0,0.0,0.0,0.0,0.0,0.0,0.0,0.0,0.0,0.0,0.0,0.0,0.0,0.0,0.0,0.0,0.0,0.0,0.0,0.0,0.0,0.0,0.0,0.0,0.0,0.0,0.0,0.0,0.0,0.0,0.0,0.0,0.0,0.0,0.0,0.0,0.0,0.0,0.0,0.0,0.0,0.0,0.0,0.0,0.0,0.0,0.0,0.0,0.0,0.0,0.0,0.0,0.0,0.0,0.0,0.0,0.0,0.0,0.0,0.0,0.0,0.0,0.0,0.0,0.0,0.0,0.0,0.0,0.0,0.0,0.0,0.0,0.0,0.0,0.0,0.0,0.0,0.0,0.0,0.0,0.0,0.0,0.0,0.0,0.0,0.0,-1.3247,-1.2775,-1.2216,-1.2118,-1.1824,-1.1318,-1.094,-1.0297,-0.9294,0.0,0.0,0.0,0.0,0.0,0.0,0.0,0.0,0.0,0.0,0.0,0.0,0.0,0.0,0.0,0.0,0.0,0.0,0.0,0.0,0.0,0.0,0.0,0.0,0.0,0.0,0.0,0.0,0.0,0.0,0.0,0.0,0.0,0.0,0.0,0.0,0.0,0.0,-0.456,-0.4133,0.0,0.0,0.0,0.0,0.0,0.0,0.0,0.0,0.0,0.0,0.0,0.0,0.0,0.0,0.0,0.0,0.0,0.0,0.0,0.0,0.0,0.0,0.0,0.0,0.0,0.0,0.0,0.0,0.0,0.0,0.0,0.0,0.0,0.0,0.0,0.0,0.0,0.0,0.0,0.0,0.0,0.0,0.0,0.0,0.0,0.0,0.0,0.0,0.0,0.0,0.0,0.0,0.0,0.0,0.0,0.0,0.0,0.0,0.0,0.0,0.0,0.0,0.0,0.0,0.0,-1.4089,-1.3609,-1.2935,-1.2139,-1.2124,-1.1851,-1.1318,-1.146,-1.1433,-1.1212,0.0,0.0,0.0,0.0,0.0,0.0,0.0,0.0,0.0,0.0,0.0,0.0,0.0,0.0,0.0,0.0,0.0,0.0,0.0,0.0,0.0,0.0,0.0,0.0,0.0,0.0,0.0,0.0,0.0,0.0,0.0,0.0,0.0,0.0,0.0,0.0,0.0,0.0,0.0,-0.4614,-0.4321,0.0,0.0,0.0,0.0,0.0,0.0,0.0,0.0,0.0432,0.0,0.0,0.0,0.0,0.0,0.0,0.0,0.0,0.0,0.0,0.0,0.0,0.0,0.0,0.0,0.0,0.0,0.0,0.0,0.0,0.0,0.0,0.0,0.0,0.0,0.0,0.0,0.0,0.0,0.0,0.0,0.0,0.0,0.0,0.0,0.0,0.0,0.0,0.0,0.0,0.0,0.0,0.0,0.0,0.0,0.0,0.0,0.0,0.0,0.0,0.0,0.0,0.0,0.0,0.0,-1.4173,-1.3517,-1.2799,-1.2117,-1.209,-1.1984,-1.1718,-1.17,-1.1959,0.0,0.0,0.0,0.0,0.0,0.0,0.0,0.0,0.0,0.0,0.0,0.0,0.0,0.0,0.0,0.0,0.0,0.0,0.0,0.0,0.0,0.0,0.0,0.0,0.0,0.0,0.0,0.0,0.0,0.0,0.0,0.0,0.0,0.0,0.0,0.0,0.0,0.0,0.0,0.0,-0.5133,-0.4659,-0.3382,0.0,0.0,0.0,0.0,0.0,0.0,-0.0559,-0.0436,0.0,0.0,0.0,0.0,0.0,0.0,0.0,0.0,0.0,0.0,0.0,0.0,0.0,0.0,0.0,0.0,0.0,0.0,0.0,0.0,0.0,0.0,0.0,0.0,0.0,0.0,0.0,0.0,0.0,0.0,0.0,0.0,0.0,0.0,0.0,0.0,0.0,0.0,0.0,0.0,0.0,0.0,0.0,0.0,0.0,0.0,0.0,0.0,0.0,0.0,0.0,0.0,0.0,0.0,0.0,-1.4519,-1.3586,-1.2783,-1.2233,-1.2143,-1.209,-1.209,-1.1992,-1.2379,0.0,0.0,0.0,0.0,0.0,0.0,0.0,0.0,0.0,0.0,0.0,0.0,0.0,0.0,0.0,0.0,0.0,0.0,0.0,0.0,0.0,0.0,0.0,0.0,0.0,0.0,0.0,0.0,0.0,0.0,0.0,0.0,0.0,0.0,0.0,0.0,0.0,0.0,0.0,0.0,0.0,-0.5286,-0.3864,-0.4042,0.0,0.0,0.0,0.0,-0.1683,-0.1379,0.0,0.0,0.0,0.0,0.0,0.0,0.0,0.0,0.0,0.0,0.0,0.0,0.0,0.0,0.0,0.0,0.0,0.0,0.0,0.0,0.0,0.0,0.0,0.0,0.0,0.0,0.0,0.0,0.0,0.0,0.0,0.0,0.0,0.0,0.0,0.0,0.0,0.0,0.0,0.0,0.0,0.0,0.0,0.0,0.0,0.0,0.0,0.0,0.0,0.0,0.0,0.0,0.0,0.0,0.0,0.0,-1.5645,-1.4315,-1.3268,-1.2551,-1.225,-1.209,-1.209,-1.2575,-1.3003,0.0,0.0,0.0,0.0,0.0,0.0,0.0,0.0,0.0,0.0,0.0,0.0,0.0,0.0,0.0,0.0,0.0,0.0,0.0,0.0,0.0,0.0,0.0,0.0,0.0,0.0,0.0,0.0,0.0,0.0,0.0,0.0,0.0,0.0,0.0,0.0,0.0,0.0,0.0,0.0,0.0,-0.7173,-0.5987,-0.5593,-0.507,0.0,0.0,-0.2794,-0.1764,-0.1048,0.0,0.0,0.0,0.0,0.0,0.0,0.0,0.0,0.0,0.0,0.0,0.0,0.0,0.0,0.0,0.0,0.0,0.0,0.0,0.0,0.0,0.0,0.0,0.0,0.0,0.0,0.0,0.0,0.0,0.0,0.0,0.0,0.0,0.0,0.0,0.0,0.0,0.0,0.0,0.0,0.0,0.0,0.0,0.0,0.0,0.0,0.0,0.0,0.0,0.0,0.0,0.0,0.0,0.0,0.0,-1.5367,-1.529,-1.4073,-1.3265,-1.2957,-1.2657,-1.2518,-1.2556,-1.2815,-1.3052,0.0,0.0,0.0,0.0,0.0,0.0,0.0,0.0,0.0,0.0,0.0,0.0,0.0,0.0,0.0,0.0,0.0,0.0,0.0,0.0,0.0,0.0,0.0,0.0,0.0,0.0,0.0,0.0,0.0,0.0,0.0,0.0,0.0,0.0,0.0,0.0,0.0,0.0,0.0,0.0,0.0,0.0,-0.6303,-0.5708,0.0,0.0,0.0,-0.3692,-0.2867,0.0,0.0,0.0,0.0,0.0,0.0,0.0,0.0,0.0,0.0,0.0,0.0,0.0,0.0,0.0,0.0,0.0,0.0,0.0,0.0,0.0,0.0,0.0,0.0,0.0,0.0,0.0,0.0,0.0,0.0,0.0,0.0,0.0,0.0,0.0,0.0,0.0,0.0,0.0,0.0,0.0,0.0,0.0,0.0,0.0,0.0,0.0,0.0,0.0,0.0,0.0,0.0,0.0,0.0,0.0,0.0,0.0,-1.521,-1.3943,-1.3272,-1.3272,-1.3011,-1.2851,-1.2827,-1.2872,0.0,0.0,0.0,0.0,0.0,0.0,0.0,0.0,0.0,0.0,0.0,0.0,0.0,0.0,0.0,0.0,0.0,0.0,0.0,0.0,0.0,0.0,0.0,0.0,0.0,0.0,0.0,-1.0345,0.0,0.0,0.0,0.0,0.0,0.0,0.0,0.0,0.0,0.0,0.0,0.0,0.0,0.0,-0.6818,-0.6457,-0.5839,-0.4906,0.0,0.0,-0.4565,-0.3513,-0.23,-0.1683,0.0,0.0,0.0,0.0,0.0,0.0,0.0,0.0,0.0,0.0,0.0,0.0,0.0,0.0,0.0,0.0,0.0,0.0,0.0,0.0,0.0,0.0,0.0,0.0,0.0,0.0,0.0,0.0,0.0,0.0,0.0,0.0,0.0,0.0,0.0,0.0,0.0,0.0,0.0,0.0,0.0,0.0,0.0,0.0,0.0,0.0,0.0,0.0,0.0,0.0,0.0,0.0,0.0,0.0,0.0,-1.607,-1.4377,-1.3478,-1.3478,-1.3222,-1.2927,-1.2623,-1.288,-1.3136,0.0,0.0,0.0,0.0,0.0,0.0,0.0,0.0,0.0,0.0,0.0,0.0,0.0,0.0,0.0,0.0,0.0,0.0,0.0,0.0,0.0,0.0,0.0,0.0,0.0,0.0,0.0,0.0,0.0,0.0,0.0,0.0,0.0,0.0,0.0,0.0,0.0,0.0,0.0,0.0,0.0,-0.7817,-0.7062,-0.6323,-0.5125,0.0,0.0,-0.5096,-0.2994,-0.2076,-0.1792,-0.2399,0.0,0.0,0.0,0.0,0.0,0.0,0.0,0.0,0.0,0.0,0.0,0.0,0.0,0.0,0.0,0.0,0.0,0.0,0.0,0.0,0.0,0.0,0.0,0.0,0.0,0.0,0.0,0.0,0.0,0.0,0.0,0.0,0.0,0.0,0.0,0.0,0.0,0.0,0.0,0.0,0.0,0.0,0.0,0.0,0.0,0.0,0.0,0.0,0.0,0.0,0.0,0.0,0.0,-1.5921,-1.5997,-1.4274,-1.3498,-1.3716,-1.3244,-1.2997,-1.3026,-1.2839,-1.2888,0.0,0.0,0.0,0.0,0.0,0.0,0.0,0.0,0.0,0.0,0.0,0.0,0.0,0.0,0.0,0.0,0.0,0.0,0.0,0.0,0.0,0.0,0.0,0.0,0.0,0.0,0.0,0.0,-0.7845,-0.7815,-0.8683,0.0,0.0,0.0,0.0,0.0,0.0,0.0,0.0,0.0,0.0,-0.7117,-0.5819,-0.5034,0.0,0.0,-0.387,-0.4322,-0.3649,-0.2933,-0.2702,-0.3309,-0.3331,0.0,0.0,0.0,0.0,0.0,0.0,0.0,0.0,0.0,0.0,0.0,0.0,0.0,0.0,0.0,0.0,0.0,0.0,0.0,0.0,0.0,0.0,0.0,0.0,0.0,0.0,0.0,0.0,0.0,0.0,0.0,0.0,0.0,0.0,0.0,0.0,0.0,0.0,0.0,0.0,0.0,0.0,0.0,0.0,0.0,0.0,0.0,0.0,0.0,0.0,0.0,0.0,-1.5926,-1.6023,-1.4222,-1.3495,-1.3843,-1.3414,-1.3267,-1.3446,-1.3129,-1.3085,0.0,0.0,0.0,0.0,0.0,0.0,0.0,0.0,0.0,0.0,0.0,0.0,0.0,0.0,0.0,0.0,0.0,0.0,0.0,0.0,0.0,0.0,0.0,0.0,0.0,0.0,0.0,0.0,-0.8014,-0.8091,-0.9258,0.0,0.0,0.0,0.0,0.0,0.0,0.0,0.0,0.0,0.0,-0.6291,-0.5392,-0.4967,-0.4669,-0.4398,-0.4827,-0.507,-0.4839,-0.4079,-0.365,-0.397,0.0,0.0,0.0,0.0,0.0,0.0,0.0,0.0,0.0,0.0,0.0,0.0,0.0,0.0,0.0,0.0,0.0,0.0,0.0,0.0,0.0,0.0,0.0,0.0,0.0,0.0,0.0,0.0,0.0,0.0,-1.7356,0.0,0.0,0.0,0.0,0.0,0.0,0.0,0.0,0.0,0.0,0.0,0.0,0.0,0.0,0.0,0.0,0.0,0.0,0.0,0.0,0.0,0.0,-1.6255,-1.6246,-1.4311,-1.3465,-1.3766,-1.3788,-1.377,-1.3779,-1.3779,-1.3904,-1.4248,0.0,0.0,0.0,0.0,0.0,0.0,0.0,0.0,0.0,0.0,0.0,0.0,0.0,0.0,0.0,0.0,0.0,0.0,0.0,0.0,0.0,0.0,0.0,0.0,0.0,0.0,-1.1088,-1.0028,-0.9326,0.0,0.0,0.0,0.0,0.0,0.0,0.0,0.0,0.0,0.0,-0.7021,-0.5622,-0.6264,-0.6664,-0.6798,-0.6798,-0.7698,-0.7928,-0.6468,-0.5413,-0.4592,0.0,0.0,0.0,0.0,0.0,0.0,0.0,0.0,0.0,0.0,0.0,0.0,0.0,0.0,0.0,0.0,0.0,0.0,0.0,0.0,0.0,0.0,0.0,0.0,0.0,0.0,0.0,-1.6493,-1.6563,0.0,0.0,0.0,0.0,0.0,0.0,0.0,0.0,0.0,0.0,0.0,-1.4501,-1.451,0.0,0.0,0.0,0.0,0.0,0.0,0.0,0.0,0.0,0.0,0.0,0.0,-1.5308,-1.5356,-1.4013,-1.349,-1.3858,-1.3816,-1.387,-1.4007,-1.3784,-1.3751,-1.3949,0.0,0.0,0.0,0.0,0.0,0.0,0.0,0.0,0.0,0.0,0.0,0.0,0.0,0.0,0.0,0.0,0.0,0.0,0.0,0.0,0.0,0.0,0.0,0.0,0.0,-1.0507,0.0,0.0,0.0,0.0,0.0,0.0,0.0,0.0,0.0,0.0,0.0,-0.9871,-0.8612,-0.7905,-0.7231,-0.6498,-0.6498,-0.6264,0.0,0.0,0.0,0.0,0.0,0.0,0.0,0.0,0.0,0.0,0.0,0.0,0.0,0.0,-0.1568,-0.201,-0.1709,-0.1258,-0.087,0.0,0.0,0.0,0.0,0.0,0.0,0.0,0.0,0.0,0.0,0.0,0.0,0.0,0.0,-1.5756,0.0,-1.5821,0.0,0.0,0.0,0.0,0.0,0.0,0.0,0.0,-1.4357,-1.4131,-1.3932,-1.3875,-1.3845,0.0,-1.3894,-1.4298,0.0,0.0,0.0,0.0,0.0,0.0,0.0,0.0,-1.4886,-1.5058,-1.4015,-1.3654,-1.4084,-1.419,-1.4322,-1.459,-1.4262,-1.4026,-1.3923,-1.3923,-1.3934,0.0,0.0,0.0,0.0,0.0,0.0,0.0,0.0,0.0,0.0,0.0,0.0,0.0,0.0,0.0,0.0,0.0,0.0,0.0,0.0,0.0,0.0,0.0,-0.99,0.0,0.0,0.0,0.0,0.0,0.0,0.0,0.0,0.0,-1.0441,-0.9715,-0.8811,-0.7783,-0.7436,-0.7236,-0.7169,0.0,0.0,0.0,0.0,0.0,0.0,0.0,-0.5756,-0.55,-0.5208,-0.4702,-0.3627,-0.2962,-0.2522,-0.2382,0.0,0.0,-0.1689,-0.1248,-0.0753,-0.0491,-0.036,-0.0065,0.0585,0.1294,0.1802,0.0,0.0,0.0,0.0,0.0,0.0,0.0,0.0,-1.5002,-1.5403,0.0,-1.5192,0.0,0.0,0.0,0.0,0.0,-1.4134,0.0,0.0,-1.3006,-1.2912,-1.3697,-1.3602,-1.3403,-1.3225,-1.3796,-1.3998,-1.3788,-1.4152,0.0,0.0,0.0,0.0,0.0,0.0,-1.5087,-1.5215,-1.4268,-1.3992,-1.4505,-1.4855,-1.5171,-1.5521,-1.518,-1.4715,-1.4142,-1.4142,-1.4054,-1.3796,-1.3947,0.0,0.0,0.0,0.0,0.0,0.0,0.0,0.0,0.0,0.0,0.0,0.0,0.0,0.0,0.0,0.0,0.0,0.0,0.0,0.0,-0.9909,0.0,0.0,0.0,0.0,0.0,0.0,0.0,0.0,0.0,0.0,-0.9308,-0.8602,-0.7802,-0.7212,0.0,0.0,0.0,0.0,-0.7307,-0.9576,-0.915,-0.8451,-0.8318,-0.6944,-0.5619,-0.4918,0.0,0.0,-0.1821,-0.2482,-0.3002,-0.2694,-0.1788,-0.1083,-0.1096,-0.078,-0.0471,-0.0437,-0.0168,0.0033,0.0132,0.0882,0.1418,-1.6447,0.0,0.0,0.0,0.0,-1.5168,-1.4847,-1.4175,-1.4313,-1.4466,-1.4581,-1.4455,0.0,0.0,0.0,0.0,0.0,0.0,-1.3805,-1.3444,-1.3222,-1.2938,-1.2582,-1.2653,-1.2651,-1.2641,-1.2807,-1.2894,-1.2901,-1.3335,-1.3976,-1.4812,0.0,0.0,0.0,0.0,-1.46,-1.4503,-1.4347,-1.447,-1.483,-1.5248,-1.5425,-1.5367,-1.5012,-1.4675,-1.4369,-1.3844,-1.3587,-1.3649,-1.3463,0.0,0.0,0.0,0.0,0.0,0.0,0.0,0.0,0.0,0.0,0.0,0.0,0.0,0.0,0.0,0.0,0.0,0.0,0.0,-1.0643,-0.9315,-0.91,0.0,0.0,0.0,0.0,0.0,0.0,0.0,0.0,0.0,-0.7508,-0.8324,-0.8879,0.0,0.0,-0.8643,-0.9289,-0.8379,-0.7412,-0.684,0.0,0.0,0.0,-0.497,-0.4967,-0.4512,-0.3697,-0.3055,-0.2851,-0.245,-0.2114,-0.2009,-0.1272,-0.0684,-0.0651,-0.0374,-0.0067,0.0168,0.0505,0.084,0.1138,0.2299,0.3382,-1.582,-1.5442,-1.558,-1.5223,-1.458,-1.4605,-1.4113,-1.3286,-1.354,-1.3649,-1.3641,-1.3605,-1.4038,-1.4844,-1.477,0.0,0.0,0.0,-1.3468,-1.2869,-1.2917,-1.2719,-1.2275,-1.2309,-1.2347,-1.2354,-1.2432,-1.2415,-1.2345,-1.3083,-1.3706,-1.4206,0.0,0.0,-1.4525,-1.4492,-1.4536,-1.4639,-1.4536,-1.4727,-1.5147,-1.5292,-1.5241,-1.4973,-1.4727,-1.4427,-1.4039,-1.3519,-1.3212,-1.3173,-1.2971,-1.2988,0.0,0.0,0.0,0.0,0.0,0.0,0.0,0.0,0.0,0.0,0.0,-1.2067,-1.2512,0.0,0.0,0.0,-1.008,-0.9942,-0.9661,-0.9025,0.0,0.0,0.0,0.0,0.0,0.0,0.0,-0.8663,-0.7868,-0.7286,-0.7209,-0.809,-0.8568,-0.8074,-0.821,-0.8465,-0.8834,0.0,-0.651,-0.5707,-0.551,-0.5041,-0.383,-0.3933,-0.4034,-0.353,-0.3149,-0.2793,-0.2624,-0.206,-0.1691,-0.1587,-0.1028,-0.0477,-0.0477,-0.0135,0.0303,0.0673,0.1278,0.185,0.2154,0.3515,0.4666,-1.5188,-1.5074,-1.5752,-1.5328,-1.4249,-1.4091,-1.3414,-1.2413,-1.286,-1.3065,-1.3081,-1.2862,-1.3258,-1.4168,-1.4429,0.0,-1.3133,-1.3273,-1.2968,-1.2311,-1.2305,-1.2372,-1.2494,-1.2372,-1.2298,-1.2284,-1.248,-1.241,-1.2165,-1.3148,-1.3528,-1.3193,-1.3886,-1.4283,-1.4286,-1.4365,-1.4665,-1.5171,-1.4728,-1.4719,-1.5262,-1.5033,-1.4768,-1.4439,-1.4403,-1.4074,-1.3317,-1.3114,-1.2861,-1.2516,-1.2569,-1.2566,-1.2473,0.0,0.0,0.0,0.0,0.0,0.0,0.0,0.0,0.0,0.0,0.0,0.0,0.0,0.0,0.0,-0.8387,0.0,-0.7921,-0.8764,0.0,0.0,0.0,-0.8844,-0.7741,-0.7597,-0.7566,-0.7566,0.0,0.0,-0.7624,0.0,-0.7181,-0.6049,-0.6003,-0.6427,-0.7367,-0.6039,-0.505,-0.5547,-0.5108,-0.4537,-0.3967,-0.3497,-0.2959,-0.2457,-0.219,-0.2128,-0.1824,-0.1659,-0.1622,-0.1627,-0.1014,-0.0473,-0.0473,0.0,0.0608,0.098,0.1856,0.2696,0.304,0.4122,0.5056,-1.5302,-1.5131,-1.4848,-1.4316,-1.3596,-1.3473,-1.33,-1.3146,-1.3247,-1.3268,-1.3178,-1.3131,-1.302,-1.2919,-1.2795,-1.2641,-1.2502,-1.2536,-1.2536,-1.2447,-1.2454,-1.2474,-1.2501,-1.2467,-1.2393,-1.2291,-1.2326,-1.2289,-1.2111,-1.2477,-1.2759,-1.3016,-1.3551,-1.3954,-1.4131,-1.431,-1.4408,-1.439,-1.4313,-1.4283,-1.4256,-1.417,-1.4118,-1.4047,-1.3753,-1.3503,-1.3289,-1.2723,-1.2409,-1.2402,-1.2051,-1.1938,-1.2062,-1.2537,0.0,0.0,0.0,0.0,0.0,0.0,0.0,0.0,0.0,-1.1518,-1.2499,0.0,-1.0633,0.0,-0.8046,-0.6836,-0.693,-0.6926,0.0,0.0,-0.8082,-0.791,-0.7031,-0.6744,-0.6532,-0.6182,-0.5686,-0.536,-0.5463,-0.518,-0.478,-0.4225,-0.5564,-0.6632,-0.6744,-0.5713,-0.4728,-0.435,-0.3933,-0.3362,-0.2858,-0.2558,-0.2389,-0.2223,-0.2208,-0.2155,-0.2053,-0.1829,-0.1668,-0.1633,-0.1042,-0.0556,-0.0486,-0.0139,0.0347,0.0937,0.155,0.2161,0.2838,0.3907,0.483,-1.506,-1.4973,-1.4337,-1.3845,-1.3492,-1.3336,-1.3288,-1.3214,-1.2929,-1.2699,-1.2464,-1.2122,-1.186,-1.1604,-1.1518,-1.145,-1.1413,-1.1475,-1.1506,-1.1557,-1.1951,-1.2108,-1.2102,-1.2435,-1.2562,-1.2481,-1.242,-1.2338,-1.2264,-1.2345,-1.2501,-1.2717,-1.3,-1.3335,-1.3686,-1.4319,-1.4769,-1.5022,-1.4634,-1.4143,-1.3603,-1.3748,-1.3817,-1.3774,-1.373,-1.3582,-1.3325,-1.2904,-1.2654,-1.2554,-1.2302,-1.2151,-1.2178,-1.2476,-1.2612,0.0,0.0,0.0,0.0,0.0,0.0,0.0,0.0,0.0,0.0,0.0,-0.9889,-0.9531,-0.7549,-0.6559,-0.7225,-0.7083,-0.6962,-0.6932,-0.6936,-0.6582,-0.5653,-0.5258,-0.5042,-0.5006,-0.4469,-0.4121,-0.4151,-0.3973,-0.3755,-0.3538,-0.4563,-0.5292,-0.5118,-0.4569,-0.3971,-0.3401,-0.3109,-0.2793,-0.229,-0.2189,-0.2193,-0.2207,-0.2189,-0.2136,-0.2009,-0.1814,-0.1649,-0.1439,-0.0912,-0.0386,-0.007,0.0245,0.0738,0.1483,0.2111,0.2731,0.3466,0.4343,0.5216,-1.4391,-1.4334,-1.3764,-1.3403,-1.3167,-1.3036,-1.2972,-1.2835,-1.2136,-1.1688,-1.1351,-1.0677,-1.0347,-1.0399,-1.0443,-1.0369,-1.0142,-1.0237,-1.0227,-1.0171,-1.089,-1.1304,-1.1396,-1.2045,-1.2357,-1.241,-1.2305,-1.2239,-1.2232,-1.2199,-1.2257,-1.2296,-1.2392,-1.2656,-1.312,-1.4276,-1.519,-1.5824,-1.4941,-1.4056,-1.3185,-1.3557,-1.3666,-1.3592,-1.3921,-1.3833,-1.33,-1.3249,-1.3105,-1.2783,-1.2732,-1.2551,-1.2206,-1.2373,-1.2344,0.0,-1.2216,0.0,0.0,0.0,0.0,0.0,0.0,0.0,0.0,-0.8851,-0.8764,-0.8211,-0.7038,-0.6682,-0.7553,-0.7634,-0.7055,-0.5759,-0.5535,-0.5098,-0.416,-0.3723,-0.3646,-0.3971,-0.3682,-0.3427,-0.3427,-0.3391,-0.3354,-0.3318,-0.3352,-0.3445,-0.3297,-0.3363,-0.3239,-0.2752,-0.2655,-0.2501,-0.2266,-0.22,-0.2178,-0.2166,-0.2109,-0.2047,-0.1755,-0.1586,-0.1446,-0.1164,-0.0742,-0.0212,0.0423,0.0847,0.1416,0.2111,0.2902,0.3676,0.4317,0.5043,0.5842,-1.2225,-1.218,-1.2028,-1.1627,-1.1069,-1.1004,-1.1487,-1.2161,-1.1001,-1.045,-1.0319,-0.9716,-0.9645,-0.9891,-0.9459,-0.9202,-0.9164,-0.9183,-0.9183,-0.9164,-0.9325,-0.9658,-1.0147,-1.0294,-1.0577,-1.0994,-1.0876,-1.0814,-1.0808,-1.0696,-1.0791,-1.114,-1.1739,-1.2379,-1.3067,0.0,0.0,0.0,-1.3506,-1.3115,-1.2813,-1.3178,-1.3386,-1.3363,-1.3437,0.0,-1.3078,-1.3063,-1.2881,-1.251,-1.2366,0.0,0.0,0.0,0.0,0.0,0.0,0.0,0.0,0.0,0.0,0.0,-0.9392,-0.9371,-0.8884,-0.8541,-0.7947,-0.6894,-0.656,-0.6098,-0.5389,-0.5059,-0.4754,-0.4541,-0.4143,-0.388,-0.3697,-0.3559,-0.3536,-0.3609,-0.3245,-0.3026,-0.299,-0.2735,-0.2551,-0.2551,-0.2515,-0.2513,-0.2506,-0.2982,-0.3167,-0.2791,-0.2469,-0.2261,-0.2191,-0.2177,-0.2086,-0.1889,-0.1799,-0.1776,-0.1639,-0.1187,-0.0977,-0.1049,-0.0579,-0.0072,0.0181,0.0905,0.1771,0.2214,0.323,0.4136,0.4596,0.5276,0.6001,-1.0892,0.0,-1.0851,-1.059,0.0,-0.9724,-0.9749,-1.0138,-0.9408,-0.8857,-0.839,-0.8094,-0.8074,-0.8244,-0.7991,-0.7842,-0.7806,-0.7846,-0.7842,-0.7847,-0.8295,-0.8651,-0.899,-0.9358,-0.9689,-0.9895,-0.9794,-0.9702,-0.9647,-0.9622,-0.9647,-0.9881,-1.0221,-1.0623,-1.1012,-1.1519,-1.2292,-1.3273,-1.312,-1.2848,-1.2626,-1.2581,-1.2581,-1.2498,0.0,0.0,0.0,0.0,0.0,0.0,0.0,0.0,0.0,0.0,0.0,-0.8764,-0.8787,-0.8612,-0.8103,-0.807,-0.7771,-0.7026,-0.6999,-0.7231,-0.7745,-0.7021,-0.6235,-0.565,-0.5571,-0.5244,-0.448,-0.4226,-0.398,-0.3602,-0.3331,-0.3145,-0.3013,-0.2929,-0.2917,-0.2881,-0.2735,-0.2625,-0.2588,-0.2442,-0.2223,-0.2078,-0.2041,-0.1968,-0.182,-0.2224,-0.2432,-0.2228,-0.2083,-0.2014,-0.2154,-0.2024,-0.19,-0.1698,-0.1532,-0.1327,-0.1192,-0.0872,-0.062,-0.0584,-0.0255,0.0219,0.1239,0.1786,0.2405,0.3714,0.466,0.535,0.5716,0.5829,0.6155,-0.9719,-0.9723,-0.9741,-0.9584,-0.9267,-0.8554,-0.8046,-0.7736,0.0,0.0,0.0,-0.6524,-0.6518,-0.6563,-0.659,-0.6548,-0.6499,-0.6564,-0.6564,-0.6557,-0.7309,-0.7688,-0.7772,-0.8441,-0.8775,-0.8783,-0.8677,-0.8588,-0.8553,-0.8522,-0.8504,-0.8504,-0.8608,-0.876,-0.8926,-0.9372,-1.0534,-1.2284,-1.2525,-1.2408,-1.1992,-1.1733,-1.1526,-1.1442,-1.1043,-1.0577,-1.0134,-1.0013,-0.9741,-0.9345,-0.9339,-0.9192,-0.8907,-0.8678,-0.8389,-0.8182,-0.7867,-0.7275,-0.6351,-0.6277,-0.5848,-0.486,-0.4745,-0.5184,-0.6265,-0.5416,-0.473,-0.4598,-0.4519,-0.4335,-0.3935,-0.3826,-0.3534,-0.2844,-0.2735,-0.2551,-0.226,-0.215,-0.2115,-0.2114,-0.2078,-0.2114,-0.2079,-0.2079,-0.2005,-0.175,-0.1677,-0.1532,-0.1275,-0.1515,-0.1814,-0.1792,-0.1755,-0.1796,-0.1901,-0.1802,-0.1596,-0.147,-0.1221,-0.0901,-0.0582,-0.0328,-0.0073,0.0292,0.0438,0.1349,0.2694,0.3059,0.3605,0.5528,0.633,0.6805,0.7131,0.6736,0.6664,-0.7863,-0.7871,-0.7938,-0.7594,-0.7043,-0.6997,-0.6609,-0.6069,-0.6295,-0.6318,-0.6136,-0.5743,-0.5804,-0.614,-0.5829,-0.5685,-0.5679,-0.5736,-0.5758,0.0,-0.5879,-0.6138,-0.6443,-0.6659,-0.6911,-0.7195,-0.7213,-0.7177,-0.7151,-0.7033,-0.6923,-0.6998,-0.7543,-0.8195,-0.8881,-0.8976,-0.9164,-0.9522,-1.0341,-1.0543,-1.0033,-1.0244,-1.0347,-1.0302,-1.0191,-1.0037,-0.9786,-0.9715,-0.9499,-0.8987,-0.8982,-0.8384,-0.7085,-0.7017,-0.6499,-0.5493,-0.539,-0.5157,-0.4704,-0.4663,-0.4456,-0.4036,-0.3957,-0.4287,-0.4971,-0.4909,-0.462,-0.4233,-0.3864,-0.35,-0.3099,-0.277,-0.2551,-0.2369,-0.2114,-0.1932,-0.1822,-0.1605,-0.1386,-0.1387,-0.1349,-0.1387,-0.1422,-0.1386,-0.1387,-0.1314,-0.124,-0.1131,-0.0911,-0.1263,-0.1674,-0.1692,-0.17,-0.1568,-0.1428,-0.1298,-0.1123,-0.08,-0.0727,-0.0473,-0.0073,0.062,0.1166,0.1422,0.2113,0.3057,0.3891,0.4727,0.5419,0.6366,0.7204,0.7897,0.8259,0.8005,0.7824,-0.6766,-0.6769,-0.6799,-0.6615,-0.629,-0.6224,-0.5917,-0.538,-0.5446,-0.5575,-0.5725,-0.5496,-0.551,-0.5681,-0.5574,-0.5477,-0.5477,-0.5577,-0.5602,-0.5602,-0.5602,-0.5689,-0.5868,-0.5943,-0.6071,-0.6169,-0.6215,-0.6225,-0.6154,-0.6051,-0.5963,-0.5968,-0.6304,-0.6784,-0.7448,-0.7452,-0.7452,-0.7535,-0.8875,-0.9455,-0.924,-0.8929,-0.8742,-0.8797,-0.8344,-0.7884,-0.7607,-0.7558,-0.73,-0.6755,-0.6713,-0.6412,-0.5733,-0.5527,-0.5203,-0.4637,-0.4425,-0.4206,-0.4048,-0.3985,-0.3901,-0.3768,-0.3708,-0.3835,-0.4174,-0.3993,-0.3759,-0.347,-0.3097,-0.2698,-0.2296,-0.2114,-0.1932,-0.1714,-0.1568,-0.1386,-0.1203,-0.1204,-0.1131,-0.0949,-0.1058,-0.1204,-0.1204,-0.1204,-0.1095,-0.0949,-0.073,-0.0547,-0.0584,-0.0871,-0.1119,-0.1113,-0.1117,-0.1121,-0.1121,-0.0981,-0.0729,-0.0328,-0.0109,0.0219,0.0584,0.1204,0.1677,0.2222,0.2876,0.3821,0.5201,0.5855,0.6583,0.7779,0.8109,0.8584,0.8874,0.8874,0.8693,-0.6011,-0.5926,-0.5913,-0.5829,-0.5631,-0.5541,-0.5267,-0.4928,-0.4843,-0.4932,-0.5189,-0.516,-0.5084,-0.5132,-0.5175,-0.5193,-0.5201,-0.525,-0.5276,-0.5319,-0.5289,-0.5294,-0.5296,-0.533,-0.5363,-0.5325,-0.5441,-0.5453,-0.5375,-0.5453,-0.5514,-0.5428,-0.5425,-0.5676,-0.6101,-0.6053,-0.6004,-0.6022,-0.7289,-0.8011,-0.8092,-0.744,-0.7106,-0.7118,-0.6492,-0.5974,-0.5694,-0.5527,-0.5235,-0.4828,-0.4704,-0.466,-0.465,-0.4415,-0.428,-0.4241,-0.3964,-0.3764,-0.3634,-0.3527,-0.3431,-0.3431,-0.3286,-0.3201,-0.3218,-0.2818,-0.2665,-0.2831,-0.2594,-0.215,-0.1713,-0.164,-0.1495,-0.1131,-0.1058,-0.0949,-0.0693,-0.0803,-0.0839,-0.0547,-0.0766,-0.0912,-0.0912,-0.0912,-0.0803,-0.0474,-0.0182,-0.0146,-0.0401,-0.0474,-0.0474,-0.0474,-0.0547,-0.0656,-0.0876,-0.0584,-0.0219,0.0109,0.0729,0.1277,0.1714,0.2042,0.2733,0.3785,0.4112,0.5093,0.6869,0.7163,0.7598,0.876,0.8941,0.891,0.9157,0.9266,0.9199,-0.5844,-0.5498,-0.5406,-0.5072,-0.4698,-0.4638,-0.4564,-0.4478,-0.4385,-0.4381,-0.4412,-0.4284,-0.4245,-0.4204,-0.4292,-0.4381,-0.4388,-0.4389,-0.4454,-0.4458,-0.441,-0.4429,-0.4465,-0.4389,-0.4326,-0.4404,-0.4726,-0.4881,-0.4906,-0.5334,-0.5548,-0.5586,-0.5586,-0.5523,-0.5576,-0.5568,-0.5325,-0.4853,-0.4999,-0.5282,-0.5697,-0.5556,-0.5525,-0.5531,-0.5389,-0.5315,-0.5231,-0.4824,-0.4595,-0.4509,-0.4141,-0.3923,-0.3925,-0.3883,-0.3846,-0.3846,-0.3807,-0.3595,-0.3173,-0.2819,-0.266,-0.2585,-0.2271,-0.2031,-0.2015,-0.1326,-0.1469,-0.2452,-0.2532,-0.1896,-0.1349,-0.1241,-0.1058,-0.0693,-0.0657,-0.062,-0.0547,-0.0292,-0.0073,-0.0073,0.0,0.0,0.0,-0.0146,-0.0073,-0.0146,0.0109,0.0146,0.0036,0.0073,0.0146,0.0,-0.0255,-0.0292,-0.0109,0.0255,0.0547,0.0729,0.1786,0.2586,0.3241,0.4478,0.6039,0.5785,0.6805,0.7421,0.8037,0.8507,0.8579,0.9013,0.923,0.923,0.9302,0.9302,0.9266,-0.5081,-0.4928,-0.4883,-0.4755,-0.4545,-0.4518,-0.431,-0.406,-0.3973,-0.3795,-0.3487,-0.3409,-0.3627,-0.4086,-0.4127,-0.4187,-0.4213,-0.4232,-0.4254,-0.4323,-0.4299,-0.4307,-0.4305,-0.4289,-0.4281,-0.4279,-0.4438,-0.4458,-0.4474,-0.462,-0.4691,-0.4691,-0.4735,-0.4739,-0.4703,-0.4677,-0.4566,-0.4417,-0.4389,-0.4403,-0.4539,-0.4535,-0.4592,-0.4794,-0.461,-0.4543,-0.4722,-0.4377,-0.4114,-0.4086,-0.3942,-0.3843,-0.3811,-0.3555,-0.3439,-0.3377,-0.3181,-0.293,-0.2779,-0.2567,-0.245,-0.2506,-0.2068,-0.1799,-0.1816,-0.1307,-0.1256,-0.1691,-0.1328,-0.0766,-0.0547,-0.0511,-0.0438,-0.0292,-0.0255,0.0,-0.0255,0.0,0.0,0.0,0.0,0.0,0.0,0.0584,0.0657,0.0328,0.0511,0.0948,0.0766,0.0875,0.1312,0.1895,0.2111,0.1676,0.1094,0.124,0.1641,0.2078,0.2879,0.3716,0.4335,0.5132,0.6257,0.7204,0.7675,0.8254,0.8832,0.9013,0.9121,0.9302,0.9302,0.9302,0.9302,0.9302,0.9302,-0.4506,-0.4393,-0.427,-0.4206,-0.4192,-0.4162,-0.3908,-0.3616,-0.3542,-0.3276,-0.2917,-0.2916,-0.3236,-0.3735,-0.376,-0.3771,-0.3841,-0.3799,-0.3813,-0.3887,-0.3898,-0.3904,-0.3904,-0.3904,-0.3904,-0.3949,-0.4037,-0.4149,-0.4194,-0.4149,-0.4127,-0.4127,-0.4127,-0.4139,-0.4153,-0.4125,-0.406,-0.396,-0.393,-0.3814,-0.3658,-0.3588,-0.3864,-0.436,-0.4113,-0.4055,-0.4311,-0.3972,-0.375,-0.3678,-0.358,-0.3517,-0.348,-0.3183,-0.2981,-0.2792,-0.2514,-0.2266,-0.2162,-0.2103,-0.2102,-0.2117,-0.1721,-0.1496,-0.1477,-0.1124,-0.0883,-0.0833,-0.0335,-0.0074,-0.0146,-0.0146,-0.0109,0.0,0.0,0.0,0.0,0.0,0.0,0.0,0.0,0.0109,0.0438,0.1349,0.1859,0.1057,0.1567,0.204,0.1821,0.2003,0.2513,0.3387,0.393,0.3748,0.2512,0.273,0.3205,0.3641,0.4369,0.5277,0.5535,0.6185,0.6833,0.8218,0.8109,0.8254,0.8977,0.923,0.9302,0.9302,0.9302,0.9302,0.9302,0.9302,0.9302,-0.4314,-0.3866,-0.3385,-0.3222,-0.3195,-0.3194,-0.3175,-0.3104,-0.3054,-0.2973,-0.2923,-0.2917,-0.2898,-0.3,-0.2971,-0.2872,-0.2919,-0.2964,-0.2966,-0.2971,-0.2996,-0.2964,-0.2964,-0.2964,-0.2964,-0.3098,-0.3456,-0.3839,-0.4198,-0.4199,-0.4214,-0.4131,-0.4092,-0.4113,-0.4044,-0.3995,-0.3833,-0.347,-0.3421,-0.3242,-0.2861,-0.2775,-0.3192,-0.3904,-0.399,-0.3944,-0.3983,-0.3654,-0.3385,-0.3306,-0.2932,-0.2699,-0.2684,-0.2677,-0.2425,-0.2046,-0.1964,-0.1758,-0.1392,-0.1349,-0.131,-0.1273,-0.1002,-0.0694,-0.0774,-0.0425,0.0,0.0,0.0,0.0,-0.0404,-0.0403,-0.0329,0.0,0.0,0.0,0.0,0.0,0.0,0.0,0.0,0.062,0.1166,0.2477,0.2841,0.2478,0.2841,0.3278,0.2948,0.3132,0.3532,0.3932,0.4587,0.5023,0.4657,0.4657,0.4908,0.5238,0.5967,0.72,0.7783,0.829,0.876,0.9085,0.8977,0.9013,0.923,0.9302,0.9302,0.9302,0.9302,0.9302,0.9302,0.9302,0.9302,-0.3535,-0.3358,-0.3186,-0.3129,-0.3103,-0.3121,-0.3063,-0.3039,-0.3056,-0.302,-0.3,-0.2945,-0.2919,-0.2917,-0.2863,-0.2857,-0.2857,-0.2857,-0.2857,-0.2859,-0.2913,-0.2919,-0.2919,-0.2919,-0.2919,-0.2919,-0.3053,-0.3227,-0.3394,-0.338,-0.3373,-0.3373,-0.3373,-0.3356,-0.3281,-0.3275,-0.3161,-0.2983,-0.2935,-0.2882,-0.2694,-0.2692,-0.2861,-0.3111,-0.3153,-0.3323,-0.3617,-0.3197,-0.293,-0.2856,-0.2707,-0.2641,-0.2568,-0.2303,-0.2092,-0.1926,-0.165,-0.145,-0.1288,-0.1239,-0.12,-0.1208,-0.0852,-0.0581,-0.0545,0.0,0.0,0.0,0.0,0.0,-0.015,-0.0223,-0.0147,0.0,0.0,0.0,0.0,0.062,0.1094,0.1203,0.1712,0.2368,0.2732,0.3787,0.4041,0.3096,0.3787,0.4223,0.3932,0.4187,0.4914,0.5894,0.662,0.7204,0.7706,0.6765,0.6402,0.662,0.7163,0.7634,0.814,0.8688,0.9121,0.9193,0.9302,0.9302,0.9302,0.9302,0.9302,0.9302,0.9302,0.9302,0.9302,0.9338,0.9338,-0.3129,-0.3132,-0.3103,-0.3095,-0.3118,-0.3136,-0.3129,-0.3103,-0.3063,-0.3037,-0.304,-0.298,-0.2958,-0.2978,-0.2921,-0.2917,-0.2912,-0.2934,-0.2919,-0.2919,-0.2919,-0.2919,-0.2919,-0.2919,-0.2919,-0.2917,-0.2863,-0.2859,-0.2857,-0.2849,-0.2845,-0.2888,-0.289,-0.283,-0.276,-0.2755,-0.273,-0.2689,-0.268,-0.2712,-0.2694,-0.2692,-0.2692,-0.2692,-0.2566,-0.2608,-0.2945,-0.2524,-0.2222,-0.2209,-0.2221,-0.2241,-0.2138,-0.1869,-0.1617,-0.1454,-0.1217,-0.1021,-0.0903,-0.0857,-0.0817,-0.0863,-0.0585,-0.0389,-0.0392,-0.0157,0.0,0.0,0.0,0.0077,0.0535,0.0643,0.0449,0.0,0.0,0.0,0.0514,0.1211,0.1793,0.2334,0.3278,0.386,0.4078,0.5059,0.5023,0.4005,0.5096,0.564,0.528,0.568,0.6442,0.753,0.7933,0.8295,0.8543,0.7964,0.7747,0.7964,0.7892,0.8249,0.8502,0.9013,0.9266,0.9302,0.9302,0.9302,0.9302,0.9302,0.9302,0.9338,0.9302,0.9302,0.9374,0.9446,0.9518,-0.3092,-0.3089,-0.3093,-0.3122,-0.3096,-0.31,-0.313,-0.3099,-0.2983,-0.294,-0.2942,-0.2972,-0.2831,-0.2937,-0.2816,-0.2905,-0.2842,-0.2735,-0.2792,-0.2879,-0.292,-0.2919,-0.2919,-0.2829,-0.2784,-0.2739,-0.2758,-0.2746,-0.2747,-0.273,-0.276,-0.2793,-0.2756,-0.2661,-0.2659,-0.258,-0.2645,-0.2579,-0.2531,-0.2569,-0.265,-0.2566,-0.2566,-0.2566,-0.2188,-0.1976,-0.2018,-0.1598,-0.1429,-0.1386,-0.1387,-0.1332,-0.1427,-0.1327,-0.1114,-0.0789,-0.0629,-0.0393,0.0,0.0,0.0,0.0,0.0,0.0,0.0,0.0,0.0,0.0,0.0,0.0546,0.1622,0.1885,0.153,0.0,0.0,0.0,0.1528,0.1782,0.2217,0.3474,0.4592,0.5026,0.5135,0.5898,0.6297,0.5934,0.6478,0.7059,0.666,0.7099,0.786,0.8114,0.8367,0.8693,0.8874,0.8982,0.9085,0.9193,0.9013,0.9085,0.8977,0.9302,0.9302,0.9302,0.9302,0.9302,0.9338,0.9338,0.9446,0.9446,0.941,0.9482,0.9627,0.9771,0.9843,-0.3163,-0.3095,-0.3093,-0.3125,-0.3103,-0.3119,-0.31,-0.3059,-0.2698,-0.2505,-0.2437,-0.2106,-0.1963,-0.1951,-0.1935,-0.1926,-0.1876,-0.1894,-0.2239,-0.2768,-0.2885,-0.2875,-0.283,-0.2561,-0.22,-0.1932,-0.1849,-0.2025,-0.2327,-0.2375,-0.2374,-0.2404,-0.24,-0.2166,-0.1836,-0.1823,-0.1806,-0.1745,-0.1731,-0.1724,-0.1724,-0.1766,-0.1724,-0.1682,-0.1346,-0.122,-0.1472,-0.1388,-0.1304,-0.1304,-0.1304,-0.1295,-0.1235,-0.101,-0.0761,-0.0602,-0.0317,-0.0158,0.0,0.0,0.0,0.0,0.0,0.0,0.0,0.0,0.0354,0.0825,0.1138,0.1722,0.2538,0.3042,0.2977,0.2654,0.261,0.261,0.3086,0.377,0.4747,0.5719,0.6261,0.6377,0.6337,0.6881,0.6736,0.6373,0.6845,0.7172,0.7172,0.757,0.8005,0.8403,0.862,0.8837,0.9013,0.9163,0.923,0.9302,0.9302,0.9302,0.9302,0.9302,0.9302,0.9302,0.9302,0.9302,0.9338,0.9446,0.959,0.9771,0.9879,0.9987,1.0095,1.0167,1.0239,-0.2566,-0.2544,-0.2535,-0.2561,-0.2533,-0.2548,-0.2531,-0.2502,-0.2146,-0.2003,-0.1893,-0.1651,-0.151,-0.1456,-0.1484,-0.1476,-0.1477,-0.1456,-0.1766,-0.231,-0.2364,-0.2349,-0.2305,-0.2041,-0.1726,-0.1455,-0.1417,-0.1554,-0.1863,-0.1912,-0.1908,-0.1898,-0.189,-0.1741,-0.1415,-0.1404,-0.1349,-0.1335,-0.1325,-0.132,-0.1319,-0.1315,-0.1312,-0.1269,-0.1055,-0.1097,-0.1311,-0.1185,-0.1056,-0.1053,-0.0926,-0.0797,-0.0791,-0.0532,-0.0365,-0.0324,0.0,0.0,0.0,0.0,0.0,0.0,0.0474,0.0,0.0,0.0,0.1736,0.2159,0.2471,0.298,0.3881,0.4273,0.4629,0.5149,0.4221,0.4094,0.4416,0.5422,0.6246,0.6898,0.7023,0.7052,0.7039,0.7003,0.6922,0.6736,0.7063,0.7389,0.7534,0.7933,0.8444,0.8806,0.8904,0.9085,0.923,0.9302,0.9302,0.9302,0.9302,0.9302,0.9302,0.9302,0.9302,0.9302,0.9302,0.9302,0.9338,0.9627,0.9843,1.0059,1.0275,1.0311,1.0347,1.057,1.0678,-0.165,-0.1585,-0.1623,-0.1648,-0.167,-0.1671,-0.1711,-0.1651,-0.1516,-0.1528,-0.1534,-0.1377,-0.1385,-0.1446,-0.1318,-0.131,-0.1462,-0.1288,-0.1274,-0.1365,-0.1391,-0.1374,-0.1417,-0.1379,-0.1291,-0.1201,-0.1204,-0.1296,-0.1384,-0.1378,-0.137,-0.1368,-0.1356,-0.1343,-0.1199,-0.1283,-0.1186,-0.1089,-0.1129,-0.1128,-0.1171,-0.1162,-0.1156,-0.1156,-0.1104,-0.1145,-0.1197,-0.0942,-0.0724,-0.0634,0.0,0.0,0.0,0.0,0.0,0.0,0.0,0.0,0.0,0.0,0.0,0.0,0.1556,0.2067,0.213,0.2807,0.3441,0.3689,0.3803,0.4351,0.529,0.5763,0.6303,0.701,0.5738,0.5014,0.5589,0.6675,0.7201,0.7289,0.7232,0.717,0.7203,0.7178,0.7181,0.7282,0.7688,0.7952,0.8244,0.8582,0.9128,0.9278,0.9269,0.9283,0.9367,0.9307,0.9307,0.9302,0.9302,0.9302,0.9302,0.9302,0.9302,0.9302,0.9374,0.9374,0.9518,0.9879,1.0095,1.0275,1.0419,1.0491,1.0678,1.093,1.1044,-0.1645,-0.1624,-0.1579,-0.1609,-0.1575,-0.1582,-0.1579,-0.1468,-0.1128,-0.0985,-0.0935,-0.059,0.0,0.0,0.0,-0.039,0.0,0.0,-0.0381,-0.0378,-0.0378,-0.0607,-0.0833,-0.0879,-0.0742,-0.0464,0.0,-0.056,-0.0834,-0.0885,-0.0883,-0.0876,-0.0868,-0.0726,0.0,0.0,-0.0353,-0.0352,0.0,0.0,0.0,0.0,-0.0346,-0.0346,-0.0388,-0.0561,-0.0822,-0.0779,-0.0519,-0.0216,0.0,0.0,0.0,0.0,0.0,0.0,0.0,0.0535,0.1274,0.1466,0.1902,0.2828,0.3133,0.3389,0.3378,0.3634,0.4134,0.4549,0.4941,0.5528,0.6431,0.7099,0.7764,0.8193,0.7369,0.6967,0.7325,0.7646,0.782,0.7807,0.7733,0.7686,0.7739,0.7866,0.7988,0.8062,0.8248,0.8466,0.8706,0.8933,0.9324,0.9482,0.953,0.9476,0.9421,0.9345,0.9307,0.9302,0.9302,0.9302,0.9302,0.9302,0.9302,0.9302,0.9554,0.9627,0.9915,1.0275,1.0426,1.057,1.0894,1.1109,1.1217,1.144,1.144,-0.0978,-0.0915,-0.0916,-0.0956,-0.094,-0.0894,-0.0892,-0.0837,-0.0594,-0.0445,-0.0393,-0.0147,0.0,0.0,0.0,0.0,0.0,0.0,0.0,0.0,0.0,0.0,-0.0379,-0.0379,-0.0285,0.0,0.0,0.0,-0.038,-0.0428,-0.0379,-0.0424,-0.0417,-0.0275,0.0,0.0,0.0,0.0,0.0,0.0,0.0,0.0,0.0,0.0,-0.0174,-0.0479,-0.0656,-0.0527,-0.0352,-0.0263,-0.0087,0.0261,0.0867,0.0859,0.1109,0.1651,0.1718,0.2082,0.2618,0.2842,0.3195,0.3925,0.4388,0.4849,0.5107,0.5385,0.6042,0.668,0.6909,0.7264,0.77,0.8251,0.8586,0.871,0.8739,0.8622,0.8471,0.8338,0.8345,0.8318,0.8258,0.819,0.8185,0.838,0.8469,0.853,0.8585,0.8815,0.9002,0.9216,0.9371,0.9591,0.9682,0.9584,0.953,0.9465,0.9467,0.9445,0.9374,0.9374,0.941,0.941,0.9446,0.9518,0.9735,0.9987,1.0275,1.057,1.0714,1.0972,1.1368,1.1548,1.1584,1.1584,1.1619,0.0,0.0,0.0,0.0,0.0,0.0,0.0,0.0,0.0,0.0,0.0,0.0,0.0,0.0,0.0,0.0,0.0,0.0,0.0,0.0,0.0,0.0,0.0242,0.0,0.0,0.0,0.0,0.0,0.0,0.0,0.0,0.0,0.0,0.0,0.0,0.0,0.0,0.0,0.0,0.0,0.0,0.0,0.0,0.0,0.0044,0.0,0.0044,0.0178,0.0358,-0.0089,0.0175,0.1096,0.2199,0.2293,0.2743,0.3585,0.3687,0.3797,0.4155,0.42,0.4429,0.4923,0.5825,0.6458,0.6922,0.7573,0.8175,0.8473,0.8945,0.8826,0.8945,0.9064,0.9095,0.9154,0.9315,0.9266,0.9012,0.8895,0.8856,0.8856,0.8727,0.8683,0.865,0.8673,0.8691,0.9074,0.9129,0.9286,0.9406,0.9525,0.9634,0.9726,0.9731,0.9693,0.9639,0.9584,0.963,0.9606,0.9527,0.9518,0.959,0.9627,0.9663,0.9807,1.0059,1.0275,1.0534,1.0786,1.1008,1.1188,1.1476,1.1548,1.1584,1.1584,1.1619,0.0,0.0,0.0,0.0,0.0,0.0,0.0,0.0,0.0,0.0,0.0,0.0,0.0,0.0,0.0,0.0,0.0,0.0,0.0,0.0628,0.0629,0.0875,0.0877,0.0438,0.0,0.0,0.0,0.0,0.0,0.0,0.0,0.0,0.0,0.0,0.0,0.0,0.0229,0.05,0.0541,0.0719,0.0989,0.1031,0.103,0.103,0.0944,0.1393,0.2017,0.2213,0.2574,0.2912,0.2718,0.284,0.3626,0.3802,0.4066,0.4385,0.4422,0.4701,0.535,0.5739,0.6234,0.7311,0.7639,0.825,0.8638,0.8766,0.9007,0.9095,0.9095,0.9291,0.9572,0.9612,0.9676,0.9803,0.9879,0.9926,0.9735,0.9441,0.9285,0.9275,0.9265,0.9206,0.924,0.949,0.9536,0.9668,0.9701,0.9784,0.9811,0.9834,0.9856,0.9867,0.984,0.9802,0.9813,0.9774,0.9856,0.9883,0.9837,0.9885,0.9957,0.9843,0.9915,1.0095,1.0347,1.0599,1.0858,1.1109,1.1404,1.1476,1.1512,1.1548,1.1584,1.1584,1.1756,0.0407,0.0356,0.0102,0.0,0.0,0.0,0.0,0.0,0.0,0.015,0.0349,0.0396,0.049,0.0726,0.0729,0.0,0.0718,0.0719,0.0865,0.1105,0.1153,0.1252,0.1355,0.1017,0.0725,0.0677,0.0,0.073,0.073,0.0678,0.0,0.0729,0.0724,0.0,0.071,0.0703,0.0881,0.1011,0.1092,0.1223,0.1411,0.1451,0.1452,0.1457,0.1511,0.1785,0.2098,0.2413,0.3317,0.4248,0.463,0.4787,0.5159,0.5334,0.558,0.632,0.6442,0.6754,0.7421,0.7638,0.8018,0.8905,0.8976,0.9248,0.9504,0.9549,0.9617,0.9729,0.985,0.9932,1.0135,1.0175,1.0244,1.0227,1.0237,1.0177,1.0073,0.9823,0.9675,0.9675,0.9669,0.9664,0.9786,0.9903,0.9936,0.9821,0.9821,0.9904,0.9904,0.9932,0.9948,0.9965,0.9905,0.9921,0.9938,0.9998,1.0078,1.0156,1.0187,1.0384,1.0546,1.0359,1.0131,1.0419,1.075,1.0966,1.1224,1.1476,1.1584,1.1584,1.1584,1.1584,1.1584,1.1584,1.19,0.0812,0.0766,0.0203,0.0,0.0,0.0,0.0,0.0,0.0,0.0302,0.07,0.0799,0.0989,0.1464,0.151,0.1548,0.1489,0.1439,0.1443,0.163,0.1636,0.1779,0.1829,0.179,0.1753,0.1717,0.1467,0.1422,0.1423,0.1522,0.1314,0.1524,0.1561,0.1394,0.1429,0.1513,0.1499,0.1578,0.1608,0.1696,0.1797,0.1835,0.1836,0.1844,0.1853,0.2083,0.2444,0.2984,0.3834,0.5417,0.6491,0.6953,0.6974,0.7023,0.7388,0.8965,0.871,0.8752,0.8922,0.917,0.924,0.9449,0.9486,0.9736,1.0039,1.0112,1.0184,1.0379,1.0503,1.0503,1.062,1.0544,1.0525,1.0462,1.0302,1.0231,1.0182,1.0095,0.9991,0.998,0.9903,0.9903,0.9903,0.998,1.0019,1.0019,1.0019,1.0019,1.0019,1.0019,1.0019,1.0019,0.9992,1.0131,1.0191,1.0267,1.0347,1.0634,1.0687,1.0846,1.1092,1.1006,1.0855,1.087,1.1116,1.126,1.1368,1.1548,1.1584,1.1584,1.1584,1.1584,1.1584,1.1584,1.1936,0.0809,0.076,0.0204,0.0,0.0,0.0,0.0,0.0,0.0,0.0,0.0806,0.0806,0.1201,0.1538,0.1586,0.1626,0.1708,0.1751,0.1893,0.2129,0.2231,0.2379,0.2614,0.2628,0.2695,0.2546,0.2098,0.165,0.1641,0.1487,0.1687,0.1589,0.1594,0.1637,0.1625,0.1522,0.1846,0.2062,0.2135,0.2267,0.2503,0.2734,0.2684,0.2695,0.2756,0.322,0.3987,0.5078,0.629,0.7422,0.8693,0.9192,0.9228,0.921,0.941,0.9573,0.961,0.964,0.9677,0.9538,0.9625,0.9861,0.9991,1.0153,1.044,1.0549,1.0564,1.0605,1.0693,1.0699,1.0663,1.0688,1.0645,1.0536,1.0416,1.0313,1.0215,1.0106,1.0025,1.0019,1.0019,1.0019,1.0019,1.0019,1.0097,1.0097,1.0175,1.0136,1.0136,1.0097,1.0097,1.0058,1.0014,1.0241,1.0469,1.057,1.0688,1.1182,1.1333,1.1397,1.154,1.1633,1.163,1.1454,1.1286,1.126,1.1404,1.1548,1.1584,1.1584,1.1584,1.1619,1.1584,1.1619,1.1655,0.1479,0.1177,0.0663,0.0256,0.0,0.0,0.0153,0.0407,0.0405,0.0858,0.1414,0.1666,0.191,0.2296,0.244,0.2428,0.2361,0.2391,0.2534,0.2731,0.2778,0.2832,0.3072,0.3089,0.3092,0.2992,0.254,0.2286,0.2321,0.2348,0.2297,0.2356,0.2318,0.2311,0.2345,0.2397,0.2435,0.2651,0.2627,0.2759,0.3147,0.3524,0.3616,0.3388,0.4102,0.467,0.493,0.5886,0.7098,0.819,0.9167,0.9854,1.0347,1.059,1.0608,1.0332,1.0213,1.0226,1.0292,1.0228,1.0335,1.0446,1.0446,1.0492,1.0654,1.069,1.0695,1.0695,1.0695,1.0695,1.069,1.0695,1.0704,1.0634,1.0498,1.0373,1.0275,1.0128,1.0063,1.003,1.0019,1.0019,1.0019,1.0058,1.0136,1.0214,1.0291,1.0291,1.0291,1.033,1.033,1.0369,1.0408,1.0641,1.0913,1.1008,1.1115,1.1536,1.1833,1.1896,1.1908,1.1928,1.1834,1.1703,1.1533,1.1428,1.144,1.1584,1.1584,1.1619,1.1655,1.1655,1.1619,1.1619,1.1691,0.2208,0.1701,0.1171,0.0715,0.0361,0.0,0.0557,0.0911,0.0961,0.1465,0.2323,0.2423,0.2616,0.3052,0.3146,0.3133,0.3108,0.3089,0.3093,0.3097,0.3093,0.3092,0.3099,0.3109,0.3116,0.312,0.3057,0.3096,0.297,0.2989,0.3077,0.2981,0.3037,0.3078,0.3014,0.2926,0.3115,0.3101,0.3079,0.3125,0.3664,0.4242,0.4623,0.4099,0.5572,0.6185,0.6021,0.6901,0.7813,0.8807,0.9572,1.0203,1.0921,1.1318,1.1271,1.0916,1.0776,1.0911,1.0934,1.0896,1.0715,1.0762,1.0739,1.0706,1.0695,1.0695,1.0695,1.0695,1.0695,1.0695,1.0695,1.0695,1.0732,1.0652,1.0552,1.0411,1.0356,1.0248,1.0106,1.0068,1.008,1.0103,1.0097,1.0214,1.033,1.0369,1.0447,1.068,1.068,1.0758,1.0796,1.0835,1.0952,1.1184,1.1378,1.1572,1.1657,1.1919,1.2123,1.2201,1.2152,1.2115,1.2006,1.1911,1.1843,1.173,1.1671,1.1619,1.1691,1.1727,1.1727,1.1763,1.1835,1.1835,1.1835,0.2396,0.2232,0.1734,0.1485,0.1385,0.133,0.1431,0.148,0.152,0.1869,0.2475,0.2475,0.2725,0.3122,0.3223,0.3221,0.3215,0.3202,0.3189,0.3183,0.319,0.3189,0.3189,0.321,0.3209,0.3155,0.319,0.3152,0.3122,0.31,0.3126,0.3117,0.3112,0.3103,0.3103,0.3108,0.3103,0.3148,0.3237,0.3854,0.4857,0.5285,0.595,0.6615,0.728,0.747,0.7497,0.8358,0.9237,0.9532,1.0635,1.1257,1.1517,1.1538,1.1567,1.1447,1.1361,1.1183,1.1123,1.1009,1.0852,1.0787,1.0712,1.0695,1.0717,1.0733,1.0733,1.0695,1.0701,1.0695,1.0695,1.0695,1.0695,1.0693,1.0606,1.0577,1.0528,1.0495,1.0357,1.0437,1.0532,1.0325,1.0219,1.0408,1.0563,1.0563,1.0641,1.0874,1.1068,1.1146,1.1184,1.1262,1.1417,1.165,1.1766,1.196,1.2063,1.2254,1.2311,1.2406,1.2332,1.2281,1.2213,1.2088,1.205,1.1941,1.1789,1.1744,1.1827,1.1871,1.1871,1.2015,1.2158,1.2122,1.2086,0.2801,0.2427,0.2145,0.1892,0.1648,0.1633,0.1778,0.2032,0.2075,0.2374,0.2778,0.2827,0.2979,0.318,0.3179,0.323,0.3227,0.3216,0.3212,0.3206,0.321,0.3209,0.3215,0.3224,0.3179,0.3227,0.3216,0.3194,0.3152,0.3162,0.3136,0.3126,0.3158,0.3101,0.3292,0.3148,0.367,0.4335,0.519,0.595,0.6568,0.709,0.747,0.7707,0.8751,0.9087,0.9183,0.9799,1.0533,1.0764,1.1405,1.1558,1.1645,1.1634,1.1574,1.167,1.1509,1.133,1.121,1.1085,1.0965,1.0809,1.0749,1.0728,1.0782,1.0852,1.0852,1.0804,1.084,1.0813,1.0753,1.0695,1.0695,1.0704,1.0763,1.0678,1.0658,1.0734,1.0725,1.0855,1.0937,1.0761,1.0586,1.0602,1.0796,1.099,1.1068,1.1262,1.1456,1.1611,1.1611,1.165,1.1843,1.2114,1.2192,1.2269,1.2269,1.2397,1.2397,1.2454,1.244,1.2379,1.2305,1.225,1.2189,1.206,1.1891,1.1832,1.1857,1.194,1.2051,1.2165,1.2316,1.2474,1.251,0.3103,0.2728,0.267,0.2406,0.2116,0.2038,0.2227,0.2576,0.2626,0.2827,0.308,0.3179,0.3179,0.3179,0.3179,0.3179,0.323,0.3208,0.3213,0.3216,0.3213,0.3213,0.3223,0.3179,0.3179,0.323,0.3228,0.3213,0.3337,0.3546,0.3705,0.3204,0.3705,0.3786,0.3825,0.4343,0.5097,0.5855,0.6805,0.7565,0.8182,0.8798,0.8988,0.9371,1.0081,1.0891,1.0668,1.0867,1.1452,1.1593,1.154,1.1597,1.1677,1.1623,1.1596,1.1683,1.1569,1.1422,1.1341,1.1215,1.1069,1.0944,1.0825,1.0804,1.0912,1.1058,1.1079,1.0923,1.0916,1.091,1.0928,1.0931,1.107,1.1042,1.0997,1.087,1.0826,1.0975,1.0988,1.0975,1.1086,1.1333,1.1161,1.0925,1.1029,1.1378,1.1533,1.165,1.1805,1.1998,1.2037,1.1998,1.2114,1.2347,1.2385,1.2463,1.2501,1.2579,1.2579,1.2533,1.2513,1.2467,1.2427,1.2379,1.2338,1.2395,1.2319,1.2083,1.1887,1.2067,1.2214,1.2309,1.2431,1.2675,1.2832,0.3367,0.3311,0.3277,0.3197,0.3126,0.3174,0.3154,0.308,0.313,0.313,0.3179,0.3179,0.3179,0.3179,0.3179,0.3179,0.3179,0.3228,0.3228,0.3228,0.3228,0.3225,0.3179,0.3179,0.323,0.323,0.3482,0.3531,0.3671,0.4981,0.4344,0.3481,0.4809,0.5174,0.5627,0.6356,0.6951,0.7518,0.8087,0.8751,0.9414,1.0034,1.0413,1.1411,1.1889,1.2072,1.2014,1.1805,1.1681,1.1762,1.1585,1.1565,1.1634,1.1601,1.1612,1.1634,1.1618,1.1471,1.1379,1.1292,1.1139,1.0998,1.0896,1.0934,1.1074,1.1096,1.1096,1.1085,1.11,1.1145,1.1295,1.1442,1.1415,1.1392,1.1321,1.1316,1.1275,1.1341,1.1353,1.1149,1.134,1.1777,1.1782,1.1594,1.1397,1.1662,1.1843,1.1998,1.2153,1.2308,1.2347,1.2385,1.2385,1.2463,1.2463,1.254,1.2656,1.2733,1.2772,1.2695,1.2572,1.2572,1.2642,1.2474,1.2458,1.2626,1.2723,1.2484,1.2314,1.2339,1.243,1.2627,1.2736,1.2902,1.2994,0.3377,0.3392,0.3362,0.3321,0.3276,0.3276,0.3258,0.3183,0.3179,0.3179,0.3179,0.3179,0.3179,0.3179,0.3179,0.3179,0.3179,0.3179,0.323,0.3179,0.3179,0.3179,0.3179,0.328,0.323,0.3532,0.4137,0.469,0.4885,0.6317,0.6712,0.6608,0.6825,0.6803,0.7384,0.8237,0.8861,0.9324,0.9892,1.0791,1.1033,1.1316,1.16,1.2078,1.2219,1.2219,1.214,1.1892,1.1851,1.1759,1.1625,1.1563,1.1596,1.1569,1.1569,1.1601,1.1574,1.1482,1.1439,1.1357,1.1194,1.1107,1.1096,1.1199,1.1248,1.1308,1.1303,1.1291,1.1397,1.1516,1.1165,1.1316,1.1445,1.157,1.1653,1.1653,1.1754,1.1818,1.1863,1.1723,1.2136,1.2615,1.2489,1.2285,1.2063,1.194,1.2121,1.2308,1.2424,1.2501,1.2501,1.2501,1.2501,1.2501,1.2501,1.2656,1.2849,1.2926,1.3004,1.2965,1.2888,1.2849,1.2881,1.2695,1.2579,1.2755,1.2821,1.2786,1.2736,1.2717,1.2823,1.3067,1.3132,1.3175,1.3304,0.3382,0.3385,0.3381,0.3344,0.3292,0.3288,0.3266,0.3183,0.3179,0.3179,0.3179,0.3179,0.3179,0.3179,0.3179,0.3332,0.3433,0.3483,0.3483,0.3483,0.3483,0.3633,0.3835,0.4085,0.4488,0.474,0.5544,0.6349,0.645,0.8008,0.855,0.8813,0.92,0.9252,0.891,0.9855,1.0607,1.0982,1.1468,1.2225,1.2172,1.2125,1.2125,1.2219,1.2219,1.2219,1.2159,1.196,1.1862,1.1775,1.1656,1.1547,1.1547,1.1547,1.152,1.152,1.1514,1.1504,1.1472,1.1384,1.1259,1.1237,1.1221,1.1363,1.156,1.1671,1.1732,1.1901,1.1975,1.1878,1.1422,1.1855,1.2122,1.2318,1.211,1.211,1.2235,1.2316,1.2364,1.2385,1.2726,1.2828,1.2735,1.2502,1.2389,1.2225,1.2276,1.2385,1.2463,1.2501,1.2501,1.2501,1.2501,1.2501,1.254,1.274,1.2979,1.3081,1.3158,1.3351,1.3351,1.3274,1.312,1.2926,1.2849,1.2926,1.3098,1.3363,1.3232,1.3034,1.32,1.3431,1.357,1.3656,1.3832,0.3427,0.3333,0.3435,0.3423,0.3419,0.332,0.3337,0.3385,0.3281,0.3231,0.323,0.3179,0.3231,0.3231,0.3281,0.3483,0.3887,0.3887,0.3988,0.419,0.4188,0.4641,0.5244,0.5695,0.6047,0.7606,0.8008,0.8058,0.8109,0.9665,1.0321,1.0772,1.128,1.1471,1.0496,1.1589,1.2261,1.2282,1.2232,1.2199,1.2219,1.2219,1.2219,1.2219,1.2219,1.2219,1.217,1.1944,1.1862,1.1857,1.1657,1.1525,1.1574,1.1509,1.1521,1.1515,1.1515,1.1499,1.1494,1.1379,1.1379,1.1505,1.1516,1.1648,1.2036,1.221,1.2293,1.2449,1.2556,1.2681,1.2721,1.2807,1.2836,1.2833,1.2589,1.257,1.2701,1.2775,1.2773,1.2816,1.2697,1.2633,1.2635,1.2611,1.2596,1.2542,1.2515,1.2547,1.2652,1.2658,1.2711,1.2528,1.2528,1.2522,1.2606,1.2909,1.3102,1.3204,1.3351,1.3505,1.3544,1.339,1.3235,1.3081,1.3158,1.3274,1.3628,1.4045,1.3885,1.3763,1.3649,1.3768,1.3952,1.4064,1.4199,0.441,0.4356,0.441,0.4394,0.4322,0.3987,0.4005,0.4148,0.3887,0.3534,0.3231,0.3179,0.3433,0.3534,0.3483,0.3685,0.4343,0.3685,0.3836,0.5549,0.5297,0.61,0.6802,0.7355,0.7657,0.8259,0.8912,0.9715,0.9715,1.1177,1.1929,1.2384,1.2429,1.2471,1.2103,1.2396,1.2449,1.2368,1.235,1.2307,1.2236,1.223,1.2236,1.2236,1.2236,1.223,1.2214,1.196,1.1873,1.1868,1.1652,1.1509,1.1531,1.151,1.1504,1.1499,1.1499,1.1499,1.1499,1.15,1.1632,1.1782,1.1909,1.2063,1.2603,1.2654,1.2787,1.2933,1.3098,1.3084,1.2817,1.2998,1.3079,1.3053,1.2991,1.3082,1.3169,1.316,1.3204,1.3197,1.3144,1.3063,1.3037,1.296,1.2864,1.3179,1.3211,1.3148,1.318,1.3081,1.3081,1.2706,1.2569,1.2562,1.2672,1.3049,1.3339,1.3472,1.3527,1.3628,1.359,1.3551,1.339,1.3235,1.3428,1.3621,1.4053,1.443,1.4598,1.4549,1.4286,1.4141,1.4271,1.4324,1.4378,0.489,0.4902,0.489,0.5017,0.5051,0.4629,0.4555,0.4704,0.4444,0.4038,0.3836,0.3786,0.3937,0.4089,0.4038,0.419,0.4999,0.4944,0.4942,0.6754,0.6855,0.7707,0.8561,0.9013,0.9518,0.9819,1.0572,1.1328,1.1328,1.2334,1.2734,1.279,1.289,1.2796,1.2655,1.2607,1.2564,1.2498,1.2455,1.239,1.2335,1.2314,1.2314,1.2297,1.2323,1.229,1.2219,1.2042,1.1873,1.1803,1.1672,1.152,1.1504,1.1521,1.151,1.1499,1.1499,1.1499,1.1499,1.1499,1.171,1.2115,1.221,1.252,1.2964,1.3147,1.328,1.3413,1.3536,1.3447,1.3309,1.3415,1.335,1.3403,1.3373,1.3463,1.3432,1.3422,1.3369,1.3403,1.339,1.3398,1.3411,1.3341,1.3222,1.3604,1.3986,1.3818,1.3638,1.3508,1.3401,1.3116,1.2878,1.2917,1.3081,1.3329,1.3613,1.3749,1.3789,1.3744,1.3821,1.3783,1.3583,1.3467,1.3783,1.4091,1.4468,1.4768,1.4837,1.4798,1.4613,1.4536,1.4592,1.4606,1.4613,0.4949,0.4919,0.4958,0.5279,0.557,0.5198,0.4937,0.4849,0.4847,0.4797,0.4746,0.4645,0.4847,0.4898,0.4797,0.5299,0.5904,0.6704,0.7207,0.776,0.8414,0.9468,1.0221,1.0622,1.1127,1.2134,1.2684,1.2384,1.2784,1.284,1.289,1.289,1.289,1.2868,1.2825,1.277,1.2689,1.2629,1.2574,1.2515,1.2417,1.2482,1.2471,1.2449,1.2406,1.24,1.2307,1.2107,1.1987,1.1879,1.1737,1.1656,1.1585,1.1559,1.1521,1.1499,1.1499,1.1499,1.1499,1.1499,1.1855,1.2254,1.2299,1.2787,1.3274,1.3546,1.3723,1.3874,1.4021,1.4055,1.4038,1.3914,1.3796,1.3772,1.3698,1.3666,1.3605,1.3511,1.3451,1.341,1.3403,1.3439,1.3569,1.3533,1.3408,1.3884,1.4209,1.4183,1.3993,1.3785,1.3677,1.3576,1.3429,1.3376,1.354,1.368,1.3733,1.3838,1.3835,1.3821,1.3898,1.3975,1.3937,1.3975,1.4207,1.4476,1.4737,1.4891,1.4968,1.4891,1.4776,1.4814,1.4814,1.4853,1.4875,0.6032,0.6035,0.6048,0.6136,0.6264,0.6075,0.5818,0.5452,0.54,0.5248,0.4797,0.4797,0.545,0.6455,0.5402,0.6506,0.7257,0.776,0.8564,0.9267,1.002,1.1027,1.1678,1.2134,1.2534,1.274,1.289,1.289,1.289,1.289,1.289,1.289,1.289,1.289,1.2873,1.2852,1.2786,1.2727,1.2672,1.2629,1.2531,1.2569,1.2515,1.2493,1.2472,1.2455,1.233,1.2145,1.2004,1.1851,1.1645,1.152,1.1548,1.1521,1.1499,1.1499,1.1499,1.1499,1.1499,1.1499,1.181,1.2432,1.2654,1.2964,1.3496,1.3856,1.4078,1.4177,1.4251,1.4211,1.419,1.4136,1.4089,1.4041,1.3946,1.3838,1.3756,1.3578,1.3519,1.341,1.3397,1.3431,1.3604,1.3487,1.3438,1.4027,1.4344,1.4352,1.4297,1.404,1.3865,1.3771,1.3724,1.3645,1.3764,1.3898,1.3882,1.3912,1.391,1.3882,1.3814,1.3898,1.4168,1.4399,1.4553,1.4699,1.493,1.5006,1.5006,1.5006,1.493,1.4968,1.5006,1.5006,1.5006,0.6496,0.6514,0.6514,0.6514,0.6514,0.6514,0.6309,0.6057,0.6007,0.5805,0.5503,0.5503,0.6256,0.7261,0.6757,0.7361,0.9318,0.9221,0.9673,1.0476,1.1378,1.1984,1.269,1.289,1.284,1.289,1.289,1.289,1.289,1.289,1.289,1.289,1.289,1.289,1.2884,1.2873,1.2846,1.2803,1.2765,1.2732,1.2694,1.2667,1.2672,1.2656,1.2585,1.2536,1.2417,1.221,1.2042,1.1879,1.1661,1.163,1.157,1.1504,1.1499,1.1499,1.1499,1.1499,1.1499,1.1499,1.1943,1.2432,1.2831,1.3141,1.354,1.3945,1.4166,1.4285,1.4292,1.4292,1.4292,1.4292,1.4292,1.4285,1.4143,1.4,1.3858,1.3666,1.3531,1.3437,1.3397,1.3397,1.3404,1.3336,1.3439,1.3961,1.4278,1.4332,1.4285,1.412,1.396,1.3843,1.3803,1.3803,1.3956,1.408,1.4072,1.4087,1.4164,1.4065,1.3828,1.4045,1.4515,1.4699,1.4814,1.493,1.5006,1.5006,1.5006,1.5006,1.5006,1.5006,1.5006,1.5006,1.5006,0.6517,0.6514,0.6514,0.6514,0.6514,0.6514,0.6463,0.6514,0.6461,0.6564,0.657,0.6623,0.7329,0.8442,0.8227,0.8819,1.0125,1.058,1.0731,1.1433,1.2184,1.274,1.279,1.289,1.289,1.289,1.289,1.289,1.289,1.289,1.289,1.289,1.289,1.289,1.289,1.289,1.2873,1.2863,1.2857,1.2841,1.2857,1.2873,1.2884,1.2852,1.277,1.2661,1.2531,1.2373,1.2241,1.1993,1.183,1.1737,1.1614,1.1499,1.1499,1.1499,1.1499,1.1499,1.1543,1.1588,1.1899,1.2343,1.2698,1.323,1.3768,1.4078,1.4255,1.4299,1.4299,1.4299,1.4299,1.4299,1.4299,1.4285,1.4204,1.4075,1.3939,1.3763,1.3657,1.3583,1.3652,1.3652,1.3804,1.3823,1.3899,1.4128,1.4266,1.4375,1.4373,1.4237,1.4153,1.4028,1.3863,1.3929,1.4198,1.4323,1.4256,1.4311,1.435,1.4213,1.3967,1.4361,1.4968,1.4968,1.493,1.4968,1.5006,1.5006,1.5006,1.5006,1.5006,1.5006,1.5006,1.5006,1.5006,0.6502,0.6514,0.6514,0.6514,0.6514,0.6514,0.6514,0.6514,0.6514,0.6991,0.769,0.79,0.8753,1.005,0.945,1.0083,1.1633,1.1533,1.1833,1.2189,1.284,1.289,1.289,1.289,1.289,1.289,1.289,1.289,1.289,1.289,1.289,1.289,1.289,1.289,1.289,1.289,1.289,1.289,1.289,1.289,1.289,1.289,1.2884,1.2879,1.2825,1.2721,1.2585,1.2417,1.2263,1.2004,1.1792,1.1629,1.1515,1.1504,1.1499,1.1499,1.1632,1.1632,1.1721,1.1899,1.2254,1.2698,1.3141,1.3635,1.3989,1.4166,1.4299,1.4299,1.4299,1.4299,1.4299,1.4299,1.4299,1.4278,1.4302,1.418,1.4057,1.3932,1.3797,1.3846,1.3936,1.4073,1.4239,1.4349,1.4465,1.4507,1.4555,1.4631,1.4582,1.453,1.4515,1.4348,1.3975,1.4028,1.4393,1.4536,1.4494,1.4392,1.4399,1.4245,1.4114,1.4546,1.5072,1.5023,1.5006,1.5006,1.5006,1.5006,1.5006,1.5006,1.5006,1.5006,1.5006,1.5006,1.5006,0.6493,0.6514,0.6514,0.6514,0.6514,0.6514,0.6514,0.6517,0.6488,0.7433,0.8582,0.8178,0.8669,1.0531,0.9983,1.09,1.2545,1.2284,1.2384,1.274,1.289,1.289,1.289,1.289,1.289,1.289,1.289,1.289,1.289,1.289,1.289,1.294,1.294,1.294,1.294,1.294,1.294,1.289,1.294,1.294,1.294,1.294,1.289,1.289,1.2857,1.2759,1.2651,1.2482,1.2265,1.2132,1.1948,1.1933,1.1961,1.2111,1.2127,1.2165,1.2165,1.2121,1.2165,1.2387,1.2742,1.3141,1.3363,1.3768,1.4122,1.4299,1.4299,1.4299,1.4299,1.4299,1.4299,1.4299,1.4299,1.4285,1.4574,1.468,1.4706,1.4736,1.4642,1.4626,1.4623,1.457,1.4666,1.4536,1.4611,1.4631,1.4672,1.4754,1.4754,1.4878,1.4837,1.4739,1.4437,1.4456,1.4888,1.4855,1.4702,1.4623,1.4532,1.4657,1.4703,1.4881,1.509,1.5074,1.5063,1.5006,1.5006,1.5006,1.5006,1.5006,1.5006,1.5006,1.5006,1.5006,1.5006,0.6514,0.6514,0.6514,0.6514,0.6514,0.6514,0.6514,0.6519,0.6515,0.7652,0.9127,0.7614,0.8188,0.954,1.0248,1.1531,1.236,1.259,1.284,1.289,1.289,1.289,1.289,1.289,1.289,1.289,1.289,1.289,1.289,1.294,1.294,1.2984,1.2984,1.2984,1.3034,1.3084,1.3234,1.3134,1.3134,1.3134,1.3034,1.2934,1.294,1.289,1.2863,1.2797,1.2689,1.258,1.2409,1.2259,1.2153,1.222,1.2291,1.2428,1.2627,1.2654,1.2698,1.2698,1.2787,1.2875,1.3186,1.3451,1.3584,1.3856,1.421,1.4299,1.4299,1.4299,1.4299,1.4299,1.4299,1.4299,1.4299,1.4387,1.4757,1.503,1.5177,1.5332,1.533,1.5313,1.525,1.5138,1.5154,1.5006,1.4946,1.4882,1.4852,1.4844,1.4961,1.5175,1.5257,1.5216,1.5087,1.5211,1.5244,1.5169,1.4902,1.4882,1.4869,1.5065,1.5229,1.5277,1.5252,1.5148,1.513,1.5096,1.5023,1.5006,1.5006,1.5006,1.5006,1.5006,1.5006,1.5006,1.5006,0.6514,0.6514,0.6514,0.6514,0.6514,0.6514,0.6514,0.6514,0.6522,0.7285,0.8261,0.856,0.9486,1.2414,1.2336,1.269,1.2624,1.2873,1.2884,1.289,1.2863,1.2873,1.2934,1.3029,1.2934,1.299,1.304,1.294,1.3184,1.314,1.314,1.354,1.354,1.359,1.3634,1.3734,1.3884,1.3684,1.3634,1.3684,1.3778,1.3528,1.299,1.2857,1.2792,1.2689,1.2618,1.2841,1.2765,1.2603,1.2489,1.2603,1.2705,1.2809,1.293,1.3134,1.3172,1.3109,1.3198,1.3369,1.3635,1.3679,1.3856,1.4122,1.4299,1.4299,1.4299,1.4299,1.4299,1.4299,1.4299,1.4299,1.4343,1.4476,1.4764,1.4964,1.5112,1.54,1.5607,1.5703,1.5775,1.5898,1.6087,1.5976,1.585,1.5769,1.5656,1.5682,1.5599,1.5642,1.5693,1.5652,1.5611,1.5157,1.4842,1.5202,1.5102,1.5097,1.5138,1.5352,1.5455,1.5463,1.5431,1.5335,1.5221,1.5163,1.5098,1.5063,1.5015,1.5023,1.5006,1.5006,1.5006,1.5031,1.5047]},{"header":{"parameterUnit":"m.s-1","parameterCategory":1,"la1":31.0,"la2":29.5877,"lo1":-88.7671,"lo2":-86.6584,"dy":0.0162,"dx":0.0185,"nx":115,"ny":88,"refTime":"2023-09-30T18:00:00:Z","depth":0,"parameterNumber":3,"parameterNumberName":"V-component_of_WINDS"},"data":[0.0,0.0,0.0,0.0,0.0,0.0,0.0,0.0,0.0,0.0,0.0,0.0,0.0,0.0,0.0,0.0,0.0,0.0,0.0,0.0,0.0,0.0,0.0,0.0,0.0,0.0,0.0,0.0,0.0,0.0,0.0,0.0,0.0,0.0,0.0,0.0,0.0,0.0,0.0,0.0,0.0,0.0,0.0,0.0,0.0,0.0,0.0,0.0,0.0,0.0,0.0,0.0,0.0,0.0,0.0,0.0,0.0,0.0,0.0,0.0,0.0,0.0,0.0,0.0,0.0,0.0,0.0,0.0,0.0,0.0,0.0,0.0,0.0,0.0,0.0,0.0,0.0,0.0,0.0,0.0,0.0,0.0,0.0,0.0,0.0,0.0,0.0,0.0,0.0,0.0,0.0,0.0,0.0,0.0,0.0,0.0,0.0,0.0,0.0,0.0,0.0,0.0,0.0,0.0,0.0,0.0,0.0,0.0,0.0,0.0,0.0,0.0,0.0,0.0,0.0,0.0,0.0,0.0,0.0,0.0,0.0,0.0,0.0,0.0,0.0,0.0,0.0,0.0,0.0,0.0,0.0,0.0,0.0,0.0,0.0,0.0,0.0,0.0,0.0,0.0,0.0,0.0,0.0,0.0,0.0,0.0,0.0,0.0,0.0,0.0,0.0,0.0,0.0,0.0,0.0,0.0,0.0,0.0,0.0,0.0,0.0,0.0,0.0,0.0,0.0,0.0,0.0,0.0,0.0,0.0,0.0,0.0,0.0,0.0,0.0,0.0,0.0,0.0,0.0,0.0,0.0,0.0,0.0,0.0,0.0,0.0,0.0,0.0,0.0,0.0,0.0,0.0,0.0,0.0,0.0,0.0,0.0,0.0,0.0,0.0,0.0,0.0,0.0,0.0,0.0,0.0,0.0,0.0,0.0,0.0,0.0,0.0,0.0,0.0,0.0,0.0,0.0,0.0,0.0,0.0,0.0,0.0,0.0,0.0,0.0,0.0,0.0,0.0,0.0,0.0,0.0,0.0,0.0,0.0,0.0,0.0,0.0,0.0,0.0,0.0,0.0,0.0,0.0,0.0,0.0,0.0,0.0,0.0,0.0,0.0,0.0,0.0,0.0,0.0,0.0,0.0,0.0,0.0,0.0,0.0,0.0,0.0,0.0,0.0,0.0,0.0,0.0,0.0,0.0,0.0,0.0,0.0,0.0,0.0,0.0,0.0,0.0,0.0,0.0,0.0,0.0,0.0,0.0,0.0,0.0,0.0,0.0,0.0,0.0,0.0,0.0,0.0,0.0,0.0,0.0,0.0,0.0,0.0,0.0,0.0,0.0,0.0,0.0,0.0,0.0,0.0,0.0,0.0,0.0,0.0,0.0,0.0,0.0,0.0,0.0,0.0,0.0,0.0,0.0,0.0,0.0,0.0,0.0,0.0,0.0,0.0,0.0,0.0,0.0,0.0,0.0,0.0,0.0,0.0,0.0,0.0,0.0,0.0,0.0,0.0,0.0,0.0,0.0,0.0,0.0,0.0,0.0,0.0,0.0,0.0,0.0,0.0,0.0,0.0,0.0,0.0,0.0,0.0,0.0,0.0,0.0,0.0,0.0,0.0,0.0,0.0,0.0,0.0,0.0,0.0,0.0,0.0,0.0,0.0,0.0,0.0,0.0,0.0,0.0,0.0,0.0,0.0,0.0,0.0,0.0,0.0,0.0,0.0,0.0,0.0,0.0,0.0,0.0,0.0,0.0,0.0,0.0,0.0,0.0,0.0,0.0,0.0,0.0,0.0,0.0,0.0,0.0,0.0,0.0,0.0,0.0,0.0,0.0,0.0,0.0,0.0,0.0,0.0,0.0,0.0,0.0,0.0,0.0,0.0,0.0,0.0,0.0,0.0,0.0,0.0,0.0,0.0,0.0,0.0,0.0,0.0,0.0,0.0,0.0,0.0,0.0,0.0,0.0,0.0,0.0,0.0,0.0,0.0,0.0,0.0,0.0,0.0,0.0,0.0,0.0,0.0,0.0,0.0,0.0,0.0,0.0,0.0,0.0,0.0,0.0,0.0,0.0,0.0,0.0,0.0,0.0,0.0,0.0,0.0,0.0,0.0,0.0,0.0,0.0,0.0,0.0,0.0,0.0,0.0,0.0,0.0,0.0,0.0,0.0,0.0,0.0,0.0,0.0,0.0,0.0,0.0,0.0,0.0,0.0,0.0,0.0,0.0,0.0,0.0,0.0,0.0,0.0,0.0,0.0,0.0,0.0,0.0,0.0,0.0,0.0,0.0,0.0,0.0,0.0,0.0,0.0,0.0,0.0,0.0,0.0,0.0,0.0,0.0,0.0,0.0,0.0,0.0,0.0,0.0,0.0,0.0,0.0,0.0,0.0,0.0,0.0,0.0,0.0,0.0,0.0,0.0,0.0,0.0,0.0,0.0,0.0,0.0,0.0,0.0,0.0,0.0,0.0,0.0,0.0,0.0,0.0,0.0,0.0,0.0,0.0,0.0,0.0,0.0,0.0,0.0,0.0,0.0,0.0,0.0,0.0,0.0,0.0,0.0,0.0,0.0,0.0,0.0,0.0,0.0,0.0,0.0,0.0,0.0,0.0,0.0,0.0,0.0,0.0,0.0,0.0,0.0,0.0,0.0,0.0,0.0,0.0,0.0,0.0,0.0,0.0,0.0,0.0,0.0,0.0,0.0,0.0,0.0,0.0,0.0,0.0,0.0,0.0,0.0,0.0,0.0,0.0,0.0,0.0,0.0,0.0,0.0,0.0,0.0,0.0,0.0,0.0,0.0,0.0,0.0,0.0,0.0,0.0,0.0,0.0,0.0,0.0,0.0,0.0,0.0,0.0,0.0,0.0,0.0,0.0,0.0,0.0,0.0,0.0,0.0,0.0,0.0,0.0,0.0,0.0,0.0,0.0,0.0,0.0,0.0,0.0,0.0,0.0,0.0,0.0,0.0,0.0,0.0,0.0,0.0,0.0,0.0,0.0,0.0,0.0,0.0,0.0,0.0,0.0,0.0,0.0,0.0,0.0,0.0,0.0,0.0,0.0,0.0,0.0,0.0,0.0,0.0,0.0,0.0,0.0,0.0,0.0,0.0,0.0,0.0,0.0,0.0,0.0,0.0,0.0,0.0,0.0,0.0,0.0,0.0,0.0,0.0,0.0,0.0,0.0,0.0,0.0,0.0,0.0,0.0,0.0,0.0,0.0,0.0,0.0,0.0,0.0,0.0,0.0,0.0,0.0,0.0,0.0,0.0,0.0,0.0,0.0,0.0,0.0,0.0,0.0,0.0,0.0,0.0,0.0,0.0,0.0,0.0,0.0,0.0,0.0,0.0,0.0,0.0,0.0,0.0,0.0,0.0,0.0,0.0,0.0,0.0,0.0,0.0,0.0,0.0,0.0,0.0,0.0,0.0,0.0,0.0,0.0,0.0,0.0,0.0,0.0,0.0,0.0,0.0,0.0,0.0,0.0,0.0,0.0,0.0,0.0,0.0,0.0,0.0,0.0,0.0,0.0,0.0,0.0,0.0,0.0,0.0,0.0,0.0,0.0,0.0,0.0,0.0,0.0,0.0,0.0,0.0,0.0,0.0,0.0,0.0,0.0,0.0,0.0,0.0,0.0,0.0,0.0,0.0,0.0,0.0,0.0,0.0,0.0,0.0,0.0,0.0,0.0,0.0,0.0,0.0,0.0,0.0,0.0,0.0,0.0,0.0,0.0,0.0,0.0,0.0,0.0,0.0,0.0,0.0,0.0,0.0,0.0,0.0,0.0,0.0,0.0,0.0,0.0,0.0,0.0,0.0,0.0,0.0,0.0,0.0,0.0,0.0,0.0,0.0,0.0,0.0,0.0,0.0,0.0,0.0,0.0,0.0,0.0,0.0,0.0,0.0,0.0,0.0,0.0,0.0,0.0,0.0,0.0,0.0,0.0,0.0,0.0,0.0,0.0,0.0,0.0,0.0,0.0,0.0,0.0,0.0,0.0,0.0,0.0,0.0,0.0,0.0,0.0,0.0,0.0,0.0,0.0,0.0,0.0,0.0,0.0,0.0,0.0,0.0,0.0,0.0,0.0,0.0,0.0,0.0,0.0,0.0,0.0,0.0,0.0,0.0,0.0,0.0,0.0,0.0,0.0,0.0,0.0,0.0,0.0,0.0,0.0,0.0,0.0,0.0,0.0,0.0,0.0,0.0,0.0,0.0,0.0,0.0,0.0,0.0,0.0,0.0,0.0,0.0,0.0,0.0,0.0,0.0,0.0,0.0,4.6304,0.0,0.0,0.0,0.0,0.0,0.0,0.0,0.0,0.0,0.0,0.0,0.0,0.0,0.0,0.0,0.0,0.0,0.0,0.0,0.0,0.0,0.0,0.0,0.0,0.0,0.0,0.0,0.0,0.0,0.0,0.0,0.0,0.0,0.0,0.0,0.0,0.0,0.0,0.0,0.0,0.0,0.0,0.0,0.0,0.0,0.0,0.0,0.0,0.0,0.0,0.0,0.0,0.0,0.0,0.0,0.0,0.0,0.0,0.0,0.0,0.0,0.0,0.0,0.0,0.0,0.0,0.0,0.0,0.0,0.0,0.0,0.0,0.0,0.0,0.0,0.0,0.0,0.0,0.0,0.0,0.0,0.0,0.0,0.0,0.0,0.0,0.0,0.0,0.0,0.0,0.0,0.0,0.0,0.0,0.0,0.0,0.0,0.0,0.0,0.0,0.0,0.0,0.0,0.0,0.0,0.0,0.0,0.0,0.0,0.0,4.6142,4.6134,4.6224,4.6238,4.6224,0.0,0.0,0.0,0.0,0.0,0.0,0.0,0.0,0.0,0.0,0.0,0.0,0.0,0.0,0.0,0.0,0.0,0.0,0.0,0.0,0.0,0.0,0.0,0.0,0.0,0.0,0.0,0.0,0.0,0.0,0.0,0.0,0.0,0.0,0.0,0.0,0.0,0.0,0.0,0.0,0.0,0.0,0.0,0.0,0.0,0.0,0.0,0.0,0.0,0.0,0.0,0.0,0.0,0.0,0.0,0.0,0.0,0.0,0.0,0.0,0.0,0.0,0.0,0.0,0.0,0.0,0.0,0.0,0.0,0.0,0.0,0.0,0.0,0.0,0.0,0.0,0.0,0.0,0.0,0.0,0.0,0.0,0.0,0.0,0.0,0.0,0.0,0.0,0.0,0.0,0.0,0.0,0.0,0.0,0.0,0.0,0.0,0.0,0.0,0.0,0.0,0.0,0.0,0.0,0.0,0.0,0.0,0.0,0.0,0.0,0.0,0.0,4.6146,4.6164,4.622,0.0,0.0,0.0,0.0,0.0,0.0,0.0,0.0,0.0,0.0,0.0,0.0,0.0,0.0,0.0,0.0,0.0,0.0,0.0,0.0,0.0,0.0,0.0,0.0,0.0,0.0,0.0,0.0,0.0,0.0,0.0,0.0,0.0,0.0,0.0,0.0,0.0,0.0,0.0,0.0,0.0,0.0,0.0,0.0,0.0,0.0,0.0,0.0,0.0,0.0,0.0,0.0,0.0,0.0,0.0,0.0,0.0,0.0,0.0,0.0,0.0,0.0,0.0,0.0,0.0,0.0,0.0,0.0,0.0,0.0,0.0,0.0,0.0,0.0,0.0,0.0,0.0,0.0,0.0,0.0,0.0,0.0,0.0,0.0,0.0,0.0,0.0,0.0,0.0,0.0,0.0,0.0,0.0,0.0,0.0,0.0,0.0,0.0,0.0,0.0,0.0,0.0,0.0,0.0,0.0,0.0,0.0,0.0,0.0,0.0,4.6039,4.6105,4.6113,0.0,4.6219,0.0,0.0,0.0,0.0,0.0,0.0,0.0,0.0,0.0,0.0,0.0,0.0,0.0,0.0,0.0,0.0,0.0,0.0,0.0,0.0,0.0,0.0,0.0,0.0,0.0,0.0,0.0,0.0,0.0,0.0,0.0,0.0,0.0,0.0,0.0,0.0,0.0,0.0,0.0,0.0,0.0,0.0,0.0,0.0,0.0,0.0,0.0,0.0,0.0,0.0,0.0,0.0,0.0,0.0,0.0,0.0,0.0,0.0,0.0,0.0,0.0,0.0,0.0,0.0,0.0,0.0,0.0,0.0,0.0,0.0,0.0,0.0,0.0,0.0,0.0,0.0,0.0,0.0,0.0,0.0,0.0,0.0,0.0,0.0,0.0,0.0,0.0,0.0,0.0,0.0,0.0,0.0,0.0,0.0,0.0,0.0,0.0,0.0,0.0,0.0,0.0,0.0,0.0,0.0,0.0,0.0,0.0,0.0,0.0,0.0,4.5926,4.5963,4.5963,4.603,0.0,0.0,0.0,0.0,0.0,0.0,0.0,0.0,0.0,0.0,0.0,0.0,0.0,0.0,0.0,0.0,0.0,0.0,0.0,0.0,0.0,0.0,0.0,0.0,0.0,0.0,0.0,0.0,0.0,0.0,0.0,0.0,0.0,0.0,0.0,0.0,0.0,0.0,0.0,0.0,0.0,0.0,0.0,0.0,0.0,0.0,0.0,0.0,0.0,0.0,0.0,0.0,0.0,0.0,0.0,0.0,0.0,0.0,0.0,0.0,0.0,0.0,0.0,0.0,0.0,0.0,0.0,0.0,0.0,0.0,0.0,0.0,0.0,0.0,0.0,0.0,0.0,0.0,0.0,0.0,0.0,0.0,0.0,0.0,0.0,0.0,0.0,0.0,0.0,0.0,0.0,0.0,0.0,0.0,0.0,0.0,0.0,0.0,0.0,0.0,0.0,0.0,0.0,0.0,0.0,0.0,0.0,0.0,0.0,0.0,4.5771,4.581,4.5877,4.5908,4.595,4.6046,0.0,0.0,0.0,0.0,0.0,0.0,0.0,0.0,0.0,0.0,0.0,0.0,0.0,0.0,0.0,0.0,0.0,0.0,0.0,0.0,0.0,0.0,0.0,0.0,0.0,0.0,0.0,0.0,0.0,0.0,0.0,0.0,0.0,0.0,0.0,0.0,0.0,0.0,0.0,0.0,0.0,0.0,0.0,0.0,0.0,0.0,0.0,0.0,0.0,0.0,0.0,0.0,0.0,0.0,0.0,0.0,0.0,0.0,0.0,0.0,0.0,0.0,0.0,0.0,0.0,0.0,0.0,0.0,0.0,0.0,0.0,0.0,0.0,0.0,0.0,0.0,0.0,0.0,0.0,0.0,0.0,0.0,0.0,0.0,0.0,0.0,0.0,0.0,0.0,0.0,0.0,0.0,0.0,0.0,0.0,0.0,0.0,0.0,0.0,0.0,0.0,0.0,0.0,0.0,0.0,0.0,0.0,0.0,4.5688,4.5692,4.5731,4.581,4.5866,4.5902,0.0,0.0,0.0,0.0,0.0,0.0,0.0,0.0,0.0,0.0,0.0,0.0,0.0,0.0,0.0,0.0,0.0,0.0,0.0,0.0,0.0,0.0,0.0,0.0,0.0,0.0,0.0,0.0,0.0,0.0,0.0,0.0,0.0,0.0,0.0,0.0,0.0,0.0,0.0,0.0,0.0,0.0,0.0,0.0,0.0,0.0,0.0,0.0,0.0,0.0,0.0,0.0,0.0,0.0,0.0,0.0,0.0,0.0,0.0,0.0,0.0,0.0,0.0,0.0,0.0,0.0,0.0,0.0,0.0,0.0,0.0,0.0,0.0,0.0,0.0,0.0,0.0,0.0,0.0,0.0,0.0,0.0,0.0,0.0,0.0,0.0,0.0,0.0,0.0,0.0,0.0,0.0,0.0,0.0,0.0,0.0,0.0,0.0,0.0,0.0,0.0,0.0,0.0,0.0,0.0,0.0,0.0,0.0,0.0,4.5642,4.5699,4.57,4.5731,4.5771,4.581,0.0,0.0,0.0,0.0,0.0,0.0,0.0,0.0,0.0,0.0,0.0,0.0,0.0,0.0,0.0,0.0,0.0,0.0,0.0,0.0,0.0,0.0,0.0,0.0,0.0,0.0,0.0,0.0,0.0,0.0,0.0,0.0,0.0,0.0,0.0,0.0,0.0,0.0,0.0,0.0,0.0,0.0,0.0,0.0,0.0,0.0,0.0,0.0,0.0,0.0,0.0,0.0,0.0,0.0,0.0,0.0,0.0,0.0,0.0,0.0,0.0,0.0,0.0,0.0,0.0,0.0,0.0,0.0,0.0,0.0,0.0,0.0,0.0,0.0,0.0,0.0,0.0,0.0,0.0,0.0,0.0,0.0,0.0,0.0,0.0,0.0,0.0,0.0,0.0,0.0,0.0,0.0,0.0,0.0,0.0,0.0,0.0,0.0,0.0,0.0,0.0,0.0,0.0,0.0,0.0,0.0,0.0,0.0,0.0,4.5568,0.0,4.5691,0.0,4.5703,4.57,0.0,0.0,0.0,0.0,0.0,0.0,0.0,0.0,0.0,0.0,0.0,0.0,0.0,0.0,0.0,0.0,0.0,0.0,0.0,0.0,0.0,0.0,0.0,0.0,0.0,0.0,0.0,0.0,0.0,0.0,0.0,0.0,0.0,0.0,0.0,0.0,0.0,0.0,0.0,0.0,0.0,0.0,0.0,0.0,0.0,0.0,0.0,0.0,0.0,0.0,0.0,0.0,0.0,0.0,0.0,0.0,0.0,0.0,0.0,0.0,0.0,0.0,0.0,0.0,0.0,0.0,0.0,0.0,0.0,0.0,0.0,0.0,0.0,0.0,0.0,0.0,0.0,0.0,0.0,0.0,0.0,0.0,0.0,0.0,0.0,0.0,0.0,0.0,0.0,0.0,0.0,0.0,0.0,0.0,0.0,0.0,0.0,0.0,0.0,0.0,0.0,0.0,0.0,0.0,0.0,0.0,0.0,0.0,4.5414,4.5509,4.5564,4.5612,4.5697,4.5697,4.5679,0.0,0.0,0.0,0.0,0.0,0.0,0.0,0.0,0.0,0.0,0.0,0.0,0.0,0.0,0.0,0.0,0.0,0.0,0.0,0.0,0.0,0.0,0.0,0.0,0.0,0.0,0.0,0.0,0.0,0.0,0.0,0.0,0.0,0.0,0.0,0.0,0.0,0.0,0.0,0.0,0.0,0.0,0.0,0.0,0.0,0.0,0.0,0.0,0.0,0.0,0.0,0.0,0.0,0.0,0.0,0.0,0.0,0.0,0.0,0.0,0.0,0.0,0.0,0.0,0.0,0.0,0.0,0.0,0.0,0.0,0.0,0.0,0.0,0.0,0.0,0.0,0.0,0.0,0.0,0.0,0.0,0.0,0.0,0.0,0.0,0.0,0.0,0.0,0.0,0.0,0.0,0.0,0.0,0.0,0.0,0.0,0.0,0.0,0.0,0.0,0.0,0.0,0.0,0.0,0.0,0.0,0.0,0.0,0.0,4.5355,4.541,4.5518,4.5564,4.5564,4.5603,0.0,0.0,0.0,0.0,0.0,0.0,0.0,0.0,0.0,0.0,0.0,0.0,0.0,0.0,0.0,0.0,0.0,0.0,0.0,0.0,0.0,0.0,0.0,0.0,0.0,0.0,0.0,0.0,0.0,0.0,0.0,0.0,0.0,0.0,0.0,0.0,0.0,0.0,0.0,0.0,0.0,0.0,0.0,0.0,0.0,0.0,0.0,0.0,0.0,0.0,0.0,0.0,0.0,0.0,0.0,0.0,0.0,0.0,0.0,0.0,0.0,0.0,0.0,0.0,0.0,0.0,0.0,0.0,0.0,0.0,0.0,0.0,0.0,0.0,0.0,0.0,0.0,0.0,0.0,0.0,0.0,0.0,0.0,0.0,0.0,0.0,0.0,0.0,0.0,0.0,0.0,0.0,0.0,0.0,0.0,0.0,0.0,0.0,0.0,0.0,0.0,0.0,0.0,0.0,0.0,0.0,0.0,0.0,0.0,4.5809,4.5932,4.5964,4.5996,4.6056,4.592,4.5672,0.0,0.0,0.0,0.0,0.0,0.0,0.0,0.0,0.0,0.0,0.0,0.0,0.0,0.0,0.0,0.0,0.0,0.0,0.0,0.0,0.0,0.0,0.0,0.0,0.0,0.0,0.0,0.0,0.0,0.0,0.0,0.0,0.0,0.0,0.0,0.0,0.0,0.0,0.0,0.0,0.0,0.0,0.0,0.0,0.0,0.0,0.0,0.0,0.0,0.0,0.0,0.0,0.0,0.0,0.0,0.0,0.0,0.0,0.0,0.0,0.0,0.0,0.0,0.0,0.0,0.0,0.0,0.0,0.0,0.0,0.0,0.0,0.0,0.0,0.0,0.0,0.0,0.0,0.0,0.0,0.0,0.0,0.0,0.0,0.0,0.0,0.0,0.0,0.0,0.0,0.0,0.0,0.0,0.0,0.0,0.0,0.0,0.0,0.0,0.0,0.0,0.0,0.0,0.0,0.0,0.0,0.0,0.0,4.6742,4.6932,4.6968,4.6904,4.6933,4.657,0.0,0.0,0.0,0.0,0.0,0.0,0.0,0.0,0.0,0.0,0.0,0.0,0.0,0.0,0.0,0.0,0.0,0.0,0.0,0.0,0.0,0.0,0.0,0.0,0.0,0.0,0.0,0.0,0.0,0.0,0.0,0.0,0.0,0.0,0.0,0.0,0.0,0.0,0.0,0.0,0.0,0.0,0.0,0.0,0.0,0.0,0.0,0.0,0.0,0.0,0.0,0.0,0.0,0.0,0.0,0.0,0.0,0.0,0.0,0.0,0.0,0.0,0.0,0.0,0.0,0.0,0.0,0.0,0.0,0.0,0.0,0.0,0.0,0.0,0.0,0.0,0.0,0.0,0.0,0.0,0.0,0.0,0.0,0.0,0.0,0.0,0.0,0.0,0.0,0.0,0.0,0.0,0.0,0.0,0.0,0.0,0.0,0.0,0.0,0.0,0.0,0.0,0.0,0.0,0.0,0.0,0.0,0.0,0.0,4.7406,4.825,4.8123,4.702,4.6908,4.6446,0.0,0.0,0.0,0.0,0.0,0.0,0.0,0.0,0.0,0.0,0.0,0.0,0.0,0.0,0.0,0.0,0.0,0.0,0.0,0.0,0.0,0.0,0.0,0.0,0.0,0.0,0.0,0.0,0.0,0.0,0.0,0.0,0.0,0.0,0.0,0.0,0.0,0.0,0.0,0.0,0.0,0.0,0.0,0.0,0.0,0.0,0.0,0.0,0.0,0.0,0.0,0.0,0.0,0.0,0.0,0.0,0.0,0.0,0.0,0.0,0.0,0.0,0.0,0.0,0.0,0.0,0.0,0.0,0.0,0.0,0.0,0.0,0.0,0.0,0.0,0.0,0.0,0.0,0.0,0.0,0.0,0.0,0.0,0.0,0.0,0.0,0.0,0.0,0.0,0.0,0.0,0.0,0.0,0.0,0.0,0.0,0.0,0.0,0.0,0.0,0.0,0.0,0.0,0.0,0.0,0.0,0.0,0.0,4.666,4.7701,4.8762,4.8884,4.8028,4.7598,4.6985,0.0,0.0,0.0,0.0,0.0,0.0,0.0,0.0,0.0,0.0,0.0,0.0,0.0,0.0,0.0,0.0,0.0,0.0,0.0,0.0,0.0,0.0,0.0,0.0,0.0,0.0,0.0,0.0,0.0,0.0,0.0,0.0,0.0,0.0,0.0,0.0,0.0,0.0,0.0,0.0,0.0,0.0,0.0,0.0,0.0,0.0,0.0,0.0,0.0,0.0,0.0,0.0,0.0,0.0,0.0,0.0,0.0,0.0,0.0,0.0,0.0,0.0,0.0,0.0,0.0,0.0,0.0,0.0,0.0,0.0,0.0,0.0,0.0,0.0,0.0,0.0,0.0,0.0,0.0,0.0,0.0,0.0,0.0,0.0,0.0,0.0,0.0,0.0,0.0,0.0,0.0,0.0,0.0,0.0,0.0,0.0,0.0,0.0,0.0,0.0,0.0,0.0,0.0,0.0,0.0,0.0,0.0,0.0,4.6795,4.7804,4.8846,4.9428,4.9461,4.8664,4.7764,0.0,0.0,0.0,0.0,0.0,0.0,0.0,0.0,0.0,0.0,0.0,0.0,0.0,0.0,0.0,0.0,0.0,0.0,0.0,0.0,0.0,0.0,0.0,0.0,0.0,0.0,0.0,0.0,0.0,0.0,0.0,0.0,0.0,0.0,0.0,0.0,0.0,0.0,0.0,0.0,0.0,0.0,0.0,0.0,0.0,0.0,0.0,0.0,0.0,0.0,0.0,0.0,0.0,0.0,0.0,0.0,0.0,0.0,0.0,0.0,0.0,0.0,0.0,0.0,0.0,0.0,0.0,0.0,0.0,0.0,0.0,0.0,0.0,0.0,0.0,0.0,0.0,0.0,0.0,0.0,0.0,0.0,0.0,0.0,0.0,0.0,0.0,0.0,0.0,0.0,0.0,0.0,0.0,0.0,0.0,0.0,0.0,0.0,0.0,0.0,0.0,0.0,0.0,0.0,0.0,0.0,0.0,0.0,4.7484,4.846,4.9441,5.0029,5.0273,4.8779,4.7578,0.0,0.0,0.0,0.0,0.0,0.0,0.0,0.0,0.0,0.0,0.0,0.0,0.0,0.0,0.0,0.0,0.0,0.0,0.0,0.0,0.0,0.0,0.0,0.0,0.0,0.0,0.0,0.0,0.0,0.0,0.0,0.0,0.0,0.0,0.0,0.0,0.0,0.0,0.0,0.0,0.0,0.0,0.0,0.0,0.0,0.0,0.0,0.0,5.3924,0.0,0.0,0.0,0.0,0.0,0.0,0.0,0.0,0.0,0.0,0.0,0.0,0.0,0.0,0.0,0.0,0.0,0.0,0.0,0.0,0.0,0.0,0.0,0.0,0.0,0.0,0.0,0.0,0.0,0.0,0.0,0.0,0.0,0.0,0.0,0.0,0.0,0.0,0.0,0.0,0.0,0.0,0.0,0.0,0.0,0.0,0.0,0.0,0.0,0.0,0.0,0.0,0.0,0.0,0.0,0.0,0.0,0.0,0.0,4.7868,4.8052,4.8953,4.9536,4.9679,4.8504,4.7644,0.0,0.0,0.0,0.0,0.0,0.0,0.0,0.0,0.0,0.0,0.0,0.0,0.0,0.0,0.0,0.0,0.0,0.0,0.0,0.0,0.0,0.0,0.0,0.0,0.0,0.0,0.0,0.0,0.0,0.0,0.0,0.0,0.0,0.0,0.0,0.0,0.0,0.0,0.0,0.0,0.0,0.0,0.0,0.0,0.0,0.0,0.0,0.0,0.0,0.0,0.0,0.0,0.0,0.0,0.0,0.0,0.0,0.0,0.0,0.0,0.0,0.0,0.0,0.0,0.0,0.0,0.0,0.0,0.0,0.0,0.0,0.0,0.0,0.0,0.0,0.0,0.0,0.0,0.0,0.0,0.0,0.0,0.0,0.0,0.0,0.0,0.0,0.0,0.0,0.0,0.0,0.0,0.0,0.0,0.0,0.0,0.0,0.0,0.0,0.0,0.0,0.0,0.0,0.0,0.0,0.0,0.0,4.797,4.8098,4.7558,4.8267,4.8783,4.8903,4.8228,4.793,4.8094,0.0,0.0,0.0,0.0,0.0,0.0,0.0,0.0,0.0,0.0,0.0,0.0,0.0,0.0,0.0,0.0,0.0,0.0,0.0,0.0,0.0,0.0,0.0,0.0,0.0,0.0,0.0,0.0,0.0,0.0,0.0,0.0,0.0,0.0,0.0,0.0,0.0,0.0,5.1478,5.2885,0.0,0.0,0.0,0.0,0.0,0.0,0.0,0.0,5.6523,0.0,0.0,0.0,0.0,0.0,0.0,0.0,0.0,0.0,0.0,0.0,0.0,0.0,0.0,0.0,0.0,0.0,0.0,0.0,0.0,0.0,0.0,0.0,0.0,0.0,0.0,0.0,0.0,0.0,0.0,0.0,0.0,0.0,0.0,0.0,0.0,0.0,0.0,0.0,0.0,0.0,0.0,0.0,0.0,0.0,0.0,0.0,0.0,0.0,0.0,0.0,0.0,0.0,0.0,0.0,0.0,4.7852,4.8153,4.8379,4.8464,4.8628,4.8776,4.8903,4.8669,4.8555,4.8566,0.0,0.0,0.0,0.0,0.0,0.0,0.0,0.0,0.0,0.0,0.0,0.0,0.0,0.0,0.0,0.0,0.0,0.0,0.0,0.0,0.0,0.0,0.0,0.0,0.0,0.0,0.0,0.0,0.0,0.0,0.0,0.0,0.0,0.0,0.0,0.0,0.0,0.0,0.0,5.3748,5.4908,0.0,0.0,0.0,0.0,0.0,0.0,0.0,0.0,5.6522,0.0,0.0,0.0,0.0,0.0,0.0,0.0,0.0,0.0,0.0,0.0,0.0,0.0,0.0,0.0,0.0,0.0,0.0,0.0,0.0,0.0,0.0,0.0,0.0,0.0,0.0,0.0,0.0,0.0,0.0,0.0,0.0,0.0,0.0,0.0,0.0,0.0,0.0,0.0,0.0,0.0,0.0,0.0,0.0,0.0,0.0,0.0,0.0,0.0,0.0,0.0,0.0,0.0,0.0,0.0,4.8723,4.8949,4.894,4.8711,4.8717,4.8744,4.8808,4.8732,4.8871,0.0,0.0,0.0,0.0,0.0,0.0,0.0,0.0,0.0,0.0,0.0,0.0,0.0,0.0,0.0,0.0,0.0,0.0,0.0,0.0,0.0,0.0,0.0,0.0,0.0,0.0,0.0,0.0,0.0,0.0,0.0,0.0,0.0,0.0,0.0,0.0,0.0,0.0,0.0,0.0,5.4878,5.5704,5.5796,0.0,0.0,0.0,0.0,0.0,0.0,5.6911,5.7069,0.0,0.0,0.0,0.0,0.0,0.0,0.0,0.0,0.0,0.0,0.0,0.0,0.0,0.0,0.0,0.0,0.0,0.0,0.0,0.0,0.0,0.0,0.0,0.0,0.0,0.0,0.0,0.0,0.0,0.0,0.0,0.0,0.0,0.0,0.0,0.0,0.0,0.0,0.0,0.0,0.0,0.0,0.0,0.0,0.0,0.0,0.0,0.0,0.0,0.0,0.0,0.0,0.0,0.0,0.0,4.9313,4.9619,4.9428,4.8722,4.8704,4.8717,4.8717,4.8661,4.8967,0.0,0.0,0.0,0.0,0.0,0.0,0.0,0.0,0.0,0.0,0.0,0.0,0.0,0.0,0.0,0.0,0.0,0.0,0.0,0.0,0.0,0.0,0.0,0.0,0.0,0.0,0.0,0.0,0.0,0.0,0.0,0.0,0.0,0.0,0.0,0.0,0.0,0.0,0.0,0.0,0.0,5.6511,5.6587,5.7358,0.0,0.0,0.0,0.0,5.7124,5.7444,0.0,0.0,0.0,0.0,0.0,0.0,0.0,0.0,0.0,0.0,0.0,0.0,0.0,0.0,0.0,0.0,0.0,0.0,0.0,0.0,0.0,0.0,0.0,0.0,0.0,0.0,0.0,0.0,0.0,0.0,0.0,0.0,0.0,0.0,0.0,0.0,0.0,0.0,0.0,0.0,0.0,0.0,0.0,0.0,0.0,0.0,0.0,0.0,0.0,0.0,0.0,0.0,0.0,0.0,0.0,0.0,4.8968,4.9413,4.93,4.8641,4.8678,4.8717,4.8717,4.8514,4.8846,0.0,0.0,0.0,0.0,0.0,0.0,0.0,0.0,0.0,0.0,0.0,0.0,0.0,0.0,0.0,0.0,0.0,0.0,0.0,0.0,0.0,0.0,0.0,0.0,0.0,0.0,0.0,0.0,0.0,0.0,0.0,0.0,0.0,0.0,0.0,0.0,0.0,0.0,0.0,0.0,0.0,5.7129,5.7266,5.8091,5.8688,0.0,0.0,5.884,5.8802,5.8233,0.0,0.0,0.0,0.0,0.0,0.0,0.0,0.0,0.0,0.0,0.0,0.0,0.0,0.0,0.0,0.0,0.0,0.0,0.0,0.0,0.0,0.0,0.0,0.0,0.0,0.0,0.0,0.0,0.0,0.0,0.0,0.0,0.0,0.0,0.0,0.0,0.0,0.0,0.0,0.0,0.0,0.0,0.0,0.0,0.0,0.0,0.0,0.0,0.0,0.0,0.0,0.0,0.0,0.0,0.0,4.9301,4.9816,5.0214,5.0271,4.9989,5.0065,4.9859,4.9325,4.9218,4.9358,0.0,0.0,0.0,0.0,0.0,0.0,0.0,0.0,0.0,0.0,0.0,0.0,0.0,0.0,0.0,0.0,0.0,0.0,0.0,0.0,0.0,0.0,0.0,0.0,0.0,0.0,0.0,0.0,0.0,0.0,0.0,0.0,0.0,0.0,0.0,0.0,0.0,0.0,0.0,0.0,0.0,0.0,5.8136,5.8943,0.0,0.0,0.0,5.879,5.8367,0.0,0.0,0.0,0.0,0.0,0.0,0.0,0.0,0.0,0.0,0.0,0.0,0.0,0.0,0.0,0.0,0.0,0.0,0.0,0.0,0.0,0.0,0.0,0.0,0.0,0.0,0.0,0.0,0.0,0.0,0.0,0.0,0.0,0.0,0.0,0.0,0.0,0.0,0.0,0.0,0.0,0.0,0.0,0.0,0.0,0.0,0.0,0.0,0.0,0.0,0.0,0.0,0.0,0.0,0.0,0.0,0.0,5.0738,5.1141,5.1319,5.1319,5.1467,5.1185,5.0506,5.0454,0.0,0.0,0.0,0.0,0.0,0.0,0.0,0.0,0.0,0.0,0.0,0.0,0.0,0.0,0.0,0.0,0.0,0.0,0.0,0.0,0.0,0.0,0.0,0.0,0.0,0.0,0.0,5.3222,0.0,0.0,0.0,0.0,0.0,0.0,0.0,0.0,0.0,0.0,0.0,0.0,0.0,0.0,5.8982,5.9258,5.9951,6.023,0.0,0.0,5.9238,5.8488,5.7728,5.7124,0.0,0.0,0.0,0.0,0.0,0.0,0.0,0.0,0.0,0.0,0.0,0.0,0.0,0.0,0.0,0.0,0.0,0.0,0.0,0.0,0.0,0.0,0.0,0.0,0.0,0.0,0.0,0.0,0.0,0.0,0.0,0.0,0.0,0.0,0.0,0.0,0.0,0.0,0.0,0.0,0.0,0.0,0.0,0.0,0.0,0.0,0.0,0.0,0.0,0.0,0.0,0.0,0.0,0.0,0.0,5.1455,5.1953,5.2234,5.2234,5.23,5.2333,5.2327,5.2264,5.2201,0.0,0.0,0.0,0.0,0.0,0.0,0.0,0.0,0.0,0.0,0.0,0.0,0.0,0.0,0.0,0.0,0.0,0.0,0.0,0.0,0.0,0.0,0.0,0.0,0.0,0.0,0.0,0.0,0.0,0.0,0.0,0.0,0.0,0.0,0.0,0.0,0.0,0.0,0.0,0.0,0.0,5.9882,6.0802,6.1119,6.127,0.0,0.0,6.092,6.0277,5.9456,5.8644,5.7841,0.0,0.0,0.0,0.0,0.0,0.0,0.0,0.0,0.0,0.0,0.0,0.0,0.0,0.0,0.0,0.0,0.0,0.0,0.0,0.0,0.0,0.0,0.0,0.0,0.0,0.0,0.0,0.0,0.0,0.0,0.0,0.0,0.0,0.0,0.0,0.0,0.0,0.0,0.0,0.0,0.0,0.0,0.0,0.0,0.0,0.0,0.0,0.0,0.0,0.0,0.0,0.0,0.0,5.2074,5.3153,5.3156,5.364,5.4632,5.3744,5.3241,5.3234,5.2717,5.2423,0.0,0.0,0.0,0.0,0.0,0.0,0.0,0.0,0.0,0.0,0.0,0.0,0.0,0.0,0.0,0.0,0.0,0.0,0.0,0.0,0.0,0.0,0.0,0.0,0.0,0.0,0.0,0.0,5.4951,5.4955,5.4824,0.0,0.0,0.0,0.0,0.0,0.0,0.0,0.0,0.0,0.0,6.0127,6.113,6.1395,0.0,0.0,6.1088,6.0392,5.9654,5.8403,5.7554,5.7718,5.7012,0.0,0.0,0.0,0.0,0.0,0.0,0.0,0.0,0.0,0.0,0.0,0.0,0.0,0.0,0.0,0.0,0.0,0.0,0.0,0.0,0.0,0.0,0.0,0.0,0.0,0.0,0.0,0.0,0.0,0.0,0.0,0.0,0.0,0.0,0.0,0.0,0.0,0.0,0.0,0.0,0.0,0.0,0.0,0.0,0.0,0.0,0.0,0.0,0.0,0.0,0.0,0.0,5.3337,5.453,5.4745,5.5411,5.6573,5.5471,5.4864,5.482,5.4294,5.3984,0.0,0.0,0.0,0.0,0.0,0.0,0.0,0.0,0.0,0.0,0.0,0.0,0.0,0.0,0.0,0.0,0.0,0.0,0.0,0.0,0.0,0.0,0.0,0.0,0.0,0.0,0.0,0.0,5.5913,5.602,5.6077,0.0,0.0,0.0,0.0,0.0,0.0,0.0,0.0,0.0,0.0,6.0494,6.1247,6.1401,6.1463,6.1444,6.0903,6.0217,5.9413,5.8334,5.7619,5.7676,0.0,0.0,0.0,0.0,0.0,0.0,0.0,0.0,0.0,0.0,0.0,0.0,0.0,0.0,0.0,0.0,0.0,0.0,0.0,0.0,0.0,0.0,0.0,0.0,0.0,0.0,0.0,0.0,0.0,0.0,6.0529,0.0,0.0,0.0,0.0,0.0,0.0,0.0,0.0,0.0,0.0,0.0,0.0,0.0,0.0,0.0,0.0,0.0,0.0,0.0,0.0,0.0,0.0,5.5317,5.5401,5.6739,5.7467,5.7476,5.743,5.7354,5.7392,5.7392,5.7362,5.7278,0.0,0.0,0.0,0.0,0.0,0.0,0.0,0.0,0.0,0.0,0.0,0.0,0.0,0.0,0.0,0.0,0.0,0.0,0.0,0.0,0.0,0.0,0.0,0.0,0.0,0.0,5.5584,5.5627,5.6105,0.0,0.0,0.0,0.0,0.0,0.0,0.0,0.0,0.0,0.0,6.0453,6.1187,6.1204,6.1161,6.1147,6.1147,6.104,6.0735,5.9965,5.999,5.9589,0.0,0.0,0.0,0.0,0.0,0.0,0.0,0.0,0.0,0.0,0.0,0.0,0.0,0.0,0.0,0.0,0.0,0.0,0.0,0.0,0.0,0.0,0.0,0.0,0.0,0.0,0.0,6.1822,6.2086,0.0,0.0,0.0,0.0,0.0,0.0,0.0,0.0,0.0,0.0,0.0,6.3442,6.348,0.0,0.0,0.0,0.0,0.0,0.0,0.0,0.0,0.0,0.0,0.0,0.0,5.6882,5.7436,5.7537,5.8143,5.914,5.8106,5.7772,5.8342,5.8395,5.8684,5.9239,0.0,0.0,0.0,0.0,0.0,0.0,0.0,0.0,0.0,0.0,0.0,0.0,0.0,0.0,0.0,0.0,0.0,0.0,0.0,0.0,0.0,0.0,0.0,0.0,0.0,5.7565,0.0,0.0,0.0,0.0,0.0,0.0,0.0,0.0,0.0,0.0,0.0,5.8984,6.0326,6.0816,6.1097,6.1179,6.1179,6.1204,0.0,0.0,0.0,0.0,0.0,0.0,0.0,0.0,0.0,0.0,0.0,0.0,0.0,0.0,6.1152,5.9419,5.9116,5.9127,5.9095,0.0,0.0,0.0,0.0,0.0,0.0,0.0,0.0,0.0,0.0,0.0,0.0,0.0,0.0,6.3786,0.0,6.4051,0.0,0.0,0.0,0.0,0.0,0.0,0.0,0.0,6.4595,6.5085,6.5368,6.51,6.4787,0.0,6.3657,6.2086,0.0,0.0,0.0,0.0,0.0,0.0,0.0,0.0,5.8084,5.8886,5.8943,5.9588,6.0852,5.9824,5.9512,6.005,6.0128,6.0304,6.0609,6.0609,6.0205,0.0,0.0,0.0,0.0,0.0,0.0,0.0,0.0,0.0,0.0,0.0,0.0,0.0,0.0,0.0,0.0,0.0,0.0,0.0,0.0,0.0,0.0,0.0,5.8187,0.0,0.0,0.0,0.0,0.0,0.0,0.0,0.0,0.0,5.9402,5.9248,5.9626,6.0911,6.1112,6.1136,6.1143,0.0,0.0,0.0,0.0,0.0,0.0,0.0,6.0469,6.0218,6.0675,6.1461,6.2668,6.3094,6.3309,6.3275,0.0,0.0,6.0719,6.0221,5.9995,5.9998,5.9999,5.9922,5.9606,5.9322,5.8996,0.0,0.0,0.0,0.0,0.0,0.0,0.0,0.0,6.6132,6.6882,0.0,6.5968,0.0,0.0,0.0,0.0,0.0,6.4085,0.0,0.0,6.6912,6.7407,6.789,6.7231,6.6435,6.5554,6.4558,6.3635,6.2681,6.0997,0.0,0.0,0.0,0.0,0.0,0.0,5.9,5.9773,6.089,6.1835,6.2519,6.2477,6.2441,6.2395,6.2479,6.2189,6.156,6.156,6.118,6.0357,5.9521,0.0,0.0,0.0,0.0,0.0,0.0,0.0,0.0,0.0,0.0,0.0,0.0,0.0,0.0,0.0,0.0,0.0,0.0,0.0,0.0,5.8819,0.0,0.0,0.0,0.0,0.0,0.0,0.0,0.0,0.0,0.0,5.9827,6.0485,6.1066,6.1217,0.0,0.0,0.0,0.0,6.1166,6.0892,6.0997,6.1098,6.1116,6.1248,6.1149,6.0386,0.0,0.0,6.2981,6.2294,6.1802,6.1699,6.1849,6.2022,6.2803,6.2143,6.1639,6.1639,6.1601,6.1406,6.0625,5.9876,5.9084,6.9004,0.0,0.0,0.0,0.0,6.5373,6.6287,6.8151,6.9,6.9167,6.8784,6.893,0.0,0.0,0.0,0.0,0.0,0.0,6.6552,6.7781,6.8421,6.8555,6.8304,6.8688,6.8053,6.6584,6.6274,6.5381,6.3946,6.3936,6.304,6.1403,0.0,0.0,0.0,0.0,6.1253,6.0995,6.1834,6.2367,6.2523,6.2462,6.2741,6.3398,6.3443,6.3723,6.4152,6.4268,6.3923,6.3031,6.2832,0.0,0.0,0.0,0.0,0.0,0.0,0.0,0.0,0.0,0.0,0.0,0.0,0.0,0.0,0.0,0.0,0.0,0.0,0.0,6.0358,6.03,6.0215,0.0,0.0,0.0,0.0,0.0,0.0,0.0,0.0,0.0,6.2559,6.1667,6.1235,0.0,0.0,6.1742,6.1016,6.1068,6.1193,6.1221,0.0,0.0,0.0,6.144,6.1401,6.1162,6.2116,6.2894,6.2943,6.3234,6.3519,6.3484,6.3034,6.273,6.2848,6.2303,6.1758,6.1718,6.1717,6.1635,6.1356,6.105,6.0726,7.3832,7.1875,6.9205,6.7964,6.7865,6.798,6.8602,6.9563,7.1105,7.1044,6.9972,7.0814,6.9973,6.8008,6.8024,0.0,0.0,0.0,6.8095,6.8807,6.9275,6.947,6.9391,6.9584,6.914,6.8107,6.7696,6.6984,6.6004,6.6339,6.5894,6.4749,0.0,0.0,6.2915,6.3404,6.3594,6.341,6.3594,6.3791,6.4013,6.3698,6.379,6.4375,6.4432,6.474,6.5345,6.5175,6.476,6.4209,6.3932,6.3131,0.0,0.0,0.0,0.0,0.0,0.0,0.0,0.0,0.0,0.0,0.0,6.1722,6.1673,0.0,0.0,0.0,6.1682,6.1467,6.1867,6.2003,0.0,0.0,0.0,0.0,0.0,0.0,0.0,6.2883,6.2947,6.3332,6.4206,6.3313,6.2698,6.2921,6.2628,6.22,6.1636,0.0,6.1296,6.1376,6.1433,6.1473,6.1521,6.1554,6.1547,6.1578,6.2029,6.2398,6.2445,6.2935,6.3259,6.3222,6.2843,6.2498,6.2498,6.2031,6.1718,6.1715,6.1666,6.1652,6.1681,6.1305,6.0993,7.7908,7.6657,7.1608,6.9141,6.8694,7.0241,7.0652,7.0398,7.2699,7.2702,7.1231,7.2024,7.1754,7.0624,7.0332,0.0,6.8359,6.9088,6.9543,6.9821,6.9783,7.0167,7.086,7.0167,6.9744,6.9667,6.8799,6.8415,6.834,6.8237,6.8202,6.8268,6.6575,6.5612,6.5451,6.5474,6.5808,6.6374,6.5753,6.5715,6.6273,6.5604,6.5264,6.5298,6.5305,6.5337,6.5456,6.4819,6.4472,6.4579,6.3733,6.2818,6.2,0.0,0.0,0.0,0.0,0.0,0.0,0.0,0.0,0.0,0.0,0.0,0.0,0.0,0.0,0.0,6.2132,0.0,6.365,6.3618,0.0,0.0,0.0,6.3686,6.3908,6.3886,6.3929,6.3929,0.0,0.0,6.5023,0.0,6.4916,6.4286,6.3427,6.2797,6.2536,6.2011,6.159,6.1469,6.1468,6.1512,6.1552,6.158,6.1609,6.167,6.1758,6.1916,6.1926,6.2048,6.1932,6.2127,6.1945,6.199,6.1951,6.207,6.1911,6.1984,6.1847,6.1738,6.1878,6.1346,6.0845,7.8722,7.784,7.5945,7.4735,7.4035,7.3819,7.401,7.4553,7.513,7.4769,7.3793,7.4,7.2909,7.0784,6.9456,6.9047,6.9351,6.9543,6.998,7.0591,7.0629,7.0744,7.0898,7.0706,7.0283,6.9706,6.9462,6.9032,6.8468,6.8998,6.9264,6.9177,6.9313,6.8396,6.6483,6.6964,6.7063,6.6628,6.6445,6.6131,6.5658,6.5436,6.5368,6.5383,6.5405,6.5457,6.5501,6.5454,6.5753,6.6311,6.5621,6.4808,6.3911,6.3939,0.0,0.0,0.0,0.0,0.0,0.0,0.0,0.0,0.0,6.3892,6.3747,0.0,6.3966,0.0,6.4657,6.4364,6.3922,6.3883,0.0,0.0,6.4653,6.4714,6.4854,6.4845,6.4867,6.4941,6.4986,6.5366,6.6181,6.6282,6.6273,6.6115,6.5232,6.4111,6.2842,6.2552,6.2242,6.1722,6.1554,6.1588,6.1613,6.1666,6.1672,6.1718,6.2265,6.2697,6.2701,6.3255,6.3689,6.369,6.3663,6.3669,6.3631,6.3672,6.3671,6.3626,6.3145,6.2853,6.3413,6.3317,6.3136,7.9325,7.8864,7.8069,7.7285,7.6515,7.563,7.5123,7.4938,7.574,7.5383,7.4234,7.4687,7.4096,7.2752,7.2212,7.1788,7.1556,7.1942,7.2135,7.2206,7.2142,7.2115,7.2077,7.1663,7.1245,7.0783,7.0437,6.9975,6.9552,7.0014,7.0224,7.0106,7.057,7.0031,6.8609,6.8839,6.8744,6.8289,6.7934,6.7439,6.6673,6.6643,6.643,6.604,6.6009,6.584,6.5494,6.5618,6.5866,6.6322,6.5972,6.5364,6.4525,6.4746,6.4322,0.0,0.0,0.0,0.0,0.0,0.0,0.0,0.0,0.0,0.0,0.0,6.4955,6.5482,6.5307,6.5139,6.499,6.5006,6.5215,6.5611,6.565,6.5726,6.5851,6.5884,6.5901,6.5904,6.5981,6.62,6.6668,6.6757,6.6769,6.682,6.6288,6.5411,6.4132,6.3351,6.2687,6.229,6.1914,6.1655,6.1715,6.1719,6.1836,6.2226,6.2696,6.3128,6.3484,6.3958,6.4315,6.432,6.429,6.4296,6.4297,6.4296,6.441,6.4709,6.4497,6.416,6.4125,6.4111,6.4046,8.0084,8.0015,7.9322,7.8512,7.7641,7.6871,7.5495,7.3973,7.5555,7.5388,7.4017,7.4788,7.5111,7.5182,7.5807,7.5266,7.3917,7.4613,7.4536,7.3834,7.3692,7.3708,7.3773,7.2957,7.2628,7.2698,7.1844,7.1459,7.1421,7.1228,7.1099,7.1093,7.0957,7.0871,7.0787,7.0562,7.0331,7.0111,6.9546,6.8893,6.823,6.8157,6.7737,6.6994,6.6927,6.6506,6.5738,6.5669,6.5698,6.5761,6.5691,6.5329,6.4678,6.5363,6.5408,0.0,6.5313,0.0,0.0,0.0,0.0,0.0,0.0,0.0,0.0,6.5301,6.5195,6.5109,6.5246,6.5637,6.629,6.6359,6.6423,6.6666,6.6606,6.6641,6.6824,6.6849,6.6775,6.6718,6.6773,6.6787,6.6787,6.6789,6.6791,6.6792,6.6752,6.6434,6.5659,6.417,6.312,6.3026,6.2365,6.1942,6.199,6.2031,6.2384,6.301,6.3363,6.36,6.4351,6.459,6.4671,6.4677,6.4761,6.4726,6.4647,6.4682,6.4906,6.5591,6.5639,6.5365,6.4778,6.453,6.4345,8.2103,8.2109,8.2013,8.1124,7.9704,7.9555,7.8026,7.5709,7.6163,7.6161,7.5824,7.5392,7.5165,7.5133,7.4677,7.4276,7.3966,7.4121,7.4121,7.3966,7.3945,7.4297,7.4862,7.4724,7.496,7.5532,7.472,7.4295,7.4256,7.2931,7.2206,7.2113,7.1345,7.088,7.0717,0.0,0.0,0.0,6.9481,6.9078,6.8301,6.8191,6.8071,6.7956,6.7942,0.0,6.6699,6.6622,6.6657,6.6688,6.6119,0.0,0.0,0.0,0.0,0.0,0.0,0.0,0.0,0.0,0.0,0.0,6.9012,6.8857,6.8055,6.743,6.6834,6.6283,6.6238,6.6361,6.6618,6.6605,6.6941,6.7582,6.7138,6.7036,6.7712,6.721,6.6781,6.6777,6.6796,6.6806,6.6808,6.6819,6.6787,6.6787,6.6788,6.6749,6.6554,6.5049,6.3749,6.3141,6.2842,6.2772,6.2735,6.3322,6.3716,6.4113,6.4662,6.5093,6.5331,6.5927,6.636,6.632,6.6404,6.6367,6.6367,6.6361,6.6265,6.6526,6.6484,6.6434,6.6247,6.6118,6.6095,8.3433,0.0,8.3477,8.2526,0.0,8.102,7.9758,7.7661,7.732,7.6992,7.6612,7.6212,7.6018,7.6039,7.6026,7.5806,7.5457,7.5845,7.5806,7.5452,7.5365,7.5561,7.5954,7.587,7.5829,7.5802,7.5343,7.496,7.4534,7.371,7.3274,7.3203,7.2723,7.2428,7.233,7.2726,7.2005,7.0122,7.0151,6.9963,6.9606,6.9575,6.9575,6.955,0.0,0.0,0.0,0.0,0.0,0.0,0.0,0.0,0.0,0.0,0.0,6.685,6.7595,6.8287,6.8782,6.8825,6.9213,7.0157,7.0277,6.99,6.898,6.8233,6.7447,6.6675,6.6603,6.663,6.6685,6.6702,6.6874,6.7325,6.7066,6.6996,6.7315,6.7084,6.6811,6.6813,6.6819,6.6823,6.6786,6.6791,6.6799,6.6803,6.6805,6.6807,6.6733,6.5743,6.4603,6.3789,6.3638,6.364,6.3674,6.3952,6.4503,6.486,6.5294,6.5729,6.62,6.6596,6.6911,6.6911,6.6913,6.6874,6.6824,6.6812,6.6792,6.6693,6.6634,6.6582,6.6591,6.662,6.6591,8.4482,8.452,8.4676,8.3711,8.2135,8.2251,8.1243,7.9429,0.0,0.0,0.0,7.699,7.6912,7.6947,7.7768,7.7772,7.7188,7.7966,7.7966,7.7379,7.7233,7.7196,7.7188,7.7078,7.6648,7.5978,7.5794,7.5372,7.4707,7.4435,7.428,7.428,7.4111,7.4014,7.4034,7.4648,7.3783,7.1491,7.1489,7.1509,7.1422,7.1307,7.1261,7.1235,7.0468,6.9986,6.9894,6.853,6.7701,6.756,6.7521,6.7541,6.7658,6.8515,6.8944,6.8812,6.9045,6.9582,7.0378,7.0424,7.0853,7.1749,7.1209,7.0278,6.9013,6.834,6.7647,6.6795,6.6722,6.6695,6.672,6.6726,6.6742,6.6814,6.6819,6.6787,6.6798,6.6801,6.6841,6.6802,6.6803,6.6802,6.6843,6.6843,6.6806,6.6813,6.6815,6.6857,6.6785,6.6115,6.5209,6.4389,6.4351,6.4545,6.4542,6.4779,6.5019,6.5726,6.5848,6.6087,6.6677,6.6913,6.6875,6.6874,6.6873,6.6822,6.6703,6.6727,6.6699,6.6528,6.6496,6.6488,6.6454,6.6535,6.6542,8.5577,8.5655,8.6394,8.5719,8.4198,8.4202,8.2822,8.0474,7.889,7.8104,7.7962,7.7287,7.6969,7.6943,7.7868,7.8231,7.8153,7.8932,7.9244,0.0,7.9118,7.9098,7.9113,7.9095,7.8995,7.8773,7.8027,7.7638,7.7365,7.6082,7.5346,7.5261,7.4502,7.4079,7.4,7.4107,7.3966,7.3566,7.4165,7.4137,7.3419,7.2601,7.2192,7.2159,7.1385,7.0579,6.9904,6.9677,6.9234,6.8554,6.8515,6.8591,6.8855,6.9687,6.9894,6.9314,6.9949,7.0436,7.0585,7.0549,7.0954,7.1761,7.1766,7.0729,6.8413,6.8065,6.7655,6.6819,6.6763,6.6783,6.6803,6.6778,6.6787,6.6794,6.6802,6.6808,6.6811,6.6856,6.686,6.69,6.6861,6.69,6.686,6.686,6.69,6.6901,6.6863,6.6904,6.6791,6.616,6.5291,6.4626,6.4939,6.5333,6.5453,6.6081,6.6397,6.6675,6.6676,6.6678,6.6836,6.6872,6.6826,6.6821,6.6763,6.6688,6.6605,6.6551,6.6537,6.6493,6.6446,6.6407,6.6363,6.6394,6.6416,8.6572,8.6611,8.7,8.6466,8.5276,8.438,8.3306,8.2089,8.0402,7.91,7.8189,7.7383,7.699,7.7017,7.7887,7.8324,7.8324,7.9139,7.949,7.949,7.949,7.9484,7.9549,7.9975,7.9926,7.9487,7.9523,7.9091,7.8196,7.742,7.6839,7.6369,7.5871,7.6104,7.6906,7.6513,7.6513,7.6936,7.5338,7.4323,7.3917,7.305,7.2837,7.3302,7.2529,7.1991,7.1628,7.1162,7.0561,6.9752,6.9716,6.9784,6.9921,7.0722,7.106,7.0746,7.1073,7.1321,7.1291,7.0864,7.0752,7.115,7.0762,7.0247,6.9484,6.8986,6.8178,6.6902,6.6764,6.682,6.6796,6.6802,6.6808,6.6853,6.6856,6.686,6.6825,6.6864,6.6904,6.6907,6.6906,6.6903,6.6903,6.6903,6.6905,6.6907,6.691,6.6912,6.6911,6.6557,6.6201,6.585,6.6084,6.6279,6.6318,6.6594,6.6871,6.6913,6.6914,6.6914,6.6911,6.6864,6.6815,6.676,6.6696,6.6648,6.6555,6.65,6.6471,6.6342,6.6342,6.6322,6.6284,6.6284,6.6307,8.7332,8.7495,8.73,8.6757,8.5909,8.4545,8.3858,8.3566,8.2123,8.063,7.9166,7.8072,7.7568,7.7643,7.8306,7.8578,7.8695,7.9436,7.9826,7.9823,8.0021,8.0099,8.0137,8.0644,8.0485,7.9901,8.0324,7.9853,7.8723,7.86,7.8243,7.7623,7.7584,7.8114,7.9179,7.8556,7.8481,7.8715,7.6136,7.4649,7.4641,7.3884,7.3799,7.4347,7.3738,7.3351,7.3373,7.2759,7.2036,7.1282,7.1173,7.1097,7.0941,7.1543,7.1904,7.1906,7.1883,7.1815,7.1587,7.1006,7.062,7.062,7.0001,6.9809,7.02,6.9787,6.8776,6.7362,6.6942,6.6801,6.6814,6.6816,6.6858,6.6904,6.6906,6.6907,6.691,6.6909,6.6909,6.6912,6.691,6.6908,6.6908,6.6908,6.6909,6.6912,6.6914,6.6914,6.6913,6.6912,6.6912,6.6912,6.6912,6.6833,6.6908,6.6872,6.6914,6.6914,6.6871,6.6863,6.6853,6.6844,6.678,6.665,6.6631,6.6563,6.6403,6.6412,6.6363,6.6259,6.6235,6.6279,6.6205,6.619,6.6239,8.7696,8.8305,8.7607,8.6805,8.6044,8.5812,8.5307,8.4569,8.3674,8.2735,8.1638,8.0081,7.9339,7.9381,7.9415,7.9449,7.9566,8.0388,8.0776,8.0854,8.1599,8.1951,8.1792,8.1209,8.0861,8.0661,8.0134,7.9812,7.9497,7.9391,7.9337,7.9256,7.9256,7.8987,7.8513,7.8396,7.7982,7.7269,7.6908,7.6732,7.6663,7.589,7.5462,7.554,7.4728,7.4263,7.423,7.4218,7.3802,7.3064,7.2929,7.2589,7.1885,7.1848,7.1889,7.1889,7.1891,7.1589,7.0905,7.0764,7.0653,7.0695,7.0549,7.0244,6.9697,6.9479,6.9047,6.8081,6.7257,6.6848,6.6861,6.6902,6.6866,6.691,6.6911,6.6911,6.6912,6.6913,6.6914,6.6914,6.6914,6.6914,6.6914,6.6914,6.6914,6.6914,6.6875,6.6875,6.6875,6.6875,6.6875,6.6875,6.6913,6.6913,6.6875,6.6913,6.6873,6.6871,6.6812,6.6747,6.6718,6.6646,6.6523,6.6546,6.6488,6.6422,6.6351,6.6292,6.6283,6.6225,6.6195,6.6195,6.6185,6.6185,6.619,8.7783,8.8495,8.7676,8.7097,8.6717,8.621,8.5829,8.5489,8.4633,8.3781,8.2973,8.2195,8.1051,7.9622,7.958,7.989,8.0397,8.0748,8.1177,8.1643,8.2036,8.2192,8.2153,8.1841,8.1685,8.1646,8.1285,8.0854,8.0344,7.9827,7.9549,7.9549,7.9547,7.9625,7.9744,7.9315,7.8891,7.8548,7.8041,7.7531,7.6975,7.6193,7.5759,7.5668,7.5367,7.494,7.4538,7.4911,7.4613,7.3363,7.3684,7.3337,7.1969,7.2373,7.2418,7.1952,7.1961,7.1581,7.0727,7.0226,7.0152,7.0659,7.0204,7.0172,7.0836,7.0456,6.9793,6.8885,6.7643,6.687,6.6912,6.6912,6.6912,6.6913,6.6913,6.6914,6.6913,6.6914,6.6914,6.6914,6.6914,6.6914,6.6914,6.6872,6.6872,6.6874,6.6873,6.6829,6.6831,6.683,6.6823,6.6809,6.6724,6.6776,6.6827,6.6863,6.6855,6.6803,6.6774,6.6732,6.6695,6.6599,6.6503,6.6446,6.6394,6.6324,6.625,6.6225,6.621,6.6185,6.6185,6.6185,6.6185,6.6185,6.6185,8.7814,8.8445,8.7904,8.7555,8.7282,8.6658,8.6279,8.6057,8.5395,8.4546,8.3543,8.3504,8.2358,8.0499,8.0107,8.0341,8.0885,8.0926,8.1238,8.1861,8.2095,8.2212,8.2212,8.2212,8.2212,8.221,8.2166,8.173,8.0868,8.0009,7.958,7.958,7.958,7.9814,8.0088,7.9541,7.9114,7.8846,7.8261,7.7641,7.7022,7.6439,7.6113,7.6047,7.61,7.579,7.5189,7.5794,7.5493,7.4049,7.4523,7.4057,7.2455,7.2899,7.2829,7.2055,7.1987,7.1605,7.0748,7.0085,7.0046,7.0554,7.0096,7.0296,7.1235,7.1046,7.0346,6.9448,6.8319,6.7578,6.6914,6.6914,6.6914,6.6914,6.6914,6.6914,6.6914,6.6914,6.6914,6.6914,6.6914,6.6875,6.6873,6.6822,6.681,6.6827,6.6817,6.6766,6.6772,6.6767,6.6749,6.6711,6.6642,6.6652,6.671,6.6702,6.672,6.6697,6.6654,6.6588,6.6606,6.651,6.6407,6.6329,6.6342,6.6324,6.623,6.6195,6.6185,6.6185,6.6185,6.6185,6.6185,6.6185,6.6185,8.7824,8.8548,8.8607,8.8144,8.7402,8.7363,8.6856,8.6194,8.6118,8.5143,8.3699,8.3543,8.2996,8.2054,8.1274,8.0965,8.1041,8.1078,8.1117,8.1274,8.1937,8.229,8.229,8.229,8.229,8.2285,8.2232,8.1785,8.0946,8.0124,7.9576,7.9658,7.9739,7.9307,7.8802,7.8688,7.8031,7.7539,7.7385,7.7158,7.7095,7.7059,7.6965,7.6893,7.6928,7.6852,7.6811,7.6944,7.6566,7.5709,7.5685,7.4951,7.3427,7.3232,7.285,7.2119,7.2004,7.1619,7.0885,7.0651,7.0652,7.0731,7.0657,7.066,7.0933,7.0897,7.0469,6.9609,6.9414,6.8672,6.7342,6.7108,6.6991,6.6914,6.6914,6.6914,6.6914,6.6914,6.6914,6.6914,6.6875,6.6833,6.6787,6.6751,6.6736,6.679,6.6736,6.6716,6.6693,6.6723,6.6703,6.6681,6.6639,6.6608,6.6595,6.6595,6.6538,6.6552,6.653,6.6408,6.6381,6.632,6.6259,6.6215,6.623,6.6225,6.6195,6.6185,6.6185,6.6185,6.6185,6.6185,6.6185,6.6185,6.6185,8.7546,8.7904,8.8458,8.8226,8.7484,8.7991,8.772,8.7017,8.7525,8.6471,8.4595,8.4323,8.3582,8.2253,8.1981,8.1825,8.1825,8.1825,8.1825,8.1864,8.2136,8.2292,8.2292,8.2292,8.2292,8.2292,8.2287,8.2124,8.1844,8.1492,8.1336,8.1336,8.1336,8.0907,8.0167,8.0011,7.9351,7.8107,7.7952,7.7681,7.714,7.7101,7.7095,7.7046,7.7045,7.7077,7.7063,7.7082,7.6702,7.5845,7.6319,7.5618,7.3549,7.2776,7.2352,7.2044,7.2012,7.186,7.1551,7.1005,7.0966,7.1435,7.101,7.0974,7.1404,7.1523,7.1172,7.0508,7.0273,6.9687,6.8789,6.8085,6.75,6.7031,6.6914,6.6953,6.6875,6.6872,6.6827,6.6825,6.6775,6.6755,6.6741,6.6689,6.6674,6.6725,6.6689,6.6663,6.6681,6.6665,6.6616,6.6536,6.6468,6.6446,6.6351,6.6453,6.6489,6.6468,6.6412,6.6359,6.6299,6.6269,6.621,6.62,6.6185,6.6185,6.6185,6.6185,6.6185,6.6185,6.6185,6.6185,6.6185,6.618,6.618,8.8226,8.8304,8.8852,8.8618,8.7913,8.8421,8.8226,8.7484,8.772,8.6978,8.5727,8.5338,8.4714,8.397,8.366,8.3543,8.3386,8.2721,8.2292,8.2292,8.2292,8.2292,8.2292,8.2292,8.2292,8.2253,8.1981,8.1864,8.1825,8.1591,8.1474,8.1433,8.1472,8.1044,8.0304,8.0148,7.9406,7.8235,7.7962,7.7648,7.714,7.7101,7.7101,7.7101,7.7106,7.7104,7.7092,7.7107,7.6843,7.6413,7.6804,7.6061,7.3953,7.2906,7.2286,7.2055,7.1982,7.1985,7.1947,7.144,7.1362,7.1909,7.1482,7.1405,7.1952,7.1992,7.168,7.125,7.1094,7.0781,6.9998,6.9333,6.8631,6.789,6.7695,6.7578,6.7342,6.7255,6.7085,6.6834,6.6716,6.6685,6.6672,6.6605,6.6608,6.6677,6.6602,6.6558,6.6627,6.6594,6.6525,6.641,6.6403,6.6358,6.6288,6.636,6.6385,6.636,6.6368,6.6285,6.6253,6.6225,6.619,6.6185,6.6185,6.6185,6.6185,6.6185,6.6185,6.618,6.6185,6.6185,6.6175,6.6165,6.6155,8.9947,8.9869,8.9986,8.9398,8.8657,8.8774,8.8265,8.7367,8.6784,8.6903,8.6981,8.6472,8.6477,8.6825,8.6008,8.5888,8.5382,8.3549,8.2531,8.245,8.2331,8.2292,8.2292,8.2295,8.2296,8.2298,8.1516,8.1164,8.1203,8.0696,8.0304,7.999,8.0187,7.9956,7.8588,7.8825,7.8197,7.7496,7.7302,7.7184,7.7103,7.7106,7.7106,7.7106,7.7117,7.7084,7.7083,7.7093,7.7057,7.7019,7.7058,7.6316,7.4752,7.3699,7.2921,7.2339,7.2067,7.1991,7.207,7.1992,7.1875,7.1992,7.1953,7.1875,7.1953,7.1992,7.1953,7.1875,7.1836,7.156,7.0802,7.0522,7.01,6.9492,6.9101,6.8789,6.8303,6.8062,6.7737,6.698,6.6717,6.6647,6.6638,6.6575,6.6538,6.6572,6.6521,6.6462,6.6503,6.6497,6.6411,6.6381,6.6349,6.6307,6.6284,6.6269,6.6215,6.62,6.6225,6.6215,6.623,6.6185,6.6185,6.6185,6.6185,6.6185,6.618,6.618,6.6165,6.6165,6.617,6.616,6.6139,6.6118,6.6107,9.057,9.0025,8.9986,8.9477,8.8852,8.932,8.8774,8.7603,8.8318,8.8285,8.7583,8.7748,8.7751,8.7244,8.6502,8.6111,8.5956,8.4666,8.3759,8.3157,8.2606,8.2332,8.2334,8.2343,8.2314,8.236,8.2674,8.2475,8.2037,8.2153,8.2114,8.1605,8.1449,8.1026,8.0135,7.9588,7.8846,7.8027,7.7402,7.709,7.709,7.7089,7.709,7.7091,7.7137,7.7139,7.7095,7.7097,7.7098,7.7098,7.7098,7.659,7.5498,7.4095,7.3472,7.363,7.2616,7.2304,7.2734,7.2344,7.2031,7.1992,7.1992,7.1992,7.1992,7.2031,7.203,7.1987,7.1944,7.1737,7.1556,7.1459,7.0836,6.948,6.9326,6.9326,6.8954,6.8373,6.7881,6.7492,6.6934,6.6609,6.6574,6.652,6.6535,6.657,6.6524,6.6489,6.6489,6.6445,6.6394,6.6345,6.6317,6.6288,6.6225,6.6244,6.6195,6.6185,6.6185,6.6185,6.6185,6.6185,6.6185,6.6185,6.6185,6.6185,6.618,6.6165,6.6144,6.6118,6.6102,6.6085,6.6069,6.6058,6.6047,9.223,9.1449,9.1097,9.0276,8.93,8.9807,8.9222,8.8206,8.9388,8.9548,8.9003,8.9047,8.9284,8.8972,8.7761,8.7292,8.737,8.6081,8.5216,8.4695,8.3326,8.2818,8.2858,8.3139,8.3263,8.3346,8.3816,8.3814,8.3299,8.3454,8.3298,8.283,8.2478,8.1817,8.1042,8.0456,7.9754,7.8934,7.8387,7.8075,7.7996,7.7762,7.7606,7.7568,7.7336,7.7336,7.7528,7.7569,7.7454,7.7219,7.7143,7.6871,7.6324,7.5076,7.4374,7.4296,7.3711,7.3242,7.3633,7.3008,7.2461,7.2461,7.2459,7.2265,7.2148,7.2148,7.2323,7.196,7.1871,7.1852,7.1809,7.1787,7.1217,7.0319,7.0264,7.0076,6.9704,6.8888,6.8387,6.8128,6.7526,6.7091,6.6975,6.6625,6.6555,6.6535,6.6501,6.6465,6.6449,6.6403,6.6379,6.6332,6.624,6.6215,6.6195,6.6185,6.6185,6.6185,6.6185,6.6185,6.6185,6.6185,6.6185,6.6185,6.6185,6.6185,6.618,6.6139,6.6107,6.6074,6.6041,6.6036,6.603,6.6034,6.6017,9.4556,9.3736,9.2993,9.1547,9.0062,9.0101,8.9632,8.9008,8.9635,9.0338,9.069,9.0146,9.0692,9.1434,8.9482,8.8935,8.9324,8.7451,8.6514,8.6278,8.5027,8.3973,8.3777,8.4285,8.456,8.4679,8.4874,8.4873,8.4559,8.4207,8.37,8.3621,8.2879,8.2059,8.1436,8.1122,8.0538,7.9836,7.964,7.9523,7.9483,7.8898,7.8468,7.8468,7.7844,7.7765,7.835,7.8471,7.8121,7.7497,7.7539,7.75,7.7187,7.6484,7.5703,7.5039,7.4765,7.4609,7.4492,7.3867,7.3359,7.332,7.3147,7.2861,7.2312,7.2445,7.2457,7.1897,7.1813,7.1782,7.1719,7.1722,7.1598,7.1571,7.141,7.1151,7.0521,6.972,6.9236,6.8991,6.8447,6.7864,6.7822,6.7235,6.692,6.6831,6.6825,6.6872,6.6837,6.6873,6.6525,6.6544,6.6742,6.6582,6.665,6.6224,6.6224,6.6185,6.6185,6.6185,6.6185,6.6185,6.6185,6.6185,6.6175,6.6175,6.6155,6.6102,6.6069,6.6041,6.6019,6.6007,6.6017,6.5976,6.5996,9.4243,9.3032,9.3385,9.2173,9.0259,9.065,9.0455,8.9714,8.9876,9.0268,9.0268,9.0115,9.0273,9.0547,9.0,8.9491,8.8906,8.8281,8.7304,8.664,8.664,8.5662,8.48,8.48,8.4997,8.5116,8.5742,8.5506,8.4957,8.5386,8.5191,8.4527,8.3745,8.3161,8.2851,8.1679,8.0937,8.0585,8.0,7.9765,7.9765,7.9531,7.9374,7.9335,7.91,7.9099,7.9331,7.9371,7.9295,7.9101,7.9062,7.875,7.8242,7.789,7.7265,7.6523,7.5859,7.5506,7.5341,7.4673,7.4194,7.4047,7.3605,7.3046,7.2812,7.237,7.2108,7.1809,7.1783,7.174,7.1704,7.168,7.1611,7.1564,7.1614,7.1536,7.1186,7.0524,6.9994,6.9878,6.9218,6.8791,6.8588,6.8377,6.8127,6.8118,6.8096,6.803,6.7842,6.7852,6.7681,6.7738,6.781,6.7423,6.7036,6.6495,6.6224,6.6185,6.6185,6.6185,6.6185,6.6185,6.6185,6.6185,6.6149,6.6139,6.6096,6.6041,6.6057,6.6034,6.5982,6.5946,6.5927,6.5929,6.5929,9.437,9.3159,9.3316,9.226,9.0698,9.1089,9.0816,9.0269,9.0779,9.0624,9.0155,9.0,9.0,8.9961,8.9258,8.8906,8.8672,8.8359,8.7851,8.7539,8.7734,8.7383,8.6757,8.6796,8.7031,8.707,8.75,8.75,8.7147,8.7225,8.6952,8.6327,8.4921,8.4179,8.4023,8.2461,8.1562,8.1484,8.1015,8.0781,8.0781,8.0429,8.0234,8.0156,7.9961,7.9803,8.0192,8.0584,8.0663,8.0273,7.9922,7.9609,7.9487,7.8745,7.8195,7.7599,7.6817,7.6339,7.6166,7.5493,7.5049,7.4897,7.4402,7.3982,7.3612,7.3005,7.2718,7.227,7.217,7.2135,7.2129,7.2068,7.1872,7.1581,7.1499,7.1513,7.1571,7.1114,7.0838,7.0605,7.0101,6.9519,6.948,6.9182,6.8974,6.8848,6.8684,6.8694,6.867,6.8839,6.8857,6.8788,6.8617,6.8197,6.781,6.7346,6.6833,6.6678,6.6175,6.6175,6.617,6.617,6.6165,6.6155,6.6123,6.6085,6.6041,6.6034,6.6011,6.6008,6.5941,6.591,6.5904,6.5904,6.5897,9.457,9.3711,9.3008,9.2187,9.1367,9.1406,9.1133,9.0703,9.164,9.1484,9.0429,9.0078,8.9883,8.9804,8.8789,8.8164,8.8515,8.8086,8.8203,8.832,8.8594,8.8476,8.8632,8.8828,8.8984,8.9023,8.9648,8.9453,8.8828,8.8515,8.8476,8.7695,8.6054,8.5234,8.4804,8.3437,8.2617,8.2422,8.2148,8.1992,8.1875,8.1445,8.1172,8.1094,8.0859,8.0703,8.1211,8.1796,8.1991,8.1133,8.0351,8.0383,8.0634,7.9303,7.8546,7.8199,7.7647,7.7289,7.688,7.6173,7.5808,7.5738,7.5596,7.5231,7.4444,7.3988,7.3531,7.2947,7.2851,7.2866,7.2851,7.2836,7.2439,7.1959,7.1663,7.159,7.1465,7.148,7.1485,7.1485,7.0753,7.0404,7.0132,6.9697,6.9222,6.9803,6.9638,6.9657,6.968,6.9704,6.9649,6.9479,6.9241,6.897,6.8584,6.8197,6.7717,6.7286,6.6469,6.6155,6.6144,6.6139,6.6134,6.6112,6.6074,6.6041,6.604,6.5999,6.6002,6.5972,6.5923,6.591,6.5904,6.5904,6.5897,9.3672,9.2929,9.3437,9.2734,9.1523,9.2031,9.2187,9.1992,9.1679,9.1445,9.0898,9.0312,8.9648,8.9023,8.9101,8.8906,8.8008,8.8125,8.8594,8.863,8.8669,8.9097,8.937,8.9257,8.8672,8.8515,8.875,8.8711,8.8281,8.8281,8.7812,8.7773,8.7422,8.6562,8.5781,8.4844,8.3945,8.3358,8.2693,8.2419,8.2455,8.222,8.2064,8.2103,8.2416,8.2371,8.2163,8.2783,8.2772,8.2097,8.1673,8.1317,8.1012,8.1004,8.0092,7.8745,7.8626,7.8257,7.7119,7.666,7.6543,7.6369,7.5866,7.5331,7.5091,7.4407,7.4024,7.3738,7.3738,7.3674,7.3638,7.3633,7.3191,7.2622,7.2297,7.2054,7.1528,7.141,7.143,7.1353,7.1275,7.1125,7.1082,7.0891,7.0648,7.0749,7.0705,7.0733,7.065,7.0529,7.0407,7.0208,7.0015,6.9744,6.9545,6.8999,6.8237,6.7641,6.6819,6.614,6.6129,6.6107,6.6096,6.6069,6.603,6.599,6.5988,6.5946,6.5935,6.5923,6.5916,6.591,6.5904,6.5904,6.5833,9.328,9.3202,9.3281,9.3008,9.2578,9.2578,9.2578,9.25,9.2148,9.1679,9.1288,9.0741,8.992,8.8786,8.9098,8.8594,8.777,8.7848,8.8081,8.8079,8.8078,8.8311,8.8739,8.8822,8.8591,8.863,8.9101,8.9176,8.9176,8.8825,8.9023,8.9137,8.8473,8.7578,8.6755,8.5895,8.4995,8.4212,8.3391,8.3077,8.3425,8.3112,8.319,8.3464,8.3932,8.3926,8.3606,8.3441,8.3254,8.2782,8.2331,8.193,8.1438,8.1388,8.0431,7.9201,7.8564,7.8185,7.7065,7.6691,7.6691,7.6672,7.6192,7.6002,7.5695,7.5059,7.4617,7.4524,7.4508,7.4497,7.447,7.4464,7.406,7.3353,7.2839,7.2413,7.1955,7.1595,7.1378,7.1378,7.134,7.1301,7.1324,7.1308,7.1264,7.1004,7.1004,7.1031,7.1031,7.0949,7.1065,7.0905,7.0755,7.0595,7.0435,6.9756,6.8718,6.7956,6.7161,6.6499,6.6117,6.6107,6.6063,6.6019,6.6005,6.597,6.5966,6.5923,6.5904,6.5904,6.5904,6.5904,6.5904,6.5904,6.5808,9.3043,9.3669,9.3046,9.3242,9.3711,9.3125,9.2851,9.2812,9.2656,9.2148,9.1638,9.152,9.0658,8.9441,8.9284,8.8658,8.8073,8.7918,8.8191,8.7914,8.8188,8.8146,8.8223,8.8693,8.9279,8.9944,8.9675,8.991,8.9949,9.0026,8.9209,9.0104,8.9439,8.8153,8.7332,8.6705,8.5885,8.5063,8.4242,8.4006,8.4473,8.4081,8.4159,8.4511,8.4941,8.4857,8.4535,8.4127,8.3623,8.334,8.2479,8.2049,8.1773,8.1299,8.0403,7.9457,7.8738,7.7948,7.7181,7.6759,7.6632,7.6607,7.6563,7.6531,7.6256,7.5852,7.5448,7.5343,7.5326,7.5326,7.527,7.532,7.4889,7.4148,7.3303,7.28,7.2452,7.1833,7.1374,7.1297,7.1308,7.1308,7.1308,7.1297,7.1291,7.1291,7.1291,7.1291,7.1291,7.1291,7.1291,7.1291,7.1098,7.096,7.0833,7.0269,6.9231,6.8594,6.7716,6.7058,6.6503,6.6438,6.6423,6.6065,6.5984,6.596,6.5941,6.591,6.5904,6.5904,6.5904,6.5904,6.5904,6.5904,6.5801,9.2692,9.2848,9.3437,9.3789,9.3867,9.3711,9.3594,9.3554,9.2851,9.2539,9.2379,9.234,9.175,9.0963,9.0845,9.0337,8.9476,8.9162,8.8964,8.8685,8.8917,8.8991,8.8711,8.9219,8.9803,8.9729,8.9428,8.8969,8.85,8.7917,8.8343,8.8267,8.8579,8.8266,8.7602,8.7174,8.6777,8.5913,8.509,8.4813,8.4963,8.4917,8.4801,8.5152,8.562,8.5525,8.4945,8.4535,8.4023,8.3263,8.2276,8.1868,8.1786,8.163,8.1018,8.0133,7.9342,7.8512,7.7759,7.6989,7.6664,7.6515,7.6538,7.6477,7.6399,7.6266,7.6067,7.6061,7.6088,7.6127,7.6171,7.6049,7.574,7.4966,7.4115,7.338,7.2684,7.191,7.133,7.1291,7.1291,7.1291,7.1291,7.1291,7.128,7.128,7.1269,7.1275,7.1275,7.128,7.128,7.1286,7.1253,7.1181,7.1108,7.0461,6.9693,6.9378,6.8641,6.7878,6.7378,6.7045,6.6808,6.6442,6.6114,6.596,6.5935,6.591,6.5904,6.5904,6.5904,6.5897,6.5904,6.5897,6.5891,9.3504,9.386,9.3435,9.3788,9.4336,9.3594,9.3242,9.3163,9.2772,9.2574,9.2606,9.2563,9.2128,9.1494,9.1295,9.0827,9.0164,8.946,8.9339,8.9372,8.9332,8.9486,8.9361,8.9869,8.9947,8.9911,8.9534,8.915,8.8641,8.782,8.7704,8.8132,8.8524,8.8251,8.7742,8.7858,8.7505,8.6756,8.5975,8.5698,8.6075,8.61,8.6057,8.6222,8.6387,8.6397,8.5991,8.4835,8.4311,8.3623,8.2461,8.2106,8.2045,8.1817,8.1263,8.0511,7.9936,7.9344,7.8508,7.7689,7.7202,7.7069,7.6753,7.6471,7.6409,7.6365,7.6403,7.6403,7.6403,7.6403,7.6365,7.6403,7.6165,7.5662,7.4695,7.3806,7.3109,7.2065,7.1601,7.1369,7.1291,7.1291,7.1291,7.1286,7.1275,7.1264,7.1253,7.1253,7.1253,7.1247,7.1247,7.1241,7.1236,7.1201,7.116,7.075,7.018,6.9874,6.9547,6.8783,6.8187,6.7866,6.7327,6.6795,6.6468,6.6288,6.5929,6.5904,6.5904,6.5897,6.5891,6.5891,6.5897,6.5897,6.5885,9.4115,9.4477,9.3352,9.3669,9.4608,9.3476,9.2889,9.2808,9.269,9.2605,9.2588,9.2546,9.2228,9.1707,9.1508,9.1157,9.0415,8.9869,8.9986,9.0103,8.9986,8.9947,9.0142,9.0454,9.0649,9.0767,9.0378,9.0064,8.9247,8.8348,8.811,8.8113,8.8346,8.8149,8.7682,8.792,8.7835,8.7445,8.682,8.6779,8.7188,8.7319,8.7299,8.7326,8.7205,8.7085,8.6783,8.5307,8.4522,8.3796,8.2808,8.1985,8.2601,8.2154,8.149,8.0868,8.0493,7.9844,7.9052,7.815,7.7465,7.7183,7.6713,7.6481,7.6403,7.6403,7.6403,7.6403,7.6403,7.6403,7.6403,7.6403,7.6359,7.6094,7.5082,7.4077,7.369,7.2916,7.191,7.164,7.1441,7.1319,7.128,7.1264,7.1247,7.1241,7.123,7.1195,7.1195,7.1184,7.1178,7.1172,7.1154,7.1118,7.1087,7.1056,7.0607,7.0285,7.0092,6.9642,6.9135,6.8706,6.809,6.7552,6.7167,6.6949,6.6404,6.5897,6.5885,6.5878,6.5878,6.5872,6.5859,6.5859,6.5859,9.3446,9.2981,9.3499,9.3855,9.4052,9.3779,9.37,9.3582,9.2878,9.2598,9.2584,9.2584,9.2499,9.2291,9.2287,9.2248,9.2053,9.1702,9.1311,9.1155,9.135,9.1311,9.1311,9.1936,9.1897,9.1782,9.135,9.0257,8.9398,8.8774,8.8148,8.7874,8.7757,8.7484,8.7484,8.764,8.7484,8.7404,8.7244,8.718,8.7208,8.7184,8.7141,8.7093,8.704,8.7024,8.6786,8.5334,8.4339,8.4071,8.252,8.2044,8.2599,8.2754,8.2632,8.2096,8.1162,7.9885,7.9144,7.8332,7.7525,7.7061,7.6519,7.6403,7.6558,7.6674,7.6674,7.6403,7.6442,7.6403,7.6403,7.6403,7.6403,7.6088,7.5469,7.496,7.4612,7.3512,7.2545,7.1982,7.181,7.1485,7.1302,7.1236,7.1213,7.1213,7.1201,7.1166,7.1136,7.1124,7.1118,7.1106,7.1081,7.1043,7.1024,7.0992,7.0895,7.0624,7.0495,7.036,6.9937,6.943,6.9045,6.8552,6.8122,6.7507,6.6859,6.6391,6.6019,6.5852,6.5852,6.5826,6.58,6.5807,6.5813,9.5076,9.4656,9.3608,9.3731,9.4399,9.3579,9.3147,9.3103,9.2789,9.2587,9.2575,9.2535,9.253,9.2523,9.2484,9.2482,9.2404,9.2092,9.1975,9.1819,9.1936,9.1897,9.2053,9.2326,9.2484,9.2404,9.2092,9.1467,9.0257,8.9162,8.8421,8.8148,8.7677,8.7445,8.7438,8.7404,8.7345,8.7275,8.7189,8.7141,8.7096,8.7055,8.7024,8.7003,8.6904,8.6909,8.6467,8.518,8.4266,8.3882,8.2457,8.2238,8.2857,8.278,8.2355,8.3367,8.189,8.0614,7.9763,7.8873,7.8022,7.7216,7.679,7.6635,7.7022,7.7525,7.7525,7.7177,7.7132,7.6939,7.6514,7.6403,7.6403,7.6165,7.5684,7.538,7.4949,7.403,7.3124,7.2631,7.2105,7.1736,7.1367,7.1207,7.1178,7.1148,7.1136,7.1106,7.1075,7.105,7.105,7.1043,7.1011,7.0965,7.0952,7.0939,7.0939,7.0758,7.0758,7.0629,7.0552,7.0206,6.9783,6.9475,6.9129,6.8398,6.7436,6.6891,6.6609,6.6237,6.582,6.5838,6.585,6.5701,6.5694,9.6395,9.6172,9.4103,9.3836,9.4625,9.3415,9.2786,9.2581,9.258,9.2535,9.2527,9.2484,9.2484,9.2484,9.2484,9.2484,9.2482,9.1858,9.2014,9.2092,9.2014,9.2014,9.2287,9.2484,9.2484,9.2482,9.2443,9.2014,9.1267,9.0243,8.9337,8.8966,8.8164,8.7809,8.7612,8.7431,8.7234,8.7147,8.7078,8.7015,8.6959,8.6899,8.688,8.6879,8.6799,8.6741,8.6493,8.5051,8.4146,8.3811,8.2438,8.2193,8.3089,8.2703,8.2509,8.3128,8.2316,8.1271,8.0376,7.9486,7.8757,7.7867,7.7332,7.7177,7.7951,7.868,7.8834,7.8028,7.7674,7.732,7.6844,7.6567,7.635,7.6157,7.5847,7.555,7.5241,7.4548,7.3796,7.3166,7.2556,7.1806,7.1477,7.1237,7.1142,7.1087,7.1062,7.1043,7.1018,7.0985,7.0979,7.0985,7.0965,7.0925,7.0919,7.0905,7.0898,7.0885,7.0885,7.0853,7.0738,7.0706,7.0475,7.0206,6.9975,6.941,6.855,6.7878,6.7199,6.673,6.6306,6.601,6.5868,6.5782,6.5632,9.6425,9.631,9.5334,9.4516,9.3932,9.3813,9.3228,9.2527,9.2525,9.2525,9.2484,9.2484,9.2484,9.2484,9.2484,9.2484,9.2484,9.2443,9.2443,9.2443,9.2443,9.2365,9.2484,9.2484,9.2482,9.2482,9.2473,9.2432,9.2153,9.1231,9.0442,8.9854,8.8971,8.856,8.8062,8.7464,8.7106,8.7019,8.6968,8.6904,8.6835,8.6805,8.676,8.6674,8.6649,8.6584,8.6513,8.5004,8.4114,8.4024,8.2432,8.1961,8.278,8.2548,8.2625,8.278,8.2664,8.162,8.0646,8.0027,7.926,7.8254,7.7835,7.8105,7.8796,7.895,7.895,7.8873,7.8358,7.776,7.7304,7.6848,7.6378,7.6224,7.6037,7.5998,7.5728,7.5323,7.457,7.3772,7.3149,7.2566,7.1853,7.1685,7.1203,7.112,7.1011,7.0985,7.0959,7.0932,7.0925,7.0919,7.0919,7.0905,7.0905,7.0891,7.0871,7.0857,7.085,7.0864,7.0846,7.0846,7.0794,7.0744,7.043,7.0043,6.9708,6.9036,6.8313,6.7395,6.6862,6.6706,6.6486,6.6375,6.6078,9.6699,9.7128,9.6269,9.5098,9.381,9.381,9.3302,9.2601,9.2484,9.2484,9.2484,9.2484,9.2484,9.2484,9.2484,9.2484,9.2484,9.2484,9.2482,9.2484,9.2484,9.2484,9.2484,9.2481,9.2482,9.2471,9.2446,9.2381,9.2253,9.1775,9.1668,9.0932,8.9858,8.892,8.8285,8.7543,8.705,8.6884,8.6821,8.6714,8.6723,8.6686,8.6649,8.6623,8.6603,8.6603,8.6377,8.4953,8.4327,8.367,8.2387,8.2277,8.2509,8.2316,8.2316,8.2548,8.2355,8.1697,8.1072,8.0492,7.9647,7.9028,7.895,7.937,7.9718,8.0143,8.0105,7.9712,7.8908,7.8219,7.7599,7.6867,7.6295,7.6276,7.6263,7.6263,7.609,7.5684,7.5163,7.4276,7.4011,7.3654,7.2922,7.2204,7.1608,7.1114,7.1004,7.0932,7.0912,7.0898,7.0898,7.0898,7.0898,7.0898,7.0898,7.0871,7.0836,7.0822,7.0808,7.0815,7.0829,7.0836,7.0791,7.0864,7.0885,7.0536,7.0246,7.0053,6.9348,6.8199,6.7742,6.7616,6.7365,6.6998,6.6694,9.6855,9.6933,9.6816,9.5762,9.4278,9.4161,9.3537,9.2601,9.2484,9.2484,9.2484,9.2484,9.2484,9.2484,9.2484,9.2518,9.2514,9.2512,9.2512,9.2512,9.2512,9.2468,9.2459,9.241,9.2391,9.2378,9.2294,9.2242,9.2235,9.2113,9.1947,9.153,9.0863,8.9916,8.8969,8.7769,8.7169,8.7084,8.6745,8.6642,8.661,8.6616,8.6616,8.6603,8.6603,8.6603,8.6177,8.5101,8.4405,8.3786,8.2935,8.2161,8.2161,8.2161,8.1968,8.1968,8.1929,8.1536,8.1304,8.0685,8.0111,7.9956,7.984,8.0215,8.066,8.1118,8.0912,8.0531,7.9533,7.86,7.7878,7.7023,7.6269,7.6159,7.6192,7.6192,7.6172,7.5882,7.5399,7.4762,7.4546,7.4172,7.292,7.2048,7.1632,7.1145,7.0977,7.0919,7.0905,7.0898,7.0898,7.0898,7.0898,7.0898,7.0891,7.0895,7.0892,7.0794,7.0779,7.0743,7.0743,7.0758,7.0787,7.0822,7.0836,7.0822,7.0671,7.0383,6.9692,6.8855,6.8505,6.8102,6.7835,6.7499,6.7424,9.6619,9.5449,9.6853,9.6502,9.4938,9.5059,9.4081,9.2594,9.252,9.2522,9.2482,9.2484,9.2522,9.2522,9.252,9.2512,9.2496,9.2496,9.2492,9.2483,9.2444,9.2422,9.2351,9.2285,9.2263,9.2147,9.2113,9.2109,9.2104,9.1954,9.1922,9.187,9.1455,9.0959,9.0369,8.8778,8.7938,8.7738,8.7035,8.6803,8.6603,8.6603,8.6603,8.6603,8.6603,8.6603,8.6255,8.4985,8.4405,8.4366,8.2619,8.2006,8.2355,8.189,8.1652,8.1613,8.1613,8.1497,8.1459,8.0646,8.0646,8.0905,8.0666,8.0647,8.1143,8.1394,8.1342,8.0883,7.9839,7.8949,7.8111,7.7306,7.6707,7.643,7.651,7.6394,7.6412,7.6083,7.5569,7.5324,7.4868,7.4245,7.2818,7.1752,7.1437,7.1129,7.0975,7.093,7.107,7.1108,7.1178,7.1052,7.1052,7.1014,7.1038,7.0944,7.0909,7.0811,7.0743,7.0714,7.0707,7.0736,7.0765,7.0794,7.0779,7.0758,7.073,7.0609,7.0003,6.939,6.8816,6.8433,6.8197,6.8174,6.8265,9.5054,9.5017,9.5054,9.4703,9.4276,9.4877,9.4094,9.268,9.2496,9.251,9.2522,9.2484,9.2514,9.251,9.2512,9.2505,9.2515,9.2505,9.2498,9.2372,9.2387,9.2298,9.221,9.2168,9.2143,9.2091,9.203,9.1949,9.1949,9.1861,9.1767,9.1746,9.17,9.1261,9.0404,8.926,8.8582,8.8002,8.7531,8.7222,8.6719,8.668,8.6719,8.6719,8.6719,8.668,8.6564,8.5101,8.4482,8.4443,8.258,8.189,8.2045,8.1575,8.1536,8.1497,8.1497,8.1497,8.1497,8.1182,8.1163,8.1259,8.1201,8.1021,8.1294,8.1326,8.1305,8.1084,8.0148,7.9517,7.9243,7.8462,7.7894,7.774,7.7631,7.7141,7.6888,7.6335,7.5851,7.5813,7.5505,7.5043,7.3937,7.2801,7.2262,7.2205,7.216,7.1814,7.1768,7.1667,7.1667,7.1378,7.1283,7.1245,7.1185,7.1276,7.1103,7.0959,7.0829,7.073,7.0737,7.0745,7.0736,7.0765,7.0729,7.0692,7.0647,7.0531,7.0377,6.9948,6.9444,6.9314,6.9367,6.9436,6.9505,9.4287,9.4521,9.4287,9.3772,9.3457,9.4222,9.3756,9.2654,9.251,9.249,9.2498,9.25,9.2494,9.2488,9.249,9.2483,9.2482,9.2407,9.2368,9.2253,9.2245,9.2139,9.2064,9.202,9.2009,9.1977,9.1894,9.1843,9.1843,9.1753,9.1698,9.173,9.1716,9.1413,9.0762,9.0059,8.9395,8.8931,8.8621,8.8157,8.777,8.7615,8.7615,8.7499,8.7338,8.7106,8.6603,8.5681,8.4482,8.3979,8.3051,8.1968,8.1852,8.1652,8.1575,8.1497,8.1497,8.1497,8.1497,8.1497,8.1388,8.1368,8.1394,8.1347,8.1277,8.1287,8.1266,8.0967,8.0352,8.009,7.9796,7.9105,7.872,7.8512,7.8082,7.759,7.716,7.6606,7.606,7.6015,7.5938,7.55,7.5101,7.424,7.3349,7.3398,7.3446,7.3,7.2478,7.2224,7.2085,7.186,7.1664,7.1657,7.1667,7.1701,7.1489,7.1145,7.0938,7.0708,7.0693,7.07,7.0699,7.0721,7.07,7.0639,7.0523,7.0421,7.0367,7.0375,7.0254,7.027,7.0538,7.0415,7.0254,9.444,9.3855,9.4597,9.3875,9.2723,9.3332,9.3229,9.2529,9.249,9.2493,9.2495,9.25,9.249,9.2487,9.2493,9.2426,9.2389,9.2257,9.2219,9.2174,9.2116,9.2014,9.1933,9.1888,9.1867,9.1779,9.1705,9.1746,9.1691,9.1723,9.1716,9.1716,9.1716,9.1561,9.1251,9.0865,9.0284,8.9859,8.9472,8.9047,8.8705,8.8814,8.8737,8.8582,8.8273,8.7879,8.7222,8.6145,8.5294,8.4521,8.3515,8.2935,8.2432,8.1923,8.1652,8.1497,8.1497,8.1497,8.1497,8.1497,8.1446,8.1387,8.138,8.1305,8.1227,8.1222,8.1192,8.1008,8.0546,8.0223,7.9869,7.9415,7.8999,7.8607,7.8184,7.7753,7.7407,7.6868,7.6284,7.6053,7.6015,7.5731,7.5509,7.4841,7.4149,7.4459,7.4397,7.4044,7.3484,7.2609,7.2471,7.237,7.2239,7.2169,7.2178,7.2271,7.1903,7.1605,7.0969,7.0693,7.0678,7.0662,7.067,7.0662,7.0616,7.0561,7.0467,7.0435,7.0419,7.0435,7.0459,7.0451,7.0451,7.0443,7.0359,9.3595,9.2851,9.3046,9.2844,9.2483,9.2692,9.263,9.2456,9.242,9.2429,9.2493,9.2493,9.2417,9.2313,9.2459,9.231,9.2215,9.2174,9.2102,9.2034,9.1955,9.1879,9.1799,9.1779,9.1725,9.1737,9.1716,9.1716,9.1716,9.1716,9.1716,9.1716,9.1716,9.1716,9.16,9.1445,9.0981,9.0555,9.0168,8.9859,8.9518,8.9433,8.9402,8.9247,8.9092,8.8621,8.7731,8.6416,8.541,8.4327,8.2857,8.1968,8.1845,8.1652,8.1497,8.1497,8.1497,8.1497,8.1497,8.1497,8.1453,8.136,8.1326,8.1277,8.1191,8.1169,8.1131,8.0916,8.0823,8.0592,8.0477,8.0169,7.99,7.9631,7.9092,7.8477,7.8015,7.7253,7.6669,7.6053,7.5976,7.593,7.5701,7.5286,7.4779,7.5227,7.5326,7.4927,7.442,7.3515,7.3031,7.297,7.2939,7.2954,7.2931,7.2985,7.2471,7.1988,7.1352,7.08,7.0654,7.0678,7.0624,7.0577,7.0546,7.0475,7.0427,7.0411,7.0411,7.0411,7.0427,7.0419,7.0411,7.0411,7.0411,9.2898,9.2427,9.2427,9.2427,9.2427,9.2427,9.2402,9.2419,9.2422,9.2435,9.2453,9.2453,9.2366,9.2254,9.2292,9.2246,9.2029,9.2078,9.2032,9.1944,9.1837,9.1799,9.1744,9.1716,9.1723,9.1716,9.1716,9.1716,9.1716,9.1716,9.1716,9.1716,9.1716,9.1716,9.1677,9.16,9.1406,9.1097,9.0826,9.0594,9.0323,9.013,9.0168,9.0052,8.9904,8.9201,8.835,8.688,8.5681,8.4521,8.2973,8.2426,8.2,8.1536,8.1497,8.1497,8.1497,8.1497,8.1497,8.1497,8.1433,8.136,8.1298,8.1249,8.1183,8.1154,8.1116,8.1016,8.1054,8.1054,8.1054,8.1054,8.1054,8.1016,8.0208,7.94,7.8592,7.7753,7.6984,7.6207,7.5976,7.5976,7.5777,7.5392,7.5255,7.5557,7.5656,7.5487,7.5019,7.4374,7.3968,7.3791,7.3798,7.3798,7.373,7.3507,7.3031,7.2472,7.182,7.1321,7.093,7.0609,7.0554,7.0475,7.0451,7.0427,7.0411,7.0411,7.0411,7.0411,7.0411,7.0411,7.0411,7.0411,7.0411,9.2466,9.2427,9.2427,9.2427,9.2427,9.2427,9.243,9.2427,9.2391,9.2423,9.2501,9.2537,9.2483,9.2428,9.229,9.2118,9.1983,9.1971,9.1954,9.1869,9.1773,9.1737,9.173,9.1716,9.1716,9.1716,9.1716,9.1716,9.1716,9.1716,9.1716,9.1716,9.1716,9.1716,9.1716,9.1716,9.16,9.1522,9.1484,9.1367,9.1484,9.16,9.1677,9.1445,9.0865,9.0091,8.9163,8.8041,8.6758,8.5333,8.4173,8.3515,8.231,8.1497,8.1497,8.1497,8.1497,8.1497,8.1491,8.1485,8.144,8.1374,8.1319,8.1234,8.1184,8.1131,8.11,8.1093,8.1093,8.1093,8.1093,8.1093,8.1093,8.1016,8.0554,7.9823,7.9054,7.8054,7.6962,7.63,7.597,7.597,7.5864,7.5503,7.5449,7.5764,7.5818,7.5718,7.5479,7.4988,7.4766,7.4551,7.4343,7.4251,7.4121,7.3898,7.3553,7.2985,7.2141,7.1452,7.0823,7.0585,7.0419,7.0419,7.0427,7.0419,7.0411,7.0411,7.0411,7.0411,7.0411,7.0411,7.0411,7.0411,7.0411,9.2976,9.2427,9.2427,9.2427,9.2427,9.2427,9.2427,9.2427,9.2427,9.2705,9.316,9.322,9.3026,9.2699,9.233,9.2066,9.1844,9.1857,9.1819,9.1811,9.1723,9.1716,9.1716,9.1716,9.1716,9.1716,9.1716,9.1716,9.1716,9.1716,9.1716,9.1716,9.1716,9.1716,9.1716,9.1716,9.1716,9.1716,9.1716,9.1716,9.1716,9.1716,9.1677,9.1638,9.1251,9.0516,8.9549,8.835,8.6912,8.541,8.3902,8.2741,8.1613,8.1536,8.1497,8.1497,8.1478,8.1478,8.1466,8.144,8.1387,8.1319,8.1249,8.1207,8.1147,8.1116,8.1093,8.1093,8.1093,8.1093,8.1093,8.1093,8.1093,8.0977,8.0854,8.0162,7.9469,7.8262,7.7016,7.657,7.6117,7.5933,7.5902,7.5802,7.574,7.5732,7.5763,7.5708,7.5678,7.541,7.5333,7.5126,7.472,7.4551,7.4481,7.4135,7.3705,7.277,7.1773,7.1206,7.0754,7.0707,7.0716,7.0487,7.0411,7.0411,7.0411,7.0411,7.0411,7.0411,7.0411,7.0411,7.0411,7.0411,7.0411,9.2859,9.2427,9.2427,9.2427,9.2427,9.2427,9.2427,9.2466,9.2781,9.3141,9.3395,9.3471,9.323,9.2881,9.2549,9.2091,9.1803,9.1759,9.1746,9.1737,9.1716,9.1716,9.1716,9.1716,9.1716,9.1716,9.1716,9.1716,9.1716,9.1716,9.1716,9.1709,9.1709,9.1709,9.1709,9.1709,9.1709,9.1716,9.1709,9.1709,9.1709,9.1709,9.1716,9.1716,9.1484,9.0787,9.0014,8.8814,8.7267,8.5313,8.3367,8.2619,8.1865,8.1646,8.1446,8.14,8.14,8.1407,8.14,8.1367,8.1312,8.1249,8.1212,8.1184,8.1124,8.1093,8.1093,8.1093,8.1093,8.1093,8.1093,8.1093,8.1093,8.1016,8.0845,8.0429,7.959,7.8551,7.7814,7.7499,7.7022,7.6516,7.6338,7.5886,7.5832,7.5708,7.57,7.5684,7.5684,7.566,7.5668,7.5608,7.5149,7.5026,7.5061,7.447,7.3704,7.2684,7.1626,7.1442,7.1272,7.1156,7.0992,7.0916,7.0678,7.0411,7.0411,7.0411,7.0411,7.0411,7.0411,7.0411,7.0411,7.0411,7.0411,9.2427,9.2427,9.2427,9.2427,9.2427,9.2427,9.2427,9.2505,9.3171,9.3319,9.3187,9.3479,9.2999,9.2713,9.2638,9.2251,9.1946,9.1757,9.1723,9.1716,9.1716,9.1716,9.1716,9.1716,9.1716,9.1716,9.1716,9.1716,9.1716,9.1709,9.1709,9.1663,9.1663,9.1663,9.1656,9.1649,9.1627,9.1641,9.1641,9.1641,9.1656,9.167,9.1709,9.1716,9.1522,9.1058,9.0284,8.9156,8.7602,8.5532,8.3179,8.238,8.1935,8.1637,8.1449,8.1326,8.1319,8.1319,8.1305,8.1291,8.1241,8.1198,8.1176,8.1169,8.1108,8.1093,8.1093,8.1093,8.1093,8.1093,8.1093,8.1093,8.1093,8.1077,8.0852,8.0603,7.9701,7.8875,7.8637,7.8322,7.7777,7.7202,7.684,7.6312,7.6005,7.5898,7.5745,7.5707,7.5644,7.5641,7.5625,7.5633,7.542,7.5395,7.5348,7.4766,7.3863,7.315,7.2275,7.2035,7.1841,7.1871,7.1756,7.1459,7.1183,7.0831,7.0487,7.0411,7.0411,7.0411,7.0411,7.0411,7.0411,7.0411,7.0411,9.2427,9.2427,9.2427,9.2427,9.2427,9.2427,9.2427,9.2427,9.2544,9.2565,9.2679,9.3162,9.319,9.2727,9.2146,9.1744,9.1634,9.16,9.1677,9.1716,9.1522,9.16,9.167,9.1617,9.167,9.1702,9.1694,9.1709,9.1634,9.168,9.168,9.1622,9.1622,9.1615,9.1568,9.1554,9.1531,9.1561,9.1568,9.1561,9.1507,9.1545,9.1702,9.1484,9.1019,9.0284,8.9427,8.8566,8.7037,8.5285,8.3564,8.248,8.1951,8.1737,8.1638,8.1487,8.1441,8.1333,8.1319,8.1251,8.1207,8.1199,8.1169,8.1124,8.1093,8.1093,8.1093,8.1093,8.1093,8.1093,8.1093,8.1093,8.1085,8.1061,8.089,8.0496,7.9832,7.9459,7.914,7.8722,7.819,7.7926,7.7767,7.7232,7.662,7.6437,7.6101,7.6016,7.6033,7.5825,7.5655,7.5664,7.5672,7.5127,7.4831,7.4719,7.4022,7.3385,7.2978,7.2813,7.2711,7.275,7.2597,7.2338,7.1803,7.1336,7.103,7.0678,7.0449,7.0487,7.0411,7.0411,7.0411,7.0525,7.0602]}]]